[[{"header":{"parameterUnit":"m.s-1","parameterCategory":1,"la1":31.0,"la2":29.5877,"lo1":-88.7671,"lo2":-86.6584,"dy":0.0162,"dx":0.0185,"nx":115,"ny":88,"refTime":"2024-02-15T06:00:00:Z","depth":0,"parameterNumber":2,"parameterNumberName":"U-component_of_WINDS"},"data":[0.0,0.0,0.0,0.0,0.0,0.0,0.0,0.0,0.0,0.0,0.0,0.0,0.0,0.0,0.0,0.0,0.0,0.0,0.0,0.0,0.0,0.0,0.0,0.0,0.0,0.0,0.0,0.0,0.0,0.0,0.0,0.0,0.0,0.0,0.0,0.0,0.0,0.0,0.0,0.0,0.0,0.0,0.0,0.0,0.0,0.0,0.0,0.0,0.0,0.0,0.0,0.0,0.0,0.0,0.0,0.0,0.0,0.0,0.0,0.0,0.0,0.0,0.0,0.0,0.0,0.0,0.0,0.0,0.0,0.0,0.0,0.0,0.0,0.0,0.0,0.0,0.0,0.0,0.0,0.0,0.0,0.0,0.0,0.0,0.0,0.0,0.0,0.0,0.0,0.0,0.0,0.0,0.0,0.0,0.0,0.0,0.0,0.0,0.0,0.0,0.0,0.0,0.0,0.0,0.0,0.0,0.0,0.0,0.0,0.0,0.0,0.0,0.0,0.0,0.0,0.0,0.0,0.0,0.0,0.0,0.0,0.0,0.0,0.0,0.0,0.0,0.0,0.0,0.0,0.0,0.0,0.0,0.0,0.0,0.0,0.0,0.0,0.0,0.0,0.0,0.0,0.0,0.0,0.0,0.0,0.0,0.0,0.0,0.0,0.0,0.0,0.0,0.0,0.0,0.0,0.0,0.0,0.0,0.0,0.0,0.0,0.0,0.0,0.0,0.0,0.0,0.0,0.0,0.0,0.0,0.0,0.0,0.0,0.0,0.0,0.0,0.0,0.0,0.0,0.0,0.0,0.0,0.0,0.0,0.0,0.0,0.0,0.0,0.0,0.0,0.0,0.0,0.0,0.0,0.0,0.0,0.0,0.0,0.0,0.0,0.0,0.0,0.0,0.0,0.0,0.0,0.0,0.0,0.0,0.0,0.0,0.0,0.0,0.0,0.0,0.0,0.0,0.0,0.0,0.0,0.0,0.0,0.0,0.0,0.0,0.0,0.0,0.0,0.0,0.0,0.0,0.0,0.0,0.0,0.0,0.0,0.0,0.0,0.0,0.0,0.0,0.0,0.0,0.0,0.0,0.0,0.0,0.0,0.0,0.0,0.0,0.0,0.0,0.0,0.0,0.0,0.0,0.0,0.0,0.0,0.0,0.0,0.0,0.0,0.0,0.0,0.0,0.0,0.0,0.0,0.0,0.0,0.0,0.0,0.0,0.0,0.0,0.0,0.0,0.0,0.0,0.0,0.0,0.0,0.0,0.0,0.0,0.0,0.0,0.0,0.0,0.0,0.0,0.0,0.0,0.0,0.0,0.0,0.0,0.0,0.0,0.0,0.0,0.0,0.0,0.0,0.0,0.0,0.0,0.0,0.0,0.0,0.0,0.0,0.0,0.0,0.0,0.0,0.0,0.0,0.0,0.0,0.0,0.0,0.0,0.0,0.0,0.0,0.0,0.0,0.0,0.0,0.0,0.0,0.0,0.0,0.0,0.0,0.0,0.0,0.0,0.0,0.0,0.0,0.0,0.0,0.0,0.0,0.0,0.0,0.0,0.0,0.0,0.0,0.0,0.0,0.0,0.0,0.0,0.0,0.0,0.0,0.0,0.0,0.0,0.0,0.0,0.0,0.0,0.0,0.0,0.0,0.0,0.0,0.0,0.0,0.0,0.0,0.0,0.0,0.0,0.0,0.0,0.0,0.0,0.0,0.0,0.0,0.0,0.0,0.0,0.0,0.0,0.0,0.0,0.0,0.0,0.0,0.0,0.0,0.0,0.0,0.0,0.0,0.0,0.0,0.0,0.0,0.0,0.0,0.0,0.0,0.0,0.0,0.0,0.0,0.0,0.0,0.0,0.0,0.0,0.0,0.0,0.0,0.0,0.0,0.0,0.0,0.0,0.0,0.0,0.0,0.0,0.0,0.0,0.0,0.0,0.0,0.0,0.0,0.0,0.0,0.0,0.0,0.0,0.0,0.0,0.0,0.0,0.0,0.0,0.0,0.0,0.0,0.0,0.0,0.0,0.0,0.0,0.0,0.0,0.0,0.0,0.0,0.0,0.0,0.0,0.0,0.0,0.0,0.0,0.0,0.0,0.0,0.0,0.0,0.0,0.0,0.0,0.0,0.0,0.0,0.0,0.0,0.0,0.0,0.0,0.0,0.0,0.0,0.0,0.0,0.0,0.0,0.0,0.0,0.0,0.0,0.0,0.0,0.0,0.0,0.0,0.0,0.0,0.0,0.0,0.0,0.0,0.0,0.0,0.0,0.0,0.0,0.0,0.0,0.0,0.0,0.0,0.0,0.0,0.0,0.0,0.0,0.0,0.0,0.0,0.0,0.0,0.0,0.0,0.0,0.0,0.0,0.0,0.0,0.0,0.0,0.0,0.0,0.0,0.0,0.0,0.0,0.0,0.0,0.0,0.0,0.0,0.0,0.0,0.0,0.0,0.0,0.0,0.0,0.0,0.0,0.0,0.0,0.0,0.0,0.0,0.0,0.0,0.0,0.0,0.0,0.0,0.0,0.0,0.0,0.0,0.0,0.0,0.0,0.0,0.0,0.0,0.0,0.0,0.0,0.0,0.0,0.0,0.0,0.0,0.0,0.0,0.0,0.0,0.0,0.0,0.0,0.0,0.0,0.0,0.0,0.0,0.0,0.0,0.0,0.0,0.0,0.0,0.0,0.0,0.0,0.0,0.0,0.0,0.0,0.0,0.0,0.0,0.0,0.0,0.0,0.0,0.0,0.0,0.0,0.0,0.0,0.0,0.0,0.0,0.0,0.0,0.0,0.0,0.0,0.0,0.0,0.0,0.0,0.0,0.0,0.0,0.0,0.0,0.0,0.0,0.0,0.0,0.0,0.0,0.0,0.0,0.0,0.0,0.0,0.0,0.0,0.0,0.0,0.0,0.0,0.0,0.0,0.0,0.0,0.0,0.0,0.0,0.0,0.0,0.0,0.0,0.0,0.0,0.0,0.0,0.0,0.0,0.0,0.0,0.0,0.0,0.0,0.0,0.0,0.0,0.0,0.0,0.0,0.0,0.0,0.0,0.0,0.0,0.0,0.0,0.0,0.0,0.0,0.0,0.0,0.0,0.0,0.0,0.0,0.0,0.0,0.0,0.0,0.0,0.0,0.0,0.0,0.0,0.0,0.0,0.0,0.0,0.0,0.0,0.0,0.0,0.0,0.0,0.0,0.0,0.0,0.0,0.0,0.0,0.0,0.0,0.0,0.0,0.0,0.0,0.0,0.0,0.0,0.0,0.0,0.0,0.0,0.0,0.0,0.0,0.0,0.0,0.0,0.0,0.0,0.0,0.0,0.0,0.0,0.0,0.0,0.0,0.0,0.0,0.0,0.0,0.0,0.0,0.0,0.0,0.0,0.0,0.0,0.0,0.0,0.0,0.0,0.0,0.0,0.0,0.0,0.0,0.0,0.0,0.0,0.0,0.0,0.0,0.0,0.0,0.0,0.0,0.0,0.0,0.0,0.0,0.0,0.0,0.0,0.0,0.0,0.0,0.0,0.0,0.0,0.0,0.0,0.0,0.0,0.0,0.0,0.0,0.0,0.0,0.0,0.0,0.0,0.0,0.0,0.0,0.0,0.0,0.0,0.0,0.0,0.0,0.0,0.0,0.0,0.0,0.0,0.0,0.0,0.0,0.0,0.0,0.0,0.0,0.0,0.0,0.0,0.0,0.0,0.0,0.0,0.0,0.0,0.0,0.0,0.0,0.0,0.0,0.0,0.0,0.0,0.0,0.0,0.0,0.0,0.0,0.0,0.0,0.0,0.0,0.0,0.0,0.0,0.0,0.0,0.0,0.0,0.0,0.0,0.0,0.0,0.0,0.0,0.0,0.0,0.0,0.0,0.0,0.0,0.0,0.0,0.0,0.0,0.0,0.0,0.0,0.0,0.0,0.0,0.0,0.0,0.0,0.0,0.0,0.0,0.0,0.0,0.0,0.0,0.0,0.0,0.0,0.0,0.0,0.0,0.0,0.0,0.0,0.0,0.0,0.0,0.0,0.0,0.0,0.0,0.0,0.0,0.0,0.0,0.0,0.0,0.0,0.0,0.0,0.0,0.0,0.0,0.0,0.0,0.0,0.0,0.0,0.0,0.0,0.0,0.0,0.0,0.0,0.0,0.0,0.0,0.0,0.0,0.0,0.0,0.0,0.0,0.0,0.0,0.0,0.0,0.0,0.0,0.0,0.0,0.0,0.0,0.0,0.0,0.0,0.0,0.0,0.0,0.0,0.0,0.0,0.0,0.0,0.0,4.8275,0.0,0.0,0.0,0.0,0.0,0.0,0.0,0.0,0.0,0.0,0.0,0.0,0.0,0.0,0.0,0.0,0.0,0.0,0.0,0.0,0.0,0.0,0.0,0.0,0.0,0.0,0.0,0.0,0.0,0.0,0.0,0.0,0.0,0.0,0.0,0.0,0.0,0.0,0.0,0.0,0.0,0.0,0.0,0.0,0.0,0.0,0.0,0.0,0.0,0.0,0.0,0.0,0.0,0.0,0.0,0.0,0.0,0.0,0.0,0.0,0.0,0.0,0.0,0.0,0.0,0.0,0.0,0.0,0.0,0.0,0.0,0.0,0.0,0.0,0.0,0.0,0.0,0.0,0.0,0.0,0.0,0.0,0.0,0.0,0.0,0.0,0.0,0.0,0.0,0.0,0.0,0.0,0.0,0.0,0.0,0.0,0.0,0.0,0.0,0.0,0.0,0.0,0.0,0.0,0.0,0.0,0.0,0.0,0.0,0.0,5.0908,5.0906,5.0503,4.987,4.9052,0.0,0.0,0.0,0.0,0.0,0.0,0.0,0.0,0.0,0.0,0.0,0.0,0.0,0.0,0.0,0.0,0.0,0.0,0.0,0.0,0.0,0.0,0.0,0.0,0.0,0.0,0.0,0.0,0.0,0.0,0.0,0.0,0.0,0.0,0.0,0.0,0.0,0.0,0.0,0.0,0.0,0.0,0.0,0.0,0.0,0.0,0.0,0.0,0.0,0.0,0.0,0.0,0.0,0.0,0.0,0.0,0.0,0.0,0.0,0.0,0.0,0.0,0.0,0.0,0.0,0.0,0.0,0.0,0.0,0.0,0.0,0.0,0.0,0.0,0.0,0.0,0.0,0.0,0.0,0.0,0.0,0.0,0.0,0.0,0.0,0.0,0.0,0.0,0.0,0.0,0.0,0.0,0.0,0.0,0.0,0.0,0.0,0.0,0.0,0.0,0.0,0.0,0.0,0.0,0.0,0.0,0.0,0.0,0.0,0.0,0.0,0.0,5.0855,5.0405,4.9586,0.0,0.0,0.0,0.0,0.0,0.0,0.0,0.0,0.0,0.0,0.0,0.0,0.0,0.0,0.0,0.0,0.0,0.0,0.0,0.0,0.0,0.0,0.0,0.0,0.0,0.0,0.0,0.0,0.0,0.0,0.0,0.0,0.0,0.0,0.0,0.0,0.0,0.0,0.0,0.0,0.0,0.0,0.0,0.0,0.0,0.0,0.0,0.0,0.0,0.0,0.0,0.0,0.0,0.0,0.0,0.0,0.0,0.0,0.0,0.0,0.0,0.0,0.0,0.0,0.0,0.0,0.0,0.0,0.0,0.0,0.0,0.0,0.0,0.0,0.0,0.0,0.0,0.0,0.0,0.0,0.0,0.0,0.0,0.0,0.0,0.0,0.0,0.0,0.0,0.0,0.0,0.0,0.0,0.0,0.0,0.0,0.0,0.0,0.0,0.0,0.0,0.0,0.0,0.0,0.0,0.0,0.0,0.0,0.0,0.0,5.0821,5.089,5.0895,0.0,4.9673,0.0,0.0,0.0,0.0,0.0,0.0,0.0,0.0,0.0,0.0,0.0,0.0,0.0,0.0,0.0,0.0,0.0,0.0,0.0,0.0,0.0,0.0,0.0,0.0,0.0,0.0,0.0,0.0,0.0,0.0,0.0,0.0,0.0,0.0,0.0,0.0,0.0,0.0,0.0,0.0,0.0,0.0,0.0,0.0,0.0,0.0,0.0,0.0,0.0,0.0,0.0,0.0,0.0,0.0,0.0,0.0,0.0,0.0,0.0,0.0,0.0,0.0,0.0,0.0,0.0,0.0,0.0,0.0,0.0,0.0,0.0,0.0,0.0,0.0,0.0,0.0,0.0,0.0,0.0,0.0,0.0,0.0,0.0,0.0,0.0,0.0,0.0,0.0,0.0,0.0,0.0,0.0,0.0,0.0,0.0,0.0,0.0,0.0,0.0,0.0,0.0,0.0,0.0,0.0,0.0,0.0,0.0,0.0,0.0,0.0,5.0872,5.0904,5.0375,4.9911,0.0,0.0,0.0,0.0,0.0,0.0,0.0,0.0,0.0,0.0,0.0,0.0,0.0,0.0,0.0,0.0,0.0,0.0,0.0,0.0,0.0,0.0,0.0,0.0,0.0,0.0,0.0,0.0,0.0,0.0,0.0,0.0,0.0,0.0,0.0,0.0,0.0,0.0,0.0,0.0,0.0,0.0,0.0,0.0,0.0,0.0,0.0,0.0,0.0,0.0,0.0,0.0,0.0,0.0,0.0,0.0,0.0,0.0,0.0,0.0,0.0,0.0,0.0,0.0,0.0,0.0,0.0,0.0,0.0,0.0,0.0,0.0,0.0,0.0,0.0,0.0,0.0,0.0,0.0,0.0,0.0,0.0,0.0,0.0,0.0,0.0,0.0,0.0,0.0,0.0,0.0,0.0,0.0,0.0,0.0,0.0,0.0,0.0,0.0,0.0,0.0,0.0,0.0,0.0,0.0,0.0,0.0,0.0,0.0,0.0,5.0885,5.0866,5.0859,5.0205,4.962,4.9163,0.0,0.0,0.0,0.0,0.0,0.0,0.0,0.0,0.0,0.0,0.0,0.0,0.0,0.0,0.0,0.0,0.0,0.0,0.0,0.0,0.0,0.0,0.0,0.0,0.0,0.0,0.0,0.0,0.0,0.0,0.0,0.0,0.0,0.0,0.0,0.0,0.0,0.0,0.0,0.0,0.0,0.0,0.0,0.0,0.0,0.0,0.0,0.0,0.0,0.0,0.0,0.0,0.0,0.0,0.0,0.0,0.0,0.0,0.0,0.0,0.0,0.0,0.0,0.0,0.0,0.0,0.0,0.0,0.0,0.0,0.0,0.0,0.0,0.0,0.0,0.0,0.0,0.0,0.0,0.0,0.0,0.0,0.0,0.0,0.0,0.0,0.0,0.0,0.0,0.0,0.0,0.0,0.0,0.0,0.0,0.0,0.0,0.0,0.0,0.0,0.0,0.0,0.0,0.0,0.0,0.0,0.0,0.0,5.0921,5.0843,5.0823,5.0824,5.0688,4.9894,0.0,0.0,0.0,0.0,0.0,0.0,0.0,0.0,0.0,0.0,0.0,0.0,0.0,0.0,0.0,0.0,0.0,0.0,0.0,0.0,0.0,0.0,0.0,0.0,0.0,0.0,0.0,0.0,0.0,0.0,0.0,0.0,0.0,0.0,0.0,0.0,0.0,0.0,0.0,0.0,0.0,0.0,0.0,0.0,0.0,0.0,0.0,0.0,0.0,0.0,0.0,0.0,0.0,0.0,0.0,0.0,0.0,0.0,0.0,0.0,0.0,0.0,0.0,0.0,0.0,0.0,0.0,0.0,0.0,0.0,0.0,0.0,0.0,0.0,0.0,0.0,0.0,0.0,0.0,0.0,0.0,0.0,0.0,0.0,0.0,0.0,0.0,0.0,0.0,0.0,0.0,0.0,0.0,0.0,0.0,0.0,0.0,0.0,0.0,0.0,0.0,0.0,0.0,0.0,0.0,0.0,0.0,0.0,0.0,5.0842,5.0828,5.0819,5.078,4.9692,4.8822,0.0,0.0,0.0,0.0,0.0,0.0,0.0,0.0,0.0,0.0,0.0,0.0,0.0,0.0,0.0,0.0,0.0,0.0,0.0,0.0,0.0,0.0,0.0,0.0,0.0,0.0,0.0,0.0,0.0,0.0,0.0,0.0,0.0,0.0,0.0,0.0,0.0,0.0,0.0,0.0,0.0,0.0,0.0,0.0,0.0,0.0,0.0,0.0,0.0,0.0,0.0,0.0,0.0,0.0,0.0,0.0,0.0,0.0,0.0,0.0,0.0,0.0,0.0,0.0,0.0,0.0,0.0,0.0,0.0,0.0,0.0,0.0,0.0,0.0,0.0,0.0,0.0,0.0,0.0,0.0,0.0,0.0,0.0,0.0,0.0,0.0,0.0,0.0,0.0,0.0,0.0,0.0,0.0,0.0,0.0,0.0,0.0,0.0,0.0,0.0,0.0,0.0,0.0,0.0,0.0,0.0,0.0,0.0,0.0,5.1199,0.0,5.1487,5.1179,5.0053,4.9142,0.0,0.0,0.0,0.0,0.0,0.0,0.0,0.0,0.0,0.0,0.0,0.0,0.0,0.0,0.0,0.0,0.0,0.0,0.0,0.0,0.0,0.0,0.0,0.0,0.0,0.0,0.0,0.0,0.0,0.0,0.0,0.0,0.0,0.0,0.0,0.0,0.0,0.0,0.0,0.0,0.0,0.0,0.0,0.0,0.0,0.0,0.0,0.0,0.0,0.0,0.0,0.0,0.0,0.0,0.0,0.0,0.0,0.0,0.0,0.0,0.0,0.0,0.0,0.0,0.0,0.0,0.0,0.0,0.0,0.0,0.0,0.0,0.0,0.0,0.0,0.0,0.0,0.0,0.0,0.0,0.0,0.0,0.0,0.0,0.0,0.0,0.0,0.0,0.0,0.0,0.0,0.0,0.0,0.0,0.0,0.0,0.0,0.0,0.0,0.0,0.0,0.0,0.0,0.0,0.0,0.0,0.0,0.0,5.1235,5.2075,5.2844,5.2821,5.205,5.1841,5.1043,0.0,0.0,0.0,0.0,0.0,0.0,0.0,0.0,0.0,0.0,0.0,0.0,0.0,0.0,0.0,0.0,0.0,0.0,0.0,0.0,0.0,0.0,0.0,0.0,0.0,0.0,0.0,0.0,0.0,0.0,0.0,0.0,0.0,0.0,0.0,0.0,0.0,0.0,0.0,0.0,0.0,0.0,0.0,0.0,0.0,0.0,0.0,0.0,0.0,0.0,0.0,0.0,0.0,0.0,0.0,0.0,0.0,0.0,0.0,0.0,0.0,0.0,0.0,0.0,0.0,0.0,0.0,0.0,0.0,0.0,0.0,0.0,0.0,0.0,0.0,0.0,0.0,0.0,0.0,0.0,0.0,0.0,0.0,0.0,0.0,0.0,0.0,0.0,0.0,0.0,0.0,0.0,0.0,0.0,0.0,0.0,0.0,0.0,0.0,0.0,0.0,0.0,0.0,0.0,0.0,0.0,0.0,0.0,0.0,5.1973,5.2811,5.3382,5.3653,5.202,5.1088,0.0,0.0,0.0,0.0,0.0,0.0,0.0,0.0,0.0,0.0,0.0,0.0,0.0,0.0,0.0,0.0,0.0,0.0,0.0,0.0,0.0,0.0,0.0,0.0,0.0,0.0,0.0,0.0,0.0,0.0,0.0,0.0,0.0,0.0,0.0,0.0,0.0,0.0,0.0,0.0,0.0,0.0,0.0,0.0,0.0,0.0,0.0,0.0,0.0,0.0,0.0,0.0,0.0,0.0,0.0,0.0,0.0,0.0,0.0,0.0,0.0,0.0,0.0,0.0,0.0,0.0,0.0,0.0,0.0,0.0,0.0,0.0,0.0,0.0,0.0,0.0,0.0,0.0,0.0,0.0,0.0,0.0,0.0,0.0,0.0,0.0,0.0,0.0,0.0,0.0,0.0,0.0,0.0,0.0,0.0,0.0,0.0,0.0,0.0,0.0,0.0,0.0,0.0,0.0,0.0,0.0,0.0,0.0,0.0,5.381,5.4316,5.4703,5.4936,5.3399,5.2359,5.1886,0.0,0.0,0.0,0.0,0.0,0.0,0.0,0.0,0.0,0.0,0.0,0.0,0.0,0.0,0.0,0.0,0.0,0.0,0.0,0.0,0.0,0.0,0.0,0.0,0.0,0.0,0.0,0.0,0.0,0.0,0.0,0.0,0.0,0.0,0.0,0.0,0.0,0.0,0.0,0.0,0.0,0.0,0.0,0.0,0.0,0.0,0.0,0.0,0.0,0.0,0.0,0.0,0.0,0.0,0.0,0.0,0.0,0.0,0.0,0.0,0.0,0.0,0.0,0.0,0.0,0.0,0.0,0.0,0.0,0.0,0.0,0.0,0.0,0.0,0.0,0.0,0.0,0.0,0.0,0.0,0.0,0.0,0.0,0.0,0.0,0.0,0.0,0.0,0.0,0.0,0.0,0.0,0.0,0.0,0.0,0.0,0.0,0.0,0.0,0.0,0.0,0.0,0.0,0.0,0.0,0.0,0.0,0.0,5.712,5.7243,5.6902,5.6052,5.5785,5.4587,0.0,0.0,0.0,0.0,0.0,0.0,0.0,0.0,0.0,0.0,0.0,0.0,0.0,0.0,0.0,0.0,0.0,0.0,0.0,0.0,0.0,0.0,0.0,0.0,0.0,0.0,0.0,0.0,0.0,0.0,0.0,0.0,0.0,0.0,0.0,0.0,0.0,0.0,0.0,0.0,0.0,0.0,0.0,0.0,0.0,0.0,0.0,0.0,0.0,0.0,0.0,0.0,0.0,0.0,0.0,0.0,0.0,0.0,0.0,0.0,0.0,0.0,0.0,0.0,0.0,0.0,0.0,0.0,0.0,0.0,0.0,0.0,0.0,0.0,0.0,0.0,0.0,0.0,0.0,0.0,0.0,0.0,0.0,0.0,0.0,0.0,0.0,0.0,0.0,0.0,0.0,0.0,0.0,0.0,0.0,0.0,0.0,0.0,0.0,0.0,0.0,0.0,0.0,0.0,0.0,0.0,0.0,0.0,0.0,5.8779,6.0094,6.0364,5.9439,5.7015,5.5667,0.0,0.0,0.0,0.0,0.0,0.0,0.0,0.0,0.0,0.0,0.0,0.0,0.0,0.0,0.0,0.0,0.0,0.0,0.0,0.0,0.0,0.0,0.0,0.0,0.0,0.0,0.0,0.0,0.0,0.0,0.0,0.0,0.0,0.0,0.0,0.0,0.0,0.0,0.0,0.0,0.0,0.0,0.0,0.0,0.0,0.0,0.0,0.0,0.0,0.0,0.0,0.0,0.0,0.0,0.0,0.0,0.0,0.0,0.0,0.0,0.0,0.0,0.0,0.0,0.0,0.0,0.0,0.0,0.0,0.0,0.0,0.0,0.0,0.0,0.0,0.0,0.0,0.0,0.0,0.0,0.0,0.0,0.0,0.0,0.0,0.0,0.0,0.0,0.0,0.0,0.0,0.0,0.0,0.0,0.0,0.0,0.0,0.0,0.0,0.0,0.0,0.0,0.0,0.0,0.0,0.0,0.0,0.0,5.8513,6.0553,6.1898,6.2552,6.2397,5.9785,5.7749,0.0,0.0,0.0,0.0,0.0,0.0,0.0,0.0,0.0,0.0,0.0,0.0,0.0,0.0,0.0,0.0,0.0,0.0,0.0,0.0,0.0,0.0,0.0,0.0,0.0,0.0,0.0,0.0,0.0,0.0,0.0,0.0,0.0,0.0,0.0,0.0,0.0,0.0,0.0,0.0,0.0,0.0,0.0,0.0,0.0,0.0,0.0,0.0,0.0,0.0,0.0,0.0,0.0,0.0,0.0,0.0,0.0,0.0,0.0,0.0,0.0,0.0,0.0,0.0,0.0,0.0,0.0,0.0,0.0,0.0,0.0,0.0,0.0,0.0,0.0,0.0,0.0,0.0,0.0,0.0,0.0,0.0,0.0,0.0,0.0,0.0,0.0,0.0,0.0,0.0,0.0,0.0,0.0,0.0,0.0,0.0,0.0,0.0,0.0,0.0,0.0,0.0,0.0,0.0,0.0,0.0,0.0,0.0,5.9745,6.2173,6.3126,6.3932,6.4626,6.2938,6.0134,0.0,0.0,0.0,0.0,0.0,0.0,0.0,0.0,0.0,0.0,0.0,0.0,0.0,0.0,0.0,0.0,0.0,0.0,0.0,0.0,0.0,0.0,0.0,0.0,0.0,0.0,0.0,0.0,0.0,0.0,0.0,0.0,0.0,0.0,0.0,0.0,0.0,0.0,0.0,0.0,0.0,0.0,0.0,0.0,0.0,0.0,0.0,0.0,0.0,0.0,0.0,0.0,0.0,0.0,0.0,0.0,0.0,0.0,0.0,0.0,0.0,0.0,0.0,0.0,0.0,0.0,0.0,0.0,0.0,0.0,0.0,0.0,0.0,0.0,0.0,0.0,0.0,0.0,0.0,0.0,0.0,0.0,0.0,0.0,0.0,0.0,0.0,0.0,0.0,0.0,0.0,0.0,0.0,0.0,0.0,0.0,0.0,0.0,0.0,0.0,0.0,0.0,0.0,0.0,0.0,0.0,0.0,0.0,6.1166,6.3011,6.4549,6.5439,6.5591,6.267,6.0324,0.0,0.0,0.0,0.0,0.0,0.0,0.0,0.0,0.0,0.0,0.0,0.0,0.0,0.0,0.0,0.0,0.0,0.0,0.0,0.0,0.0,0.0,0.0,0.0,0.0,0.0,0.0,0.0,0.0,0.0,0.0,0.0,0.0,0.0,0.0,0.0,0.0,0.0,0.0,0.0,0.0,0.0,0.0,0.0,0.0,0.0,0.0,0.0,5.2056,0.0,0.0,0.0,0.0,0.0,0.0,0.0,0.0,0.0,0.0,0.0,0.0,0.0,0.0,0.0,0.0,0.0,0.0,0.0,0.0,0.0,0.0,0.0,0.0,0.0,0.0,0.0,0.0,0.0,0.0,0.0,0.0,0.0,0.0,0.0,0.0,0.0,0.0,0.0,0.0,0.0,0.0,0.0,0.0,0.0,0.0,0.0,0.0,0.0,0.0,0.0,0.0,0.0,0.0,0.0,0.0,0.0,0.0,0.0,6.24,6.4472,6.5439,6.6054,6.6327,6.3551,6.1203,0.0,0.0,0.0,0.0,0.0,0.0,0.0,0.0,0.0,0.0,0.0,0.0,0.0,0.0,0.0,0.0,0.0,0.0,0.0,0.0,0.0,0.0,0.0,0.0,0.0,0.0,0.0,0.0,0.0,0.0,0.0,0.0,0.0,0.0,0.0,0.0,0.0,0.0,0.0,0.0,0.0,0.0,0.0,0.0,0.0,0.0,0.0,0.0,0.0,0.0,0.0,0.0,0.0,0.0,0.0,0.0,0.0,0.0,0.0,0.0,0.0,0.0,0.0,0.0,0.0,0.0,0.0,0.0,0.0,0.0,0.0,0.0,0.0,0.0,0.0,0.0,0.0,0.0,0.0,0.0,0.0,0.0,0.0,0.0,0.0,0.0,0.0,0.0,0.0,0.0,0.0,0.0,0.0,0.0,0.0,0.0,0.0,0.0,0.0,0.0,0.0,0.0,0.0,0.0,0.0,0.0,0.0,6.0442,6.3212,6.5747,6.59,6.6287,6.7016,6.4626,6.2161,0.0,0.0,0.0,0.0,0.0,0.0,0.0,0.0,0.0,0.0,0.0,0.0,0.0,0.0,0.0,0.0,0.0,0.0,0.0,0.0,0.0,0.0,0.0,0.0,0.0,0.0,0.0,0.0,0.0,0.0,0.0,0.0,0.0,0.0,0.0,0.0,0.0,0.0,0.0,5.2321,5.4756,0.0,0.0,0.0,0.0,0.0,0.0,0.0,0.0,5.4542,0.0,0.0,0.0,0.0,0.0,0.0,0.0,0.0,0.0,0.0,0.0,0.0,0.0,0.0,0.0,0.0,0.0,0.0,0.0,0.0,0.0,0.0,0.0,0.0,0.0,0.0,0.0,0.0,0.0,0.0,0.0,0.0,0.0,0.0,0.0,0.0,0.0,0.0,0.0,0.0,0.0,0.0,0.0,0.0,0.0,0.0,0.0,0.0,0.0,0.0,0.0,0.0,0.0,0.0,0.0,0.0,6.0094,6.0747,6.2591,6.5785,6.59,6.6287,6.6981,6.4626,6.2431,6.063,0.0,0.0,0.0,0.0,0.0,0.0,0.0,0.0,0.0,0.0,0.0,0.0,0.0,0.0,0.0,0.0,0.0,0.0,0.0,0.0,0.0,0.0,0.0,0.0,0.0,0.0,0.0,0.0,0.0,0.0,0.0,0.0,0.0,0.0,0.0,0.0,0.0,0.0,0.0,5.6417,5.7785,0.0,0.0,0.0,0.0,0.0,0.0,0.0,0.0,5.3888,0.0,0.0,0.0,0.0,0.0,0.0,0.0,0.0,0.0,0.0,0.0,0.0,0.0,0.0,0.0,0.0,0.0,0.0,0.0,0.0,0.0,0.0,0.0,0.0,0.0,0.0,0.0,0.0,0.0,0.0,0.0,0.0,0.0,0.0,0.0,0.0,0.0,0.0,0.0,0.0,0.0,0.0,0.0,0.0,0.0,0.0,0.0,0.0,0.0,0.0,0.0,0.0,0.0,0.0,0.0,5.9973,6.1433,6.3742,6.7011,6.6357,6.6514,6.7627,6.4476,6.2093,0.0,0.0,0.0,0.0,0.0,0.0,0.0,0.0,0.0,0.0,0.0,0.0,0.0,0.0,0.0,0.0,0.0,0.0,0.0,0.0,0.0,0.0,0.0,0.0,0.0,0.0,0.0,0.0,0.0,0.0,0.0,0.0,0.0,0.0,0.0,0.0,0.0,0.0,0.0,0.0,5.7364,5.8386,5.841,0.0,0.0,0.0,0.0,0.0,0.0,5.5015,5.4467,0.0,0.0,0.0,0.0,0.0,0.0,0.0,0.0,0.0,0.0,0.0,0.0,0.0,0.0,0.0,0.0,0.0,0.0,0.0,0.0,0.0,0.0,0.0,0.0,0.0,0.0,0.0,0.0,0.0,0.0,0.0,0.0,0.0,0.0,0.0,0.0,0.0,0.0,0.0,0.0,0.0,0.0,0.0,0.0,0.0,0.0,0.0,0.0,0.0,0.0,0.0,0.0,0.0,0.0,0.0,5.9704,6.1932,6.4703,6.7893,6.667,6.6628,6.8008,6.436,6.1863,0.0,0.0,0.0,0.0,0.0,0.0,0.0,0.0,0.0,0.0,0.0,0.0,0.0,0.0,0.0,0.0,0.0,0.0,0.0,0.0,0.0,0.0,0.0,0.0,0.0,0.0,0.0,0.0,0.0,0.0,0.0,0.0,0.0,0.0,0.0,0.0,0.0,0.0,0.0,0.0,0.0,5.9056,5.9525,5.8432,0.0,0.0,0.0,0.0,5.7754,5.6902,0.0,0.0,0.0,0.0,0.0,0.0,0.0,0.0,0.0,0.0,0.0,0.0,0.0,0.0,0.0,0.0,0.0,0.0,0.0,0.0,0.0,0.0,0.0,0.0,0.0,0.0,0.0,0.0,0.0,0.0,0.0,0.0,0.0,0.0,0.0,0.0,0.0,0.0,0.0,0.0,0.0,0.0,0.0,0.0,0.0,0.0,0.0,0.0,0.0,0.0,0.0,0.0,0.0,0.0,0.0,0.0,6.0516,6.1709,6.3866,6.7018,6.6362,6.6325,6.7172,6.4589,6.2397,0.0,0.0,0.0,0.0,0.0,0.0,0.0,0.0,0.0,0.0,0.0,0.0,0.0,0.0,0.0,0.0,0.0,0.0,0.0,0.0,0.0,0.0,0.0,0.0,0.0,0.0,0.0,0.0,0.0,0.0,0.0,0.0,0.0,0.0,0.0,0.0,0.0,0.0,0.0,0.0,0.0,6.0321,5.9705,5.9397,5.9484,0.0,0.0,0.0,6.1136,6.1367,0.0,0.0,0.0,0.0,0.0,0.0,0.0,0.0,0.0,0.0,0.0,0.0,0.0,0.0,0.0,0.0,0.0,0.0,0.0,0.0,0.0,0.0,0.0,0.0,0.0,0.0,0.0,0.0,0.0,0.0,0.0,0.0,0.0,0.0,0.0,0.0,0.0,0.0,0.0,0.0,0.0,0.0,0.0,0.0,0.0,0.0,0.0,0.0,0.0,0.0,0.0,0.0,0.0,0.0,0.0,5.7517,6.0747,6.3057,6.544,6.7742,6.7511,6.7473,6.7821,6.4892,6.2277,0.0,0.0,0.0,0.0,0.0,0.0,0.0,0.0,0.0,0.0,0.0,0.0,0.0,0.0,0.0,0.0,0.0,0.0,0.0,0.0,0.0,0.0,0.0,0.0,0.0,0.0,0.0,0.0,0.0,0.0,0.0,0.0,0.0,0.0,0.0,0.0,0.0,0.0,0.0,0.0,0.0,0.0,6.1017,6.0995,0.0,0.0,0.0,6.0436,6.2474,0.0,0.0,0.0,0.0,0.0,0.0,0.0,0.0,0.0,0.0,0.0,0.0,0.0,0.0,0.0,0.0,0.0,0.0,0.0,0.0,0.0,0.0,0.0,0.0,0.0,0.0,0.0,0.0,0.0,0.0,0.0,0.0,0.0,0.0,0.0,0.0,0.0,0.0,0.0,0.0,0.0,0.0,0.0,0.0,0.0,0.0,0.0,0.0,0.0,0.0,0.0,0.0,0.0,0.0,0.0,0.0,0.0,6.1005,6.4407,6.7015,6.866,6.8507,6.8507,6.866,6.5516,0.0,0.0,0.0,0.0,0.0,0.0,0.0,0.0,0.0,0.0,0.0,0.0,0.0,0.0,0.0,0.0,0.0,0.0,0.0,0.0,0.0,0.0,0.0,0.0,0.0,0.0,0.0,0.0,0.0,0.0,0.0,0.0,0.0,0.0,0.0,0.0,0.0,0.0,0.0,0.0,0.0,0.0,6.1573,6.2622,6.2913,6.3174,0.0,0.0,6.2589,6.4011,6.2854,6.1587,0.0,0.0,0.0,0.0,0.0,0.0,0.0,0.0,0.0,0.0,0.0,0.0,0.0,0.0,0.0,0.0,0.0,0.0,0.0,0.0,0.0,0.0,0.0,0.0,0.0,0.0,0.0,0.0,0.0,0.0,0.0,0.0,0.0,0.0,0.0,0.0,0.0,0.0,0.0,0.0,0.0,0.0,0.0,0.0,0.0,0.0,0.0,0.0,0.0,0.0,0.0,0.0,0.0,0.0,0.0,6.1564,6.5171,6.7814,6.951,6.8816,6.8814,6.9544,6.671,6.412,0.0,0.0,0.0,0.0,0.0,0.0,0.0,0.0,0.0,0.0,0.0,0.0,0.0,0.0,0.0,0.0,0.0,0.0,0.0,0.0,0.0,0.0,0.0,0.0,0.0,0.0,0.0,0.0,0.0,0.0,0.0,0.0,0.0,0.0,0.0,0.0,0.0,0.0,0.0,0.0,0.0,6.2619,6.4317,6.5165,6.6168,0.0,0.0,6.5862,6.671,6.7358,6.6508,6.2635,0.0,0.0,0.0,0.0,0.0,0.0,0.0,0.0,0.0,0.0,0.0,0.0,0.0,0.0,0.0,0.0,0.0,0.0,0.0,0.0,0.0,0.0,0.0,0.0,0.0,0.0,0.0,0.0,0.0,0.0,0.0,0.0,0.0,0.0,0.0,0.0,0.0,0.0,0.0,0.0,0.0,0.0,0.0,0.0,0.0,0.0,0.0,0.0,0.0,0.0,0.0,0.0,0.0,5.8607,6.0483,6.4409,6.6759,6.7414,6.7606,6.7606,6.7414,6.5824,6.3455,0.0,0.0,0.0,0.0,0.0,0.0,0.0,0.0,0.0,0.0,0.0,0.0,0.0,0.0,0.0,0.0,0.0,0.0,0.0,0.0,0.0,0.0,0.0,0.0,0.0,0.0,0.0,0.0,5.012,5.0581,5.0927,0.0,0.0,0.0,0.0,0.0,0.0,0.0,0.0,0.0,0.0,6.3297,6.6501,6.6797,0.0,0.0,6.8202,6.7744,6.8592,6.7669,6.632,6.4709,6.2246,0.0,0.0,0.0,0.0,0.0,0.0,0.0,0.0,0.0,0.0,0.0,0.0,0.0,0.0,0.0,0.0,0.0,0.0,0.0,0.0,0.0,0.0,0.0,0.0,0.0,0.0,0.0,0.0,0.0,0.0,0.0,0.0,0.0,0.0,0.0,0.0,0.0,0.0,0.0,0.0,0.0,0.0,0.0,0.0,0.0,0.0,0.0,0.0,0.0,0.0,0.0,0.0,5.8963,6.0763,6.4697,6.6873,6.7091,6.7712,6.7754,6.7129,6.5923,6.3852,0.0,0.0,0.0,0.0,0.0,0.0,0.0,0.0,0.0,0.0,0.0,0.0,0.0,0.0,0.0,0.0,0.0,0.0,0.0,0.0,0.0,0.0,0.0,0.0,0.0,0.0,0.0,0.0,5.1354,5.1545,5.1543,0.0,0.0,0.0,0.0,0.0,0.0,0.0,0.0,0.0,0.0,6.4594,6.8239,6.8475,6.8786,7.0244,6.9702,6.9279,6.9664,6.8401,6.6976,6.5707,0.0,0.0,0.0,0.0,0.0,0.0,0.0,0.0,0.0,0.0,0.0,0.0,0.0,0.0,0.0,0.0,0.0,0.0,0.0,0.0,0.0,0.0,0.0,0.0,0.0,0.0,0.0,0.0,0.0,0.0,0.0,0.0,0.0,0.0,0.0,0.0,0.0,0.0,0.0,0.0,0.0,0.0,0.0,0.0,0.0,0.0,0.0,0.0,0.0,0.0,0.0,0.0,0.0,0.0,6.291,6.6454,6.8747,6.9489,6.9614,6.9522,6.9437,6.7663,6.5963,6.4465,0.0,0.0,0.0,0.0,0.0,0.0,0.0,0.0,0.0,0.0,0.0,0.0,0.0,0.0,0.0,0.0,0.0,0.0,0.0,0.0,0.0,0.0,0.0,0.0,0.0,0.0,5.1811,5.1203,5.0785,0.0,0.0,0.0,0.0,0.0,0.0,0.0,0.0,0.0,0.0,6.3708,6.6745,6.9318,7.032,7.1094,7.2017,7.1439,7.0589,6.9898,7.0284,6.94,0.0,0.0,0.0,0.0,0.0,0.0,0.0,0.0,0.0,0.0,0.0,0.0,0.0,0.0,0.0,0.0,0.0,0.0,0.0,0.0,0.0,0.0,0.0,0.0,0.0,0.0,0.0,5.1372,5.1303,0.0,0.0,0.0,0.0,0.0,0.0,0.0,0.0,0.0,0.0,0.0,5.5869,5.613,0.0,0.0,0.0,0.0,0.0,0.0,0.0,0.0,0.0,0.0,0.0,0.0,5.9961,6.1865,6.5167,6.7028,6.729,6.729,6.729,6.7327,6.6652,6.5144,6.2703,0.0,0.0,0.0,0.0,0.0,0.0,0.0,0.0,0.0,0.0,0.0,0.0,0.0,0.0,0.0,0.0,0.0,0.0,0.0,0.0,0.0,0.0,0.0,0.0,0.0,5.1851,0.0,0.0,0.0,0.0,0.0,0.0,0.0,0.0,0.0,0.0,0.0,5.9821,6.2935,6.5287,6.7824,7.094,7.1596,7.2246,0.0,0.0,0.0,0.0,0.0,0.0,0.0,0.0,0.0,0.0,0.0,0.0,0.0,0.0,6.6981,6.1127,5.9365,5.8974,5.9499,0.0,0.0,0.0,0.0,0.0,0.0,0.0,0.0,0.0,0.0,0.0,0.0,0.0,0.0,0.0,0.0,5.2563,0.0,0.0,0.0,0.0,0.0,0.0,0.0,0.0,5.639,5.7576,5.8321,5.8656,5.8616,0.0,5.7799,5.6466,0.0,0.0,0.0,0.0,0.0,0.0,0.0,0.0,6.0513,6.2479,6.5413,6.7085,6.7342,6.7642,6.7642,6.7342,6.6785,6.505,6.1978,6.0153,5.8183,0.0,0.0,0.0,0.0,0.0,0.0,0.0,0.0,0.0,0.0,0.0,0.0,0.0,0.0,0.0,0.0,0.0,0.0,0.0,0.0,0.0,0.0,0.0,5.2696,0.0,0.0,0.0,0.0,0.0,0.0,0.0,0.0,0.0,5.7927,5.9994,6.2578,6.5532,6.7495,6.9542,7.2039,0.0,0.0,0.0,0.0,0.0,0.0,0.0,7.1798,7.1735,7.0419,6.9401,6.9589,7.0479,7.0738,6.96,0.0,0.0,6.4649,6.3143,6.2904,6.3388,6.3675,6.4075,6.4905,6.5742,6.6426,0.0,0.0,0.0,0.0,0.0,0.0,0.0,0.0,5.4862,5.5198,0.0,5.4309,0.0,0.0,0.0,0.0,0.0,0.0,0.0,0.0,5.9661,6.0768,6.0099,6.0884,6.0884,6.0173,6.1662,6.155,5.9804,5.5278,0.0,0.0,0.0,0.0,0.0,0.0,6.2479,6.4816,6.7302,6.8936,6.9676,7.0456,7.0496,6.9679,6.8196,6.5899,6.283,6.2816,6.1061,5.7104,5.636,0.0,0.0,0.0,0.0,0.0,0.0,0.0,0.0,0.0,0.0,0.0,0.0,0.0,0.0,0.0,0.0,0.0,0.0,0.0,0.0,5.3226,0.0,0.0,0.0,0.0,0.0,0.0,0.0,0.0,0.0,0.0,6.0155,6.3091,6.6129,6.8179,0.0,0.0,0.0,0.0,7.47,7.4722,7.5045,7.5193,7.4773,7.5287,7.4684,7.1592,0.0,0.0,7.1405,7.2681,7.3259,7.0893,7.1609,7.2046,7.1127,6.9372,6.8346,6.8386,6.7821,6.7663,6.8403,6.9322,6.9868,5.9099,0.0,0.0,0.0,0.0,5.7204,5.7987,5.9064,5.865,5.8173,5.7578,5.6796,0.0,0.0,0.0,0.0,0.0,0.0,5.8098,5.981,6.0776,6.1664,6.2548,6.3368,6.3625,6.3402,6.389,6.385,6.3293,6.0845,5.8841,5.7318,0.0,0.0,0.0,0.0,6.4708,6.6599,6.8973,7.031,7.057,7.0793,7.0787,7.0567,6.9564,6.8305,6.6791,6.5151,6.3199,6.0866,5.8573,0.0,0.0,0.0,0.0,0.0,0.0,0.0,0.0,0.0,0.0,0.0,0.0,0.0,0.0,0.0,0.0,0.0,0.0,0.0,5.2739,5.3401,5.4119,0.0,0.0,0.0,0.0,0.0,0.0,0.0,0.0,0.0,6.647,6.7939,6.9078,0.0,0.0,7.3039,7.358,7.474,7.5726,7.6289,0.0,0.0,0.0,7.5577,7.5042,7.525,7.5679,7.5689,7.4992,7.5084,7.5162,7.4711,7.473,7.4673,7.43,7.2059,7.0568,7.0941,7.1343,7.1823,7.2654,7.3438,7.4089,6.3482,6.1922,5.9651,5.8876,5.9207,5.9547,6.025,6.1182,6.0996,6.0619,6.0104,5.9324,5.7952,5.6162,5.5572,0.0,0.0,0.0,5.9767,6.2142,6.2147,6.2996,6.4556,6.5076,6.5333,6.5336,6.5636,6.5968,6.6268,6.5302,6.4073,6.2553,0.0,0.0,6.2848,6.511,6.6933,6.8271,7.032,7.1437,7.14,7.1437,7.14,7.14,7.0611,6.9787,6.9013,6.7559,6.5668,6.3445,6.1318,5.8913,0.0,0.0,0.0,0.0,0.0,0.0,0.0,0.0,0.0,0.0,0.0,5.1609,0.0,0.0,0.0,0.0,5.2256,5.3052,5.3738,5.4709,0.0,0.0,0.0,0.0,0.0,0.0,0.0,6.4069,6.6184,6.8191,7.0369,7.1859,7.26,7.2074,7.3523,7.4706,7.4968,0.0,7.7036,7.7536,7.8021,7.8377,7.8514,7.7699,7.7273,7.7916,7.787,7.7699,7.768,7.7676,7.7856,7.8048,7.7946,7.7729,7.7729,7.6081,7.4406,7.3791,7.402,7.45,7.4983,7.5463,7.5904,6.7494,6.7045,6.1736,5.9876,6.0473,6.1253,6.159,6.1627,6.2373,6.2625,6.2445,6.1699,6.0922,5.999,5.8618,0.0,0.0,6.0359,6.1699,6.3888,6.3888,6.4745,6.6271,6.6339,6.6382,6.6419,6.7193,6.7973,6.8639,6.8676,6.8716,6.8716,6.5782,6.5339,6.7345,6.8236,6.9088,6.9902,7.1487,7.2274,7.2314,7.2311,7.2311,7.2277,7.1512,7.0722,6.9976,6.9828,6.8308,6.5188,6.4185,6.2005,5.8386,0.0,0.0,0.0,0.0,0.0,0.0,0.0,0.0,0.0,0.0,0.0,0.0,0.0,0.0,0.0,5.4392,0.0,5.5648,5.6685,0.0,0.0,0.0,5.9667,6.1896,6.2828,6.407,6.6234,0.0,0.0,0.0,0.0,7.6123,7.5027,7.5929,7.665,7.6692,7.7762,7.854,7.8563,7.9492,8.0334,8.0415,8.0419,8.0124,7.9611,7.9587,7.9541,7.9548,8.0051,8.0587,8.0511,8.0665,8.059,8.0665,8.0327,7.9769,7.6723,7.6243,7.6243,7.6355,7.6422,7.6513,6.9119,6.8973,6.7005,6.5559,6.4631,6.4856,6.4933,6.4936,6.5153,6.4522,6.3296,6.3113,6.2593,6.181,6.2036,6.2699,6.3665,6.4333,6.5262,6.6382,6.6419,6.6971,6.7939,6.8568,6.8825,6.8899,6.9679,7.0125,7.031,7.0351,7.0654,7.1227,7.0521,6.9515,6.8308,6.9605,7.0766,7.1599,7.2605,7.3128,7.3088,7.3128,7.3125,7.3128,7.2936,7.245,7.1633,7.0948,6.9416,6.6822,6.5296,6.3258,6.0526,5.7494,0.0,0.0,0.0,0.0,0.0,0.0,0.0,0.0,0.0,5.3709,5.037,0.0,5.4299,0.0,5.5721,5.697,5.7389,5.8191,0.0,0.0,6.2331,6.3145,6.6451,6.6522,6.7151,6.9506,7.1113,7.2571,7.3844,7.5724,7.7075,7.738,7.7674,7.7995,7.8291,7.9383,8.0159,8.0144,8.0383,8.0597,8.073,8.0702,8.0695,8.0438,8.0435,8.0404,8.0401,8.0553,8.0702,8.0702,8.0702,8.0702,8.0735,8.0702,8.0512,7.9695,7.9546,7.9546,7.9546,7.9469,7.9506,7.1366,7.1255,7.0054,6.9051,6.8199,6.7456,6.7153,6.7156,6.7159,6.6639,6.5785,6.5782,6.5522,6.5151,6.5596,6.6005,6.6485,6.6936,6.7605,6.8342,6.8342,6.8788,6.9564,7.005,7.0236,7.027,7.11,7.1475,7.1515,7.1809,7.2261,7.272,7.272,7.2045,7.0772,7.1589,7.2261,7.272,7.3162,7.3385,7.3385,7.3385,7.3385,7.3385,7.3054,7.249,7.1629,7.0837,6.9233,6.6899,6.5859,6.4113,6.133,5.877,5.6647,0.0,0.0,0.0,0.0,0.0,0.0,0.0,0.0,0.0,0.0,0.0,5.6246,0.0,5.832,0.0,6.0446,6.1875,6.3697,6.5811,6.5667,6.651,6.9295,6.9503,7.0252,7.2289,7.3642,7.4726,7.5615,7.7138,7.8327,7.877,7.9476,7.9882,7.9749,8.0316,8.0847,8.1218,8.1259,8.1441,8.1735,8.1813,8.1816,8.1813,8.1813,8.1813,8.1816,8.1813,8.1809,8.1813,8.1816,8.1813,8.1813,8.1813,8.1813,8.1813,8.1813,8.1516,8.085,8.0702,8.0702,7.3723,7.3568,7.214,7.1539,7.1391,6.9908,6.9088,6.8791,6.8791,6.8753,6.8642,6.8531,6.8571,6.8642,6.8639,6.8713,6.8825,6.8825,6.9233,7.0019,7.0019,7.0425,7.1202,7.1242,7.1205,7.1242,7.2007,7.2351,7.2382,7.3057,7.3385,7.3385,7.3385,7.3385,7.3385,7.3385,7.3385,7.3385,7.3385,7.3385,7.3385,7.3385,7.3385,7.3348,7.2611,7.1781,7.0905,7.0236,6.8753,6.6419,6.6234,6.4856,6.1813,5.999,5.8356,0.0,5.5201,0.0,0.0,0.0,0.0,0.0,0.0,0.0,0.0,5.8803,5.9322,5.9324,6.159,6.3333,6.4005,6.6113,6.7828,6.8679,6.8831,6.9496,7.1165,7.2038,7.3088,7.4571,7.6135,7.7101,7.7287,7.8587,7.9509,7.9884,8.0958,8.1571,8.1196,8.108,8.1408,8.2076,8.2154,8.2374,8.289,8.3113,8.3117,8.315,8.3076,8.3187,8.3113,8.3113,8.315,8.315,8.308,8.3113,8.3187,8.315,8.315,8.3076,8.3039,8.2667,8.1516,8.1148,8.1029,7.5351,7.5311,7.501,7.4862,7.4787,7.3859,7.2329,7.0456,7.0422,7.0084,6.9419,6.8794,6.8859,6.9453,6.9456,6.9828,7.0456,7.0459,7.0914,7.1707,7.171,7.2159,7.2899,7.2933,7.2933,7.2936,7.3082,7.3162,7.3162,7.3311,7.3385,7.3385,7.3385,7.3385,7.3385,0.0,0.0,0.0,7.3385,7.3385,7.3385,7.3385,7.3385,7.3385,7.2608,0.0,7.0939,7.0756,6.9564,6.7234,6.7088,0.0,0.0,0.0,0.0,0.0,0.0,0.0,0.0,0.0,0.0,0.0,6.3249,6.1948,5.894,6.1065,6.2662,6.2736,6.4928,6.6419,6.6602,6.7565,6.8865,7.0233,7.0459,7.1354,7.3561,7.4051,7.4537,7.5466,7.6473,7.7365,7.803,7.8918,8.0033,8.1222,8.1783,8.2192,8.2667,8.2634,8.2782,8.2931,8.2931,8.3005,8.315,8.3187,8.3187,8.3187,8.3187,8.3187,8.3187,8.3187,8.3187,8.3187,8.3187,8.3187,8.3187,8.3187,8.3187,8.3187,8.3187,8.3113,8.2782,8.2708,8.2742,7.68,0.0,7.598,7.5797,0.0,7.5388,7.449,7.3258,7.2481,7.1927,7.1512,7.1106,7.114,7.1515,7.1515,7.1735,7.215,7.2143,7.2376,7.2794,7.2791,7.3017,7.3385,7.3385,7.3385,7.3385,7.3385,7.3385,7.3385,7.3385,7.3385,7.3385,7.3385,7.3385,7.3385,7.3385,7.3385,7.3385,7.3385,7.3385,7.3385,7.3385,7.3385,7.3385,0.0,0.0,0.0,0.0,0.0,0.0,0.0,0.0,0.0,0.0,0.0,6.2999,6.2182,6.211,6.2888,6.2959,6.3853,6.5859,6.6416,6.5599,6.311,6.4856,6.6005,6.6045,6.7899,6.9085,6.9125,7.0543,7.1849,7.2666,7.3069,7.3855,7.498,7.5578,7.5983,7.6469,7.7544,7.8476,7.8844,7.9996,8.0999,8.1857,8.2374,8.2745,8.3113,8.3187,8.3187,8.3187,8.3187,8.3187,8.3187,8.3187,8.3187,8.3187,8.3187,8.3187,8.3187,8.3187,8.3187,8.3187,8.3187,8.3187,8.3187,8.3187,8.3187,8.3187,8.3187,8.3187,8.3187,8.3187,8.3187,7.8324,7.7658,7.6949,7.6686,7.6648,7.6503,7.6355,7.6132,0.0,0.0,0.0,7.3612,7.3683,7.3834,7.3828,7.3828,7.3828,7.3834,7.3834,7.3831,7.3834,7.3828,7.3797,7.3683,7.3612,7.3608,7.346,7.3385,7.3385,7.3385,7.3385,7.3385,7.3385,7.3385,7.3385,7.3385,7.3385,7.3385,7.3385,7.3385,7.3385,7.3385,7.3385,7.3385,7.2649,7.1481,6.9976,6.927,6.8233,6.6828,6.6757,6.6714,6.6714,6.6602,6.6534,6.6528,6.6531,6.6565,6.6716,6.6757,6.7234,6.8314,6.9094,6.9091,6.8051,6.8685,6.9277,6.9537,7.0908,7.1759,7.1799,7.3558,7.4791,7.4834,7.5426,7.5834,7.6024,7.6652,7.7138,7.7584,7.8662,7.9624,7.9955,8.1114,8.2076,8.2266,8.2745,8.3187,8.3187,8.3187,8.3187,8.3187,8.3187,8.3187,8.3187,8.3187,8.3187,8.3187,8.3187,8.3187,8.3187,8.3187,8.3187,8.3187,8.3173,8.3158,8.318,8.3158,8.3162,8.3184,8.3187,8.3187,8.3187,8.3187,8.3187,8.0289,8.0182,8.0067,7.9989,7.9955,7.9249,7.8584,7.7763,7.5463,7.4422,7.4426,7.4422,7.4828,7.5466,7.5459,7.5459,7.5459,7.5459,7.5463,0.0,7.5456,7.5459,7.5426,7.4757,7.4426,7.4385,7.372,7.3385,7.3385,7.3385,7.3385,7.3385,7.3385,7.3382,7.3385,7.3385,7.3385,7.3385,7.3385,7.3385,7.3385,7.3385,7.3385,7.3351,7.2608,7.1741,7.0756,7.0608,7.0125,6.9267,6.9199,6.9196,6.9159,6.8531,6.8159,6.8159,6.8159,6.8456,6.9122,6.9196,7.0171,7.2301,7.3271,7.2818,7.0645,7.118,7.2233,7.3565,7.4419,7.5122,7.5125,7.5382,7.5649,7.5652,7.572,7.6094,7.6804,7.7101,7.7658,7.8885,7.9323,8.0141,8.1296,8.1854,8.2303,8.286,8.3076,8.3184,8.3173,8.3187,8.3187,8.3187,8.3187,8.3187,8.3187,8.3187,8.3187,8.3187,8.3187,8.3184,8.3169,8.3165,8.3165,8.318,8.3069,8.3013,8.3143,8.3035,8.305,8.3121,8.3147,8.3154,8.3147,8.3154,8.3169,8.0925,8.0496,8.0626,8.0644,8.0565,8.0287,7.9699,7.8885,7.7766,7.6729,7.5986,7.5949,7.5912,7.5797,7.5797,7.5797,7.5797,7.5797,7.5797,7.5797,7.5797,7.5797,7.576,7.5422,7.5243,7.5199,7.4377,7.3972,7.4004,7.3567,7.3341,7.3413,7.3344,7.3268,7.3195,7.3195,7.3411,7.3811,7.3564,7.335,7.3305,7.3383,7.335,7.3305,7.2968,7.2456,7.1629,7.1592,7.1211,7.0385,7.0344,7.054,7.0995,7.0701,7.0701,7.1109,7.1143,7.1292,7.1663,7.2109,7.3041,7.4571,7.5057,7.5014,7.4338,7.4193,7.4463,7.5166,7.5608,7.5797,7.5834,7.6246,7.6507,7.6503,7.6875,7.7324,7.7736,7.8179,7.8699,7.9438,8.0327,8.1148,8.1894,8.2377,8.2749,8.3154,8.3187,8.3158,8.3076,8.3061,8.3099,8.3169,8.3187,8.3187,8.3184,8.3187,8.3187,8.3187,8.3187,8.3151,8.3087,8.3058,8.3058,8.3013,8.2885,8.2859,8.3028,8.293,8.2873,8.2884,8.2922,8.2918,8.2922,8.2918,8.2942,8.148,8.0816,8.1037,8.1066,8.0992,8.1088,8.0809,8.0256,8.0216,7.9403,7.8148,7.781,7.7358,7.6949,7.6908,7.6908,7.6908,7.6912,7.6908,7.6908,7.6871,7.6797,7.6604,7.6432,7.6206,7.5997,7.5126,7.4812,7.493,7.4142,7.3724,7.3855,7.3721,7.3649,7.3546,7.354,7.3868,7.4422,7.4051,7.3781,7.3673,7.3633,7.3521,7.3424,7.3336,7.3047,7.2479,7.2445,7.2121,7.1505,7.1465,7.1769,7.2422,7.2494,7.2831,7.3534,7.3642,7.3757,7.3939,7.4497,7.5243,7.602,7.6094,7.6429,7.7179,7.6767,7.6351,7.6358,7.6429,7.6429,7.6503,7.6986,7.7365,7.7398,7.8104,7.8513,7.8618,7.9286,7.9884,8.0144,8.1222,8.2006,8.2333,8.2787,8.3147,8.3329,8.3336,8.3321,8.3363,8.341,8.3467,8.3551,8.3488,8.3395,8.3377,8.3588,8.3655,8.3633,8.3662,8.3706,8.3589,8.3447,8.341,8.3506,8.3374,8.3384,8.3393,8.3345,8.33,8.3405,8.347,8.3372,8.3425,8.3421,8.31,8.2552,8.2466,8.2468,8.2505,8.246,8.248,8.2413,8.234,8.2369,8.1922,8.0854,7.9823,7.961,8.0174,8.013,8.0059,8.0056,8.0212,8.0137,8.0075,8.0128,7.9727,7.8954,7.8196,7.7499,7.6908,7.5961,7.5804,7.6374,7.5582,7.5186,7.5223,7.5212,7.5124,7.5147,7.511,7.518,7.5298,7.5249,7.5226,7.5135,7.4517,7.4114,7.4101,7.3426,7.3057,7.3104,7.3104,7.3133,7.3143,7.3159,7.3203,7.3308,7.3314,7.3649,7.4426,7.45,7.4794,7.5497,7.5642,7.6057,7.6878,7.6952,7.7283,7.8067,7.8104,7.806,7.7993,7.8027,7.7952,7.806,7.8104,7.8141,7.8212,7.8844,7.9364,7.9476,8.0107,8.0884,8.1705,8.1876,8.2259,8.292,8.3124,8.3293,8.3847,8.3909,8.4071,8.45,8.4636,8.4624,8.4656,8.4327,8.3929,8.394,8.4479,8.467,8.4806,8.4861,8.4746,8.4619,8.4677,8.4862,8.4399,8.4529,8.4448,8.4606,8.4722,8.4579,8.4435,8.4553,8.4777,8.483,8.4691,8.4244,8.3618,8.3144,8.3344,8.3131,8.2721,8.2688,8.2688,8.2651,8.2179,8.178,8.1459,8.0926,8.0311,7.9763,8.0288,8.0332,7.9938,8.0432,8.0637,8.0584,8.0541,8.003,7.9227,7.8791,7.8203,7.7476,7.6527,7.6269,7.6471,7.5803,7.5326,7.5214,7.5207,7.5197,7.5106,7.5102,7.532,7.5805,7.5805,7.6055,7.6332,7.546,7.485,7.4742,7.4518,7.4188,7.3881,7.4329,7.4452,7.407,7.4488,7.4794,7.4831,7.4834,7.498,7.5277,7.5314,7.5686,7.6503,7.6577,7.6949,7.7736,7.7804,7.7956,7.8256,7.8294,7.8294,7.8294,7.8327,7.8294,7.8327,7.8294,7.8476,7.8918,7.933,7.9695,8.0178,8.0958,8.1602,8.1845,8.2234,8.282,8.3507,8.3952,8.4293,8.4595,8.4612,8.4753,8.4923,8.4927,8.4887,8.485,8.4862,8.4887,8.4733,8.4838,8.5092,8.5092,8.5096,8.508,8.5025,8.4935,8.4894,8.4972,8.4907,8.487,8.4829,8.4796,8.471,8.4874,8.4833,8.4788,8.4792,8.4825,8.442,8.4346,8.3765,8.3782,8.3432,8.2879,8.2662,8.2551,8.2481,8.1944,8.169,8.1686,8.169,8.076,7.9529,8.0518,8.0648,8.0085,8.0595,8.0729,8.0459,8.0378,7.9875,7.9036,7.8958,7.8552,7.7787,7.7083,7.6737,7.6755,7.6538,7.607,7.5757,7.5706,7.5643,7.5612,7.5751,7.6195,7.675,7.6978,7.7411,7.7776,7.6862,7.5967,7.5441,7.5297,7.5,7.45,7.5086,7.5243,7.4726,7.5396,7.5774,7.5737,7.577,7.5909,7.6169,7.6355,7.6723,7.7398,7.7435,7.7658,7.8216,7.8294,7.8294,7.8294,7.8294,7.8294,7.8324,7.851,7.8621,7.8327,7.851,7.8918,7.9435,7.981,8.0512,8.1326,8.2118,8.2661,8.2745,8.3322,8.3625,8.4105,8.461,8.5004,8.521,8.5271,8.5398,8.5377,8.5442,8.5437,8.5286,8.5788,8.5812,8.5419,8.5587,8.5583,8.5615,8.5697,8.5685,8.543,8.5413,8.5446,8.5883,8.5439,8.5344,8.5711,8.548,8.5237,8.5233,8.5241,8.5286,8.5536,8.5315,8.5311,8.4572,8.4458,8.3736,8.3467,8.33,8.259,8.2264,8.2321,8.2162,8.2117,8.2096,8.2092,8.1268,8.0022,8.1711,8.2113,8.1397,8.1309,8.1009,8.0373,8.017,7.9679,7.9021,7.8853,7.8477,7.7902,7.7665,7.7424,7.7302,7.7992,7.8054,7.7231,7.7202,7.719,7.7289,7.7924,7.8413,7.8446,7.9037,7.9555,7.9518,7.8837,7.7636,7.6303,7.5374,7.5092,7.5065,7.5138,7.524,7.5376,7.5604,7.5691,7.5661,7.5787,7.6236,7.6979,7.7733,7.8141,7.8175,7.8179,7.8249,7.832,7.8395,7.8357,7.8505,7.8515,7.8515,7.8384,7.9136,7.9221,7.8698,7.9214,7.9637,7.9897,8.1055,8.2122,8.298,8.3536,8.436,8.4817,8.4876,8.4832,8.478,8.4788,8.5246,8.5636,8.5798,8.5973,8.6524,8.6751,8.6746,8.6705,8.6729,8.6669,8.6038,8.6183,8.6668,8.664,8.6503,8.6757,8.6869,8.6921,8.6824,8.6792,8.6595,8.655,8.6811,8.6811,8.6656,8.6582,8.6509,8.6546,8.6289,8.6725,8.6652,8.5812,8.5311,8.4495,8.4164,8.4087,8.332,8.2986,8.2875,8.1852,8.1452,8.1452,8.1452,8.1387,8.1399,8.2606,8.1909,7.997,8.0442,8.0766,8.0843,8.0822,8.0587,8.0333,8.0201,7.9506,7.8446,7.826,7.7905,7.744,7.8181,7.8438,7.8291,7.8662,7.8887,7.896,7.918,7.9368,7.9408,7.9665,7.9816,7.9816,7.9518,7.9041,7.845,7.7146,7.6214,7.5735,7.6346,7.6505,7.6088,7.6639,7.701,7.7027,7.7125,7.7324,7.7665,7.8049,7.8294,7.8294,7.8294,7.8498,7.8885,7.9011,7.9184,7.9485,7.9614,7.9677,7.9712,8.0234,8.0489,8.0474,8.0692,8.1352,8.2301,8.2885,8.3506,8.4227,8.4624,8.4808,8.5016,8.5275,8.5511,8.558,8.5868,8.6279,8.653,8.6554,8.6693,8.6872,8.7019,8.7019,8.7019,8.6982,8.6917,8.666,8.6734,8.6986,8.6986,8.6958,8.693,8.6986,8.6986,8.6885,8.6889,8.6982,8.6982,8.6954,8.6954,8.7019,8.7019,8.7019,8.7019,8.6982,8.7019,8.7019,8.6693,8.6114,8.5311,8.5013,8.4866,8.4119,8.3797,8.3683,8.2623,8.2178,8.2145,8.2145,8.2333,8.2627,8.3169,8.2194,8.0153,8.0896,8.14,8.151,8.1522,8.1311,8.1024,8.1004,8.0314,7.9221,7.9254,7.9172,7.8985,7.9466,7.9621,7.9437,7.9955,8.0032,7.9886,8.0028,8.0171,8.0208,8.0432,8.0587,8.0546,8.0326,8.0171,8.0028,7.9054,7.7957,7.6974,7.7554,7.7541,7.6902,7.7363,7.7876,7.8157,7.854,7.8705,7.872,7.8844,7.8912,7.8908,7.8904,7.9114,7.9527,7.9681,7.9871,8.0188,8.0555,8.0662,8.0812,8.1635,8.2262,8.261,8.2919,8.3372,8.4036,8.418,8.4604,8.5347,8.5458,8.5447,8.5659,8.595,8.6172,8.6265,8.666,8.6917,8.7019,8.7019,8.7019,8.7019,8.7019,8.7019,8.7019,8.7019,8.7019,8.6876,8.6945,8.7019,8.7019,8.7019,8.7019,8.7019,8.7019,8.7019,8.7019,8.7019,8.7019,8.7019,8.7019,8.7019,8.7019,8.7019,8.7019,8.7019,8.7019,8.7019,8.7055,8.6949,8.6155,8.5971,8.5898,8.5119,8.4641,8.4678,8.4458,8.4201,8.4132,8.4384,8.394,8.3605,8.3646,8.3035,8.2619,8.3145,8.2998,8.228,8.2207,8.1872,8.1371,8.1407,8.0979,8.0106,8.0649,8.1342,8.1754,8.186,8.1636,8.1118,8.115,8.1016,8.0,8.0901,8.1154,8.1342,8.1893,8.2231,8.2154,8.1562,8.1265,8.1191,8.1044,8.031,7.8813,7.8751,7.8498,7.7723,7.771,7.8089,7.8939,7.9604,8.0121,7.9973,8.0099,8.014,8.0107,8.0048,8.0022,8.0239,8.0251,8.0447,8.0707,8.1242,8.1656,8.1876,8.295,8.4155,8.4836,8.5378,8.5353,8.4331,8.4815,8.5504,8.6017,8.6181,8.6309,8.6716,8.6876,8.6982,8.6982,8.6982,8.7019,8.7019,8.7019,8.7019,8.7019,8.7019,8.7019,8.7019,8.7019,8.7019,8.7019,8.7019,8.7055,8.7055,8.7019,8.7019,8.7019,8.7019,8.7019,8.7019,8.7019,8.7019,8.7019,8.7019,8.7019,8.7019,8.7019,8.7055,8.7019,8.7019,8.7019,8.8666,8.8629,8.8376,8.8266,8.8124,8.6835,8.6248,8.6101,8.5114,8.4609,8.4609,8.4609,8.4756,8.5013,8.5049,8.5196,8.5518,8.5738,8.489,8.3316,8.3063,8.3247,8.3434,8.3467,8.3063,8.2329,8.1929,8.197,8.23,8.2802,8.288,8.2761,8.3206,8.3324,8.2998,8.3357,8.3467,8.3508,8.3728,8.3834,8.3842,8.3618,8.3463,8.3463,8.3467,8.2953,8.1958,8.1379,8.0979,8.0604,8.0211,7.9825,7.9708,7.987,8.0031,8.0079,8.0175,8.0191,8.0232,8.0257,8.054,8.0892,8.1499,8.2068,8.2454,8.3173,8.359,8.3656,8.4583,8.536,8.565,8.6274,8.6455,8.6254,8.6351,8.6439,8.6672,8.6715,8.6798,8.693,8.7019,8.7019,8.7019,8.7019,8.7019,8.7019,8.7019,8.7019,8.7019,8.7019,8.7019,8.7019,8.7019,8.7129,8.7206,8.7537,8.7826,8.7753,8.7606,8.7532,8.7422,8.7386,8.7312,8.7271,8.7234,8.7198,8.7161,8.7202,8.7312,8.7202,8.7239,8.7165,8.7055,8.7092,8.7202,8.94,8.94,8.94,8.94,8.9322,8.8266,8.7895,8.7748,8.6839,8.6362,8.6362,8.6073,8.6192,8.6559,8.6371,8.6513,8.6982,8.7019,8.6211,8.4927,8.4747,8.4898,8.5013,8.4715,8.4568,8.4274,8.3805,8.3695,8.4017,8.4449,8.4596,8.4458,8.4792,8.4829,8.4646,8.4609,8.4609,8.4609,8.4572,8.4609,8.4609,8.4609,8.4609,8.4609,8.4866,8.4751,8.4307,8.4054,8.3398,8.2447,8.1966,8.1628,8.1211,8.1512,8.1707,8.1727,8.1786,8.189,8.1821,8.2018,8.1969,8.2487,8.3029,8.3484,8.3929,8.4681,8.5109,8.5152,8.5755,8.6261,8.6338,8.6656,8.7042,8.7149,8.7031,8.7023,8.7019,8.7019,8.6986,8.7019,8.7019,8.7019,8.7019,8.7019,8.7019,8.7019,8.7019,8.7019,8.7019,8.7019,8.7019,8.7129,8.7386,8.7463,8.7541,8.7981,8.8601,8.8523,8.8372,8.8335,8.8262,8.8299,8.8262,8.829,8.829,8.8322,8.8322,8.8221,8.8225,8.7932,8.7711,8.7826,8.7904,8.761,8.7573,8.9551,8.9546,8.9546,8.9657,8.962,8.9469,8.9363,8.9395,8.9216,8.9028,8.8964,8.8307,8.8128,8.8059,8.7504,8.7316,8.7202,8.7349,8.7316,8.7092,8.6982,8.6693,8.5853,8.527,8.5265,8.5678,8.5719,8.6077,8.6436,8.6541,8.6623,8.5861,8.5788,8.5527,8.5082,8.4788,8.4935,8.4972,8.4898,8.4903,8.4898,8.4866,8.4862,8.4898,8.549,8.5824,8.5824,8.6183,8.5339,8.2994,8.3214,8.3463,8.3536,8.416,8.4254,8.4189,8.4503,8.4308,8.4442,8.4108,8.4202,8.4238,8.443,8.4682,8.4764,8.5397,8.5887,8.5902,8.6477,8.6913,8.6913,8.6986,8.6995,8.7023,8.7027,8.7019,8.7019,8.7019,8.7019,8.7019,8.7019,8.7019,8.7019,8.7019,8.7019,8.7019,8.7019,8.7019,8.7055,8.7096,8.7092,8.7386,8.783,8.8161,8.8307,8.8895,8.9445,8.9482,8.9331,8.9331,8.9069,8.8959,8.8959,8.9024,8.9203,8.9308,8.9235,8.8987,8.8923,8.8812,8.878,8.8858,8.8716,8.8381,8.8161,9.1175,9.1175,9.1179,9.1175,9.1065,9.0546,9.0285,9.0212,8.9657,8.951,8.9363,8.9184,8.9074,8.9037,8.8854,8.8776,8.8666,8.8702,8.8771,8.8776,8.8776,8.7936,8.6908,8.6472,8.6436,8.6697,8.6701,8.6807,8.6982,8.7019,8.6872,8.6693,8.666,8.6619,8.6395,8.6325,8.6362,8.6362,8.6362,8.6362,8.6358,8.6362,8.6362,8.6395,8.6582,8.6697,8.6693,8.6872,8.6436,8.509,8.5017,8.4866,8.4421,8.4568,8.4756,8.4751,8.4682,8.4646,8.4646,8.4678,8.4646,8.4682,8.52,8.5457,8.5494,8.6224,8.6623,8.6734,8.6949,8.7019,8.7019,8.7019,8.7019,8.7019,8.7019,8.7019,8.7019,8.7019,8.7019,8.7019,8.7019,8.7019,8.7019,8.7055,8.7055,8.7092,8.7129,8.7165,8.739,8.7647,8.7867,8.8124,8.8491,8.8854,8.9257,8.9849,9.0289,9.0404,9.0404,9.0436,8.9955,8.9436,8.9363,8.9322,8.9693,8.9836,8.9579,8.9326,8.94,8.9734,8.9588,8.9555,8.9331,8.9069,8.9033,9.1812,9.1812,9.1812,9.1812,9.1734,9.1285,9.1106,9.1028,9.0624,9.0395,9.0363,9.0024,8.9918,8.9881,8.9546,8.94,8.94,8.94,8.9363,8.9363,8.9326,8.8812,8.8152,8.8009,8.7822,8.7504,8.7468,8.7284,8.7055,8.7019,8.7019,8.706,8.7353,8.75,8.75,8.7867,8.8005,8.8005,8.8005,8.8009,8.8005,8.8005,8.8005,8.7895,8.772,8.739,8.7096,8.7019,8.6766,8.6366,8.6261,8.6077,8.5669,8.5632,8.5596,8.5587,8.5596,8.5628,8.5591,8.5591,8.5596,8.5669,8.6114,8.6261,8.6371,8.677,8.7019,8.6982,8.7019,8.7019,8.7019,8.7019,8.7019,8.7019,8.7019,8.7019,8.7019,8.7019,8.7019,8.7019,8.7019,8.7019,8.7019,8.728,8.7468,8.7614,8.7973,8.8051,8.8197,8.8495,8.8752,8.8895,8.9298,8.9739,9.0069,9.0583,9.0881,9.1069,9.1069,9.1175,9.0844,9.0179,9.0289,9.0326,9.0367,9.0367,9.0216,9.0216,9.0546,9.0698,9.0436,9.0212,9.0065,8.9913,8.984,9.1812,9.1812,9.1812,9.1812,9.1812,9.1776,9.1698,9.1771,9.1661,9.1661,9.1514,9.1028,9.073,9.0693,9.0175,8.9734,8.973,8.9918,8.9693,8.962,8.951,8.9216,8.9179,8.8854,8.845,8.7949,8.8023,8.7619,8.7206,8.7092,8.717,8.7394,8.7981,8.8275,8.8418,8.8927,8.9326,8.9216,8.9106,8.9106,8.9102,8.9106,8.9069,8.9,8.8601,8.794,8.7427,8.717,8.7092,8.6982,8.7019,8.6876,8.6908,8.6945,8.6908,8.6835,8.6766,8.6798,8.6913,8.6762,8.6876,8.6835,8.6835,8.7019,8.6945,8.6982,8.7019,8.7019,8.7019,8.7019,8.7019,8.7019,8.7133,8.7206,8.7206,8.717,8.7206,8.7133,8.7019,8.7092,8.717,8.7129,8.739,8.7798,8.8312,8.8344,8.8633,8.8743,8.8964,8.9262,8.9445,8.9592,9.0069,9.0656,9.0955,9.1285,9.1473,9.1624,9.1551,9.1588,9.1588,9.1289,9.1514,9.1551,9.1179,9.1143,9.1331,9.1478,9.1588,9.1514,9.1143,9.1033,9.0918,9.0771,9.0693,9.1812,9.1812,9.1812,9.1812,9.1812,9.1812,9.1812,9.1812,9.1812,9.1812,9.1739,9.1588,9.151,9.1473,9.1253,9.1289,9.1065,9.0987,9.0991,9.0289,8.9661,8.9436,8.9253,8.889,8.8087,8.7573,8.7316,8.7206,8.717,8.7684,8.7945,8.8059,8.8711,8.9143,8.9184,8.94,8.94,8.94,8.9436,8.9546,8.9551,8.9546,8.951,8.9473,8.9257,8.8748,8.8128,8.7945,8.7647,8.7165,8.7055,8.7096,8.7019,8.7019,8.7019,8.7019,8.7019,8.7019,8.7019,8.7019,8.7019,8.7019,8.7019,8.7019,8.7019,8.7019,8.7019,8.7019,8.7019,8.7019,8.7096,8.7055,8.739,8.7761,8.7945,8.8161,8.8487,8.7785,8.7468,8.7761,8.7945,8.8161,8.8743,8.8886,8.9143,8.9147,8.9294,8.94,8.9693,9.0101,9.0216,9.0367,9.0734,9.1212,9.1326,9.1546,9.1661,9.1812,9.1812,9.1812,9.1812,9.1812,9.1812,9.1812,9.1739,9.1812,9.1812,9.1776,9.1698,9.1776,9.1812,9.1588,9.1404,9.1436,9.1363,9.1812,9.1812,9.1812,9.1812,9.1812,9.1812,9.1812,9.1812,9.1812,9.1812,9.1812,9.1812,9.1812,9.1812,9.1771,9.162,9.1175,9.0803,9.0436,8.9959,8.9546,8.94,8.9363,8.9,8.8487,8.8152,8.8152,8.812,8.8266,8.8487,8.8743,8.8821,8.9588,8.9918,9.0065,9.0285,9.0583,9.0588,9.051,9.051,9.051,9.0514,9.0253,9.0028,8.9918,8.9592,8.8858,8.8748,8.856,8.8156,8.7757,8.7358,8.7055,8.7019,8.7019,8.7019,8.7019,8.7019,8.7019,8.7019,8.7019,8.7019,8.7019,8.7019,8.7019,8.7019,8.7019,8.7019,8.7055,8.7129,8.7504,8.7578,8.7986,8.8569,8.8752,8.8964,8.9138,8.8629,8.823,8.867,8.8743,8.8923,8.9285,8.9725,8.995,8.9996,9.0555,9.0661,9.0771,9.1069,9.1106,9.1216,9.1478,9.1698,9.1698,9.1739,9.1734,9.1812,9.1812,9.1812,9.1812,9.1812,9.1812,9.1812,9.1812,9.1812,9.1812,9.1812,9.1812,9.1812,9.1812,9.1812,9.1776,9.1624,9.1624,9.173,9.162,9.1734,9.173,9.1657,9.1739,9.1812,9.1812,9.1812,9.1812,9.1812,9.1812,9.1734,9.1583,9.1551,9.1138,9.0432,8.9877,8.9583,8.951,8.9436,8.94,8.9363,8.929,8.94,8.9542,8.929,8.9257,8.9253,8.951,8.9588,8.973,9.0395,9.073,9.0955,9.1363,9.1588,9.1551,9.1514,9.1546,9.1583,9.1588,9.1289,9.0918,9.0767,9.0358,8.9767,8.9546,8.9477,8.9395,8.8748,8.8087,8.7537,8.7055,8.7019,8.7019,8.7019,8.7019,8.7019,8.7019,8.7019,8.7019,8.7019,8.7019,8.7019,8.7019,8.7129,8.7312,8.7459,8.7822,8.8312,8.8385,8.8785,8.9367,8.9583,8.962,8.9767,8.9767,8.9771,8.9546,8.9588,8.9734,9.0065,9.0505,9.0656,9.0881,9.1441,9.1812,9.1812,9.1812,9.1698,9.1624,9.1734,9.2175,9.2248,9.2359,9.2285,9.2473,9.2326,9.2326,9.2326,9.2579,9.2652,9.1923,9.1812,9.1849,9.1849,9.1812,9.1812,9.1812,9.1812,9.1812,9.1812,9.1812,9.1849,9.14,9.0844,9.151,9.1436,9.0955,9.151,9.1771,9.1812,9.1734,9.1771,9.1734,9.1776,9.1326,9.0959,9.0812,9.0363,8.9877,8.951,8.94,8.94,8.94,8.94,8.951,8.9546,8.9808,9.0069,8.9918,8.962,8.973,9.0028,9.0363,9.0546,9.1138,9.151,9.1546,9.1734,9.1812,9.1812,9.1812,9.1812,9.1812,9.1776,9.1739,9.1478,9.1436,9.1101,9.0583,9.0363,9.0106,8.9477,8.9294,8.9102,8.8739,8.7789,8.7275,8.7202,8.7239,8.7308,8.7271,8.7133,8.7055,8.7019,8.7165,8.7133,8.7133,8.7129,8.7532,8.7977,8.8523,8.8996,8.9179,8.9221,8.9583,9.0138,9.0436,9.062,9.1101,9.1179,9.0922,9.0514,9.0473,9.0546,9.0844,9.1101,9.1216,9.1289,9.1551,9.1812,9.1812,9.1881,9.1918,9.1845,9.1776,9.2322,9.2799,9.2941,9.3088,9.3496,9.3538,9.3533,9.3607,9.3827,9.3607,9.2799,9.2216,9.2143,9.2069,9.1959,9.1955,9.2102,9.1991,9.1849,9.218,9.2473,9.2106,9.1588,9.1257,9.1657,9.1583,9.1322,9.1624,9.1546,9.1175,9.1179,9.0918,9.0661,9.0546,9.0363,9.0179,9.0473,9.0326,9.0028,8.9546,8.94,8.94,8.94,8.9661,8.9955,9.0028,9.0514,9.0918,9.0808,9.0583,9.0661,9.1028,9.1179,9.1285,9.1661,9.1776,9.1812,9.1771,9.1812,9.1812,9.1812,9.1812,9.1812,9.1812,9.1812,9.1812,9.1812,9.1588,9.1363,9.1216,9.1065,9.0661,9.0253,9.0065,8.9698,8.9074,8.823,8.823,8.8189,8.8189,8.8225,8.823,8.8303,8.8262,8.8189,8.823,8.823,8.8335,8.8413,8.878,8.9037,8.9583,8.9955,8.9996,9.04,9.0991,9.1212,9.1395,9.1657,9.1771,9.1514,9.1216,9.1216,9.1289,9.1478,9.1661,9.1739,9.1812,9.1812,9.1849,9.1886,9.2212,9.2469,9.2542,9.262,9.3093,9.357,9.3712,9.3932,9.4377,9.4598,9.4598,9.4524,9.4556,9.4231,9.3575,9.3097,9.3024,9.2615,9.2648,9.2537,9.2469,9.2542,9.2689,9.3019,9.3093,9.2762,9.1698,9.1546,9.1734,9.1698,9.1588,9.173,9.1473,9.0922,9.0881,9.0624,8.9955,8.9959,8.9955,8.9803,9.0065,9.0285,9.0322,8.9734,8.973,8.9771,8.9991,9.0326,9.0656,9.0913,9.1143,9.1551,9.1624,9.1812,9.1588,9.1661,9.1771,9.1734,9.1776,9.1812,9.1812,9.1812,9.1812,9.1812,9.1812,9.1812,9.1812,9.1812,9.1812,9.1812,9.1812,9.1771,9.1698,9.1698,9.1698,9.1478,9.1179,9.084,9.073,9.0248,8.9877,8.984,8.9624,8.9436,8.9326,8.929,8.9143,8.9106,8.9326,8.9363,8.94,8.9326,8.9588,8.9657,8.9918,9.0212,9.0767,9.084,9.1143,9.1514,9.1739,9.1776,9.1771,9.1812,9.1812,9.1702,9.1812,9.1849,9.1923,9.1812,9.1812,9.2033,9.2069,9.2359,9.2469,9.3056,9.3345,9.3496,9.368,9.4084,9.4377,9.452,9.4813,9.5222,9.5369,9.5364,9.518,9.5034,9.4745,9.4671,9.4781,9.463,9.4001,9.334,9.3308,9.3308,9.3345,9.3455,9.3643,9.3753,9.3643,9.1404,9.0808,9.151,9.14,9.0955,9.1551,9.1734,9.1583,9.1514,9.162,9.1101,9.1331,9.0881,9.0436,8.9808,8.9657,8.9803,9.0248,9.0468,9.0551,9.0996,9.1326,9.1583,9.1661,9.1588,9.1812,9.1812,9.1812,9.1812,9.1812,9.1812,9.1812,9.1812,9.1812,9.1812,9.1812,9.1812,9.1812,9.1812,9.1812,9.1812,9.1812,9.1812,9.1812,9.1812,9.1812,9.1812,9.1812,9.1812,9.1776,9.1702,9.1624,9.162,9.1579,9.1514,9.1106,9.0363,8.94,8.9546,8.9657,8.9693,8.973,8.962,8.9436,8.9767,9.0175,9.0473,9.0473,9.0955,9.1326,9.1436,9.1588,9.1698,9.1845,9.1996,9.1996,9.1996,9.2505,9.2395,9.2322,9.2505,9.2248,9.2102,9.1959,9.1812,9.2106,9.2359,9.2721,9.312,9.3749,9.4373,9.4561,9.4671,9.5038,9.5217,9.5327,9.5511,9.5956,9.6025,9.6061,9.5914,9.5804,9.6135,9.6103,9.6135,9.5768,9.4923,9.4373,9.4226,9.4153,9.4153,9.4157,9.4194,9.4304,9.4561,9.1583,9.1294,9.1657,9.1588,9.1326,9.1657,9.1551,9.1175,9.1101,9.0844,9.051,9.0436,9.0436,9.0477,9.0212,9.04,9.0734,9.1101,9.1248,9.1253,9.1624,9.1812,9.1776,9.1812,9.1812,9.1812,9.1812,9.1812,9.1812,9.1812,9.1812,9.1812,9.1812,9.1812,9.1812,9.1812,9.1812,9.1812,9.1812,9.1812,9.1812,9.1812,9.1812,9.1812,9.1812,9.1812,9.1812,9.1812,9.1812,9.1812,9.1812,9.1812,9.1776,9.1771,9.1776,9.1734,9.1216,9.0808,9.0808,9.073,9.0656,9.0734,9.0734,9.0808,9.0849,9.0996,9.1253,9.1289,9.1588,9.1808,9.1849,9.1812,9.2138,9.2322,9.2542,9.2799,9.2946,9.3161,9.3382,9.3276,9.3166,9.3019,9.2909,9.2794,9.2872,9.3134,9.3386,9.368,9.4038,9.451,9.5176,9.5772,9.5809,9.5956,9.6061,9.6167,9.6135,9.6396,9.6396,9.647,9.6543,9.6617,9.6727,9.6727,9.6507,9.6066,9.5589,9.529,9.5034,9.4997,9.4997,9.5075,9.5185,9.5589,9.5658,9.1812,9.1812,9.1812,9.1812,9.1812,9.1812,9.1473,9.0955,9.0955,9.0583,9.0138,9.0143,9.0473,9.0771,9.0955,9.1179,9.1702,9.1812,9.1812,9.1812,9.1812,9.1812,9.1812,9.1812,9.1812,9.1812,9.1812,9.1812,9.1812,9.1812,9.1812,9.1812,9.1812,9.1812,9.1812,9.1812,9.1812,9.1812,9.1812,9.1812,9.1812,9.1812,9.1812,9.1812,9.1812,9.1812,9.1812,9.1812,9.1812,9.1812,9.1812,9.1812,9.1812,9.1812,9.1812,9.1771,9.1588,9.1588,9.1588,9.1588,9.1776,9.1812,9.1812,9.1551,9.1661,9.1812,9.1776,9.1702,9.2102,9.2138,9.2175,9.2322,9.2872,9.3235,9.3418,9.3822,9.4116,9.4121,9.401,9.3827,9.3864,9.4226,9.4079,9.3928,9.3964,9.4199,9.4419,9.4634,9.4997,9.5354,9.5726,9.6323,9.636,9.6396,9.6465,9.6612,9.669,9.6727,9.6727,9.6727,9.6727,9.6727,9.6727,9.6727,9.6727,9.6543,9.614,9.5951,9.58,9.5804,9.5841,9.6098,9.6323,9.6617,9.6575,9.1812,9.1812,9.1812,9.1812,9.1812,9.1812,9.1771,9.1624,9.1661,9.1588,9.14,9.1546,9.1478,9.1624,9.1588,9.1661,9.1812,9.1812,9.1812,9.1812,9.1812,9.1812,9.1812,9.1812,9.1812,9.1812,9.1812,9.1812,9.1812,9.1812,9.1812,9.1812,9.1812,9.1812,9.1812,9.1812,9.1812,9.1812,9.1812,9.1812,9.1812,9.1812,9.1812,9.1812,9.1812,9.1812,9.1812,9.1812,9.1812,9.1812,9.1812,9.1812,9.1812,9.1812,9.1812,9.1812,9.1812,9.1812,9.1812,9.1812,9.1812,9.1812,9.1812,9.1812,9.1812,9.1845,9.1845,9.2033,9.2579,9.2941,9.3194,9.3561,9.3786,9.4111,9.4258,9.4483,9.4708,9.4713,9.4602,9.4377,9.4561,9.5034,9.5212,9.5061,9.4919,9.5075,9.5254,9.5469,9.5883,9.6208,9.6318,9.6617,9.6617,9.6653,9.6653,9.6727,9.6727,9.6727,9.6727,9.6727,9.6727,9.6727,9.6727,9.6727,9.6727,9.6727,9.669,9.6428,9.6318,9.6539,9.6649,9.6575,9.6543,9.6653,9.6727,9.1812,9.1812,9.1812,9.1812,9.1812,9.1812,9.1812,9.1812,9.1812,9.1812,9.1812,9.1812,9.1812,9.1812,9.1812,9.1812,9.1812,9.1812,9.1812,9.1812,9.1812,9.1812,9.1812,9.1812,9.1812,9.1812,9.1812,9.1812,9.1812,9.1886,9.1812,9.1812,9.1918,9.1812,9.1812,9.1812,9.1812,9.1812,9.1812,9.1812,9.1812,9.1812,9.1812,9.1812,9.1812,9.1812,9.1812,9.1812,9.1812,9.1812,9.1812,9.1812,9.1812,9.1812,9.1812,9.1812,9.1845,9.1881,9.1845,9.1845,9.1812,9.1812,9.1812,9.1849,9.1996,9.2285,9.2537,9.2868,9.335,9.3786,9.3896,9.4116,9.4336,9.4809,9.5102,9.5254,9.5369,9.541,9.5447,9.5369,9.5626,9.6025,9.613,9.6199,9.602,9.5956,9.613,9.6309,9.6539,9.6727,9.6727,9.6727,9.6727,9.6727,9.6727,9.6727,9.6727,9.6727,9.6727,9.6727,9.6727,9.6727,9.6727,9.6727,9.6727,9.6727,9.6727,9.6727,9.6727,9.669,9.669,9.669,9.669,9.6727,9.6727,9.1812,9.1812,9.1812,9.1812,9.1812,9.1812,9.1812,9.1812,9.1812,9.1812,9.1812,9.1812,9.1812,9.1812,9.1812,9.1812,9.1812,9.1812,9.1812,9.1812,9.1812,9.1812,9.1812,9.1812,9.1812,9.1812,9.1812,9.1812,9.1812,9.2028,9.2248,9.2317,9.2391,9.2395,9.1812,9.1812,9.1812,9.1812,9.1812,9.1812,9.1812,9.1812,9.1812,9.1812,9.1812,9.1812,9.1812,9.1812,9.1812,9.1812,9.1812,9.1812,9.1812,9.1812,9.1812,9.1881,9.2024,9.2166,9.2134,9.1918,9.1955,9.2248,9.2285,9.2395,9.2615,9.3093,9.3423,9.3529,9.4153,9.4666,9.4662,9.4997,9.5327,9.58,9.5836,9.5983,9.6171,9.6286,9.636,9.6396,9.6575,9.6539,9.6502,9.6497,9.6428,9.6323,9.6392,9.6497,9.6612,9.6727,9.6727,9.6727,9.6727,9.6727,9.6727,9.6727,9.6727,9.6727,9.6727,9.6727,9.6727,9.6727,9.6727,9.6727,9.6727,9.6727,9.6727,9.6727,9.6727,9.6727,9.6727,9.6727,9.6727,9.6727,9.6727,9.1812,9.1812,9.1812,9.1812,9.1812,9.1812,9.1812,9.1812,9.1812,9.1812,9.1812,9.1812,9.1812,9.1812,9.1812,9.1812,9.1812,9.1812,9.1881,9.1955,9.2065,9.1918,9.1955,9.2028,9.2248,9.1881,9.2102,9.2253,9.2069,9.2721,9.3015,9.3235,9.346,9.3313,9.1996,9.1849,9.1849,9.1849,9.1881,9.1918,9.1812,9.1812,9.1812,9.1812,9.1812,9.1812,9.1812,9.1812,9.1812,9.1812,9.1812,9.1845,9.1991,9.1987,9.2024,9.2102,9.2721,9.3015,9.3015,9.2285,9.2432,9.2941,9.3051,9.3276,9.39,9.4235,9.4267,9.4331,9.4992,9.5428,9.5721,9.602,9.6313,9.6465,9.646,9.646,9.6649,9.6727,9.6727,9.6727,9.6727,9.669,9.669,9.669,9.669,9.6653,9.669,9.6727,9.6727,9.6727,9.6727,9.6727,9.6727,9.6727,9.6727,9.6727,9.6727,9.6727,9.6727,9.6727,9.6727,9.6727,9.6727,9.6727,9.6727,9.6727,9.6727,9.6727,9.6727,9.6727,9.6727,9.6727,9.6727,9.6727,9.6727,9.1812,9.1812,9.1812,9.1812,9.1812,9.1812,9.1812,9.1812,9.1812,9.1812,9.1812,9.1812,9.1812,9.1812,9.1845,9.1881,9.1886,9.1845,9.1955,9.2648,9.2643,9.268,9.2758,9.3015,9.3088,9.2941,9.3056,9.3354,9.3538,9.379,9.3859,9.4042,9.4304,9.3978,9.3611,9.3386,9.3276,9.2753,9.2606,9.2427,9.1923,9.1849,9.1886,9.1923,9.1923,9.1959,9.1996,9.2033,9.2033,9.1991,9.2028,9.2212,9.2537,9.2643,9.2905,9.324,9.3827,9.3859,9.3864,9.3611,9.3611,9.3822,9.3932,9.4047,9.4309,9.4827,9.5002,9.5212,9.5763,9.6125,9.6424,9.6465,9.6612,9.6612,9.6612,9.6649,9.6727,9.6727,9.6727,9.6727,9.6727,9.6727,9.6727,9.6727,9.6727,9.6727,9.6727,9.6727,9.6727,9.6727,9.6727,9.6727,9.6727,9.6727,9.6727,9.6727,9.6727,9.6727,9.6727,9.6727,9.6727,9.6727,9.6727,9.6727,9.6727,9.6727,9.6727,9.6727,9.6727,9.6727,9.6727,9.6727,9.6727,9.6727,9.6727,9.1812,9.1812,9.1812,9.1812,9.1812,9.1812,9.1812,9.1812,9.1812,9.1812,9.1812,9.1808,9.2024,9.2175,9.2244,9.2501,9.2615,9.2694,9.2799,9.3492,9.3492,9.3492,9.3712,9.4006,9.3827,9.3753,9.3937,9.4235,9.4162,9.4534,9.4896,9.5144,9.5112,9.5222,9.4965,9.4598,9.3969,9.3565,9.346,9.3308,9.2946,9.2799,9.2762,9.2767,9.2767,9.273,9.2689,9.2652,9.2652,9.2615,9.2726,9.2905,9.334,9.3602,9.379,9.4157,9.4593,9.4777,9.5075,9.5185,9.5185,9.5217,9.4923,9.4887,9.5075,9.5667,9.5841,9.6093,9.646,9.6575,9.6685,9.6727,9.6727,9.6727,9.6727,9.6727,9.6727,9.6727,9.6727,9.6727,9.6727,9.6727,9.6727,9.6727,9.6727,9.6727,9.6727,9.6727,9.6727,9.6727,9.6727,9.6727,9.6727,9.6727,9.6727,9.6727,9.6727,9.6727,9.6727,9.6727,9.6727,9.6727,9.6727,9.6727,9.6727,9.6727,9.6727,9.6727,9.6727,9.6727,9.6727,9.6727,9.6727,9.6727,9.6727,9.1812,9.1812,9.1812,9.1812,9.1812,9.1812,9.1812,9.1812,9.1812,9.1812,9.1877,9.1955,9.2391,9.301,9.3116,9.3455,9.39,9.4052,9.4199,9.4267,9.4341,9.4341,9.4377,9.4529,9.4561,9.4456,9.4602,9.4928,9.4561,9.519,9.5887,9.6323,9.6286,9.6286,9.5919,9.5369,9.4666,9.441,9.4299,9.4116,9.3832,9.3937,9.3864,9.3832,9.3832,9.3868,9.3864,9.39,9.3974,9.4047,9.4121,9.4231,9.4304,9.4341,9.4341,9.4634,9.5249,9.5804,9.6245,9.6318,9.6355,9.6171,9.5832,9.6093,9.6245,9.6396,9.6392,9.6465,9.6649,9.6649,9.6727,9.6727,9.6727,9.6727,9.6727,9.6727,9.6727,9.6727,9.6727,9.6727,9.6727,9.6727,9.6727,9.6727,9.6727,9.6727,9.6727,9.6727,9.6727,9.6727,9.6727,9.6727,9.6727,9.6727,9.6727,9.6727,9.6727,9.6727,9.6727,9.6727,9.6727,9.6727,9.6727,9.6727,9.6727,9.6727,9.6727,9.6727,9.6727,9.6727,9.6727,9.6727,9.6727,9.6727,9.6727,9.1812,9.1812,9.1812,9.1812,9.1812,9.1812,9.1812,9.1812,9.1812,9.2097,9.2716,9.2716,9.3194,9.3937,9.3969,9.4121,9.4267,9.4377,9.474,9.4923,9.518,9.5139,9.5322,9.5547,9.5543,9.5511,9.5584,9.5809,9.5993,9.6328,9.6328,9.6649,9.6727,9.6727,9.6543,9.6208,9.5653,9.5281,9.5139,9.4928,9.4602,9.4524,9.4488,9.4524,9.4529,9.4524,9.4524,9.4492,9.4492,9.4419,9.4345,9.4488,9.5134,9.5171,9.5281,9.5946,9.6277,9.6502,9.669,9.6727,9.6727,9.6727,9.6428,9.6497,9.6649,9.6727,9.6727,9.6727,9.6727,9.6727,9.6727,9.6727,9.6727,9.6727,9.6727,9.6727,9.6727,9.6727,9.6727,9.6727,9.6727,9.6727,9.6727,9.6727,9.6727,9.6727,9.6727,9.6727,9.6727,9.6727,9.6727,9.6727,9.6727,9.6727,9.6727,9.6727,9.6727,9.6727,9.6727,9.6727,9.6727,9.6727,9.6727,9.6727,9.6727,9.6727,9.6727,9.6727,9.6727,9.6727,9.6727,9.6727,9.6727,9.6727,9.6727,9.1812,9.1812,9.1812,9.1812,9.1845,9.217,9.2322,9.2317,9.2317,9.2794,9.3529,9.357,9.4001,9.4703,9.4813,9.496,9.5327,9.5442,9.5626,9.5836,9.5942,9.5978,9.6199,9.6387,9.6313,9.6313,9.6355,9.6507,9.6727,9.6727,9.669,9.6685,9.6727,9.6727,9.6653,9.658,9.6387,9.6125,9.5905,9.5653,9.5401,9.5185,9.5259,9.5185,9.519,9.5185,9.518,9.519,9.519,9.5222,9.5259,9.5442,9.5942,9.5974,9.6052,9.657,9.6612,9.6649,9.6727,9.6727,9.6727,9.6727,9.6727,9.6685,9.6685,9.6727,9.6727,9.6727,9.6727,9.6727,9.6727,9.6727,9.6727,9.6727,9.6727,9.6727,9.6727,9.6727,9.6727,9.6727,9.6727,9.6727,9.6727,9.6727,9.6727,9.6727,9.6727,9.6727,9.6727,9.6727,9.6727,9.6727,9.6727,9.6727,9.6727,9.6727,9.6727,9.6727,9.6727,9.6727,9.6727,9.6727,9.6727,9.6727,9.6727,9.6727,9.6727,9.6727,9.6727,9.6727,9.6727,9.6727,9.6727,9.6727,9.6727,9.1812,9.1812,9.1812,9.1886,9.2028,9.2721,9.3157,9.3272,9.334,9.3707,9.4304,9.4414,9.485,9.5506,9.5611,9.591,9.6171,9.6323,9.6286,9.6649,9.6539,9.6502,9.6539,9.669,9.6612,9.6653,9.6727,9.6727,9.6727,9.6727,9.6727,9.6727,9.6727,9.6727,9.6727,9.6727,9.6612,9.6539,9.6502,9.6392,9.6507,9.6617,9.6727,9.658,9.6543,9.658,9.658,9.6653,9.6727,9.6685,9.6649,9.658,9.6575,9.657,9.6649,9.6685,9.6727,9.6727,9.6727,9.6727,9.6727,9.6727,9.6727,9.6727,9.6727,9.6727,9.6727,9.6727,9.6727,9.6727,9.6727,9.6727,9.6727,9.6727,9.6727,9.6727,9.6727,9.6727,9.6727,9.6727,9.6727,9.6727,9.6727,9.6727,9.6727,9.6727,9.6727,9.6727,9.6727,9.6727,9.6727,9.6727,9.6727,9.6727,9.6727,9.6727,9.6727,9.6727,9.6727,9.6727,9.6727,9.6727,9.6727,9.6727,9.6727,9.6727,9.6727,9.6727,9.6727,9.6727,9.6727,9.6727,9.6727,9.6727,9.6727,9.1812,9.1812,9.1812,9.217,9.279,9.301,9.3818,9.4909,9.4914,9.5024,9.5208,9.5286,9.5616,9.624,9.6313,9.6502,9.6612,9.6727,9.6727,9.669,9.6727,9.6727,9.6727,9.6727,9.6727,9.6727,9.6727,9.6727,9.6722,9.6722,9.6727,9.6722,9.6832,9.6979,9.6942,9.6942,9.6942,9.7016,9.6874,9.6837,9.6832,9.6764,9.6727,9.6727,9.6727,9.6727,9.6727,9.6727,9.6727,9.669,9.669,9.669,9.669,9.6727,9.6727,9.6727,9.6727,9.6727,9.6727,9.6727,9.6727,9.6727,9.6727,9.6727,9.6727,9.6727,9.6727,9.6727,9.6727,9.6727,9.6727,9.6727,9.6727,9.6727,9.6727,9.6727,9.6727,9.6727,9.6727,9.6727,9.6727,9.6727,9.6727,9.6727,9.6727,9.6727,9.6727,9.6727,9.6727,9.6727,9.6727,9.6727,9.6727,9.6727,9.6727,9.6727,9.6727,9.6727,9.6727,9.6727,9.6727,9.6727,9.6727,9.6727,9.6727,9.6727,9.6727,9.6727,9.6727,9.6727,9.6727,9.6727,9.6727,9.6727,9.6727,9.1812,9.1845,9.2244,9.2643,9.3157,9.3854,9.4694,9.5465,9.5873,9.602,9.601,9.6052,9.6313,9.6685,9.6727,9.6727,9.6727,9.6727,9.6727,9.6727,9.6727,9.6727,9.6727,9.6727,9.6727,9.6727,9.6727,9.6727,9.6795,9.7126,9.7273,9.7273,9.7456,9.7672,9.7708,9.7703,9.7667,9.7777,9.7419,9.7236,9.7126,9.6942,9.6764,9.6727,9.6727,9.6727,9.6727,9.6727,9.6727,9.6727,9.6727,9.6727,9.6727,9.6727,9.6727,9.6727,9.6727,9.6727,9.6727,9.6727,9.6727,9.6727,9.6727,9.6727,9.6727,9.6727,9.6727,9.6727,9.6727,9.6727,9.6727,9.6727,9.6727,9.6727,9.6727,9.6727,9.6727,9.6727,9.6727,9.6727,9.6727,9.6727,9.6727,9.6727,9.6727,9.6727,9.6727,9.6727,9.6727,9.6727,9.6727,9.6727,9.6727,9.6727,9.6727,9.6727,9.6727,9.6727,9.6727,9.6727,9.6727,9.6727,9.6727,9.6727,9.6727,9.6727,9.6727,9.6727,9.6727,9.6727,9.6727,9.6727,9.6727,9.6727,9.6727,9.1881,9.206,9.279,9.323,9.3597,9.4841,9.5543,9.5795,9.635,9.6685,9.6612,9.6649,9.6727,9.6727,9.6727,9.6727,9.6727,9.6727,9.6727,9.6727,9.6727,9.6727,9.6727,9.6727,9.6727,9.6727,9.6727,9.6869,9.7016,9.7419,9.7828,9.8158,9.8589,9.9061,9.9098,9.9061,9.8841,9.8658,9.8369,9.8085,9.7718,9.7167,9.6837,9.6727,9.6727,9.6727,9.6727,9.6727,9.6727,9.6727,9.6727,9.6727,9.6727,9.6727,9.6727,9.6727,9.6727,9.6727,9.6727,9.6727,9.6727,9.6727,9.6727,9.6727,9.6727,9.6727,9.6727,9.6727,9.6727,9.6727,9.6727,9.6727,9.6727,9.6727,9.6727,9.6727,9.6727,9.6727,9.6727,9.6727,9.6727,9.6727,9.6727,9.6727,9.6727,9.6727,9.6727,9.6727,9.6727,9.6727,9.6727,9.6727,9.6727,9.6727,9.6727,9.6727,9.6727,9.6727,9.6727,9.6727,9.6727,9.6727,9.6727,9.6727,9.6727,9.6727,9.6727,9.6727,9.6727,9.6727,9.6727,9.6727,9.6727,9.6727,9.6727,9.2207,9.2863,9.3047,9.3813,9.4951,9.5386,9.5868,9.6424,9.6617,9.6727,9.6727,9.6727,9.6727,9.6727,9.6727,9.6727,9.6727,9.6727,9.6727,9.6727,9.6727,9.6727,9.6874,9.7126,9.68,9.6869,9.7052,9.7126,9.7419,9.7791,9.8232,9.8736,9.8846,9.9098,9.9098,9.9098,9.9061,9.8951,9.8878,9.8589,9.8259,9.7635,9.6874,9.6727,9.6727,9.6727,9.6727,9.6727,9.6727,9.6727,9.6727,9.6727,9.6727,9.6727,9.6727,9.6727,9.6727,9.6727,9.6727,9.6727,9.6727,9.6727,9.6727,9.6727,9.6727,9.6727,9.6727,9.6727,9.6727,9.6727,9.6727,9.6727,9.6727,9.6727,9.6727,9.6727,9.6727,9.6727,9.6727,9.6727,9.6727,9.6727,9.6727,9.6727,9.6727,9.6727,9.6727,9.6727,9.6727,9.6727,9.6727,9.6727,9.6727,9.6727,9.6727,9.6727,9.6727,9.6727,9.6727,9.6727,9.6727,9.6727,9.6727,9.6727,9.6727,9.6727,9.6727,9.6727,9.6727,9.6727,9.6727,9.6727,9.6727,9.6727,9.6727]},{"header":{"parameterUnit":"m.s-1","parameterCategory":1,"la1":31.0,"la2":29.5877,"lo1":-88.7671,"lo2":-86.6584,"dy":0.0162,"dx":0.0185,"nx":115,"ny":88,"refTime":"2024-02-15T06:00:00:Z","depth":0,"parameterNumber":3,"parameterNumberName":"V-component_of_WINDS"},"data":[0.0,0.0,0.0,0.0,0.0,0.0,0.0,0.0,0.0,0.0,0.0,0.0,0.0,0.0,0.0,0.0,0.0,0.0,0.0,0.0,0.0,0.0,0.0,0.0,0.0,0.0,0.0,0.0,0.0,0.0,0.0,0.0,0.0,0.0,0.0,0.0,0.0,0.0,0.0,0.0,0.0,0.0,0.0,0.0,0.0,0.0,0.0,0.0,0.0,0.0,0.0,0.0,0.0,0.0,0.0,0.0,0.0,0.0,0.0,0.0,0.0,0.0,0.0,0.0,0.0,0.0,0.0,0.0,0.0,0.0,0.0,0.0,0.0,0.0,0.0,0.0,0.0,0.0,0.0,0.0,0.0,0.0,0.0,0.0,0.0,0.0,0.0,0.0,0.0,0.0,0.0,0.0,0.0,0.0,0.0,0.0,0.0,0.0,0.0,0.0,0.0,0.0,0.0,0.0,0.0,0.0,0.0,0.0,0.0,0.0,0.0,0.0,0.0,0.0,0.0,0.0,0.0,0.0,0.0,0.0,0.0,0.0,0.0,0.0,0.0,0.0,0.0,0.0,0.0,0.0,0.0,0.0,0.0,0.0,0.0,0.0,0.0,0.0,0.0,0.0,0.0,0.0,0.0,0.0,0.0,0.0,0.0,0.0,0.0,0.0,0.0,0.0,0.0,0.0,0.0,0.0,0.0,0.0,0.0,0.0,0.0,0.0,0.0,0.0,0.0,0.0,0.0,0.0,0.0,0.0,0.0,0.0,0.0,0.0,0.0,0.0,0.0,0.0,0.0,0.0,0.0,0.0,0.0,0.0,0.0,0.0,0.0,0.0,0.0,0.0,0.0,0.0,0.0,0.0,0.0,0.0,0.0,0.0,0.0,0.0,0.0,0.0,0.0,0.0,0.0,0.0,0.0,0.0,0.0,0.0,0.0,0.0,0.0,0.0,0.0,0.0,0.0,0.0,0.0,0.0,0.0,0.0,0.0,0.0,0.0,0.0,0.0,0.0,0.0,0.0,0.0,0.0,0.0,0.0,0.0,0.0,0.0,0.0,0.0,0.0,0.0,0.0,0.0,0.0,0.0,0.0,0.0,0.0,0.0,0.0,0.0,0.0,0.0,0.0,0.0,0.0,0.0,0.0,0.0,0.0,0.0,0.0,0.0,0.0,0.0,0.0,0.0,0.0,0.0,0.0,0.0,0.0,0.0,0.0,0.0,0.0,0.0,0.0,0.0,0.0,0.0,0.0,0.0,0.0,0.0,0.0,0.0,0.0,0.0,0.0,0.0,0.0,0.0,0.0,0.0,0.0,0.0,0.0,0.0,0.0,0.0,0.0,0.0,0.0,0.0,0.0,0.0,0.0,0.0,0.0,0.0,0.0,0.0,0.0,0.0,0.0,0.0,0.0,0.0,0.0,0.0,0.0,0.0,0.0,0.0,0.0,0.0,0.0,0.0,0.0,0.0,0.0,0.0,0.0,0.0,0.0,0.0,0.0,0.0,0.0,0.0,0.0,0.0,0.0,0.0,0.0,0.0,0.0,0.0,0.0,0.0,0.0,0.0,0.0,0.0,0.0,0.0,0.0,0.0,0.0,0.0,0.0,0.0,0.0,0.0,0.0,0.0,0.0,0.0,0.0,0.0,0.0,0.0,0.0,0.0,0.0,0.0,0.0,0.0,0.0,0.0,0.0,0.0,0.0,0.0,0.0,0.0,0.0,0.0,0.0,0.0,0.0,0.0,0.0,0.0,0.0,0.0,0.0,0.0,0.0,0.0,0.0,0.0,0.0,0.0,0.0,0.0,0.0,0.0,0.0,0.0,0.0,0.0,0.0,0.0,0.0,0.0,0.0,0.0,0.0,0.0,0.0,0.0,0.0,0.0,0.0,0.0,0.0,0.0,0.0,0.0,0.0,0.0,0.0,0.0,0.0,0.0,0.0,0.0,0.0,0.0,0.0,0.0,0.0,0.0,0.0,0.0,0.0,0.0,0.0,0.0,0.0,0.0,0.0,0.0,0.0,0.0,0.0,0.0,0.0,0.0,0.0,0.0,0.0,0.0,0.0,0.0,0.0,0.0,0.0,0.0,0.0,0.0,0.0,0.0,0.0,0.0,0.0,0.0,0.0,0.0,0.0,0.0,0.0,0.0,0.0,0.0,0.0,0.0,0.0,0.0,0.0,0.0,0.0,0.0,0.0,0.0,0.0,0.0,0.0,0.0,0.0,0.0,0.0,0.0,0.0,0.0,0.0,0.0,0.0,0.0,0.0,0.0,0.0,0.0,0.0,0.0,0.0,0.0,0.0,0.0,0.0,0.0,0.0,0.0,0.0,0.0,0.0,0.0,0.0,0.0,0.0,0.0,0.0,0.0,0.0,0.0,0.0,0.0,0.0,0.0,0.0,0.0,0.0,0.0,0.0,0.0,0.0,0.0,0.0,0.0,0.0,0.0,0.0,0.0,0.0,0.0,0.0,0.0,0.0,0.0,0.0,0.0,0.0,0.0,0.0,0.0,0.0,0.0,0.0,0.0,0.0,0.0,0.0,0.0,0.0,0.0,0.0,0.0,0.0,0.0,0.0,0.0,0.0,0.0,0.0,0.0,0.0,0.0,0.0,0.0,0.0,0.0,0.0,0.0,0.0,0.0,0.0,0.0,0.0,0.0,0.0,0.0,0.0,0.0,0.0,0.0,0.0,0.0,0.0,0.0,0.0,0.0,0.0,0.0,0.0,0.0,0.0,0.0,0.0,0.0,0.0,0.0,0.0,0.0,0.0,0.0,0.0,0.0,0.0,0.0,0.0,0.0,0.0,0.0,0.0,0.0,0.0,0.0,0.0,0.0,0.0,0.0,0.0,0.0,0.0,0.0,0.0,0.0,0.0,0.0,0.0,0.0,0.0,0.0,0.0,0.0,0.0,0.0,0.0,0.0,0.0,0.0,0.0,0.0,0.0,0.0,0.0,0.0,0.0,0.0,0.0,0.0,0.0,0.0,0.0,0.0,0.0,0.0,0.0,0.0,0.0,0.0,0.0,0.0,0.0,0.0,0.0,0.0,0.0,0.0,0.0,0.0,0.0,0.0,0.0,0.0,0.0,0.0,0.0,0.0,0.0,0.0,0.0,0.0,0.0,0.0,0.0,0.0,0.0,0.0,0.0,0.0,0.0,0.0,0.0,0.0,0.0,0.0,0.0,0.0,0.0,0.0,0.0,0.0,0.0,0.0,0.0,0.0,0.0,0.0,0.0,0.0,0.0,0.0,0.0,0.0,0.0,0.0,0.0,0.0,0.0,0.0,0.0,0.0,0.0,0.0,0.0,0.0,0.0,0.0,0.0,0.0,0.0,0.0,0.0,0.0,0.0,0.0,0.0,0.0,0.0,0.0,0.0,0.0,0.0,0.0,0.0,0.0,0.0,0.0,0.0,0.0,0.0,0.0,0.0,0.0,0.0,0.0,0.0,0.0,0.0,0.0,0.0,0.0,0.0,0.0,0.0,0.0,0.0,0.0,0.0,0.0,0.0,0.0,0.0,0.0,0.0,0.0,0.0,0.0,0.0,0.0,0.0,0.0,0.0,0.0,0.0,0.0,0.0,0.0,0.0,0.0,0.0,0.0,0.0,0.0,0.0,0.0,0.0,0.0,0.0,0.0,0.0,0.0,0.0,0.0,0.0,0.0,0.0,0.0,0.0,0.0,0.0,0.0,0.0,0.0,0.0,0.0,0.0,0.0,0.0,0.0,0.0,0.0,0.0,0.0,0.0,0.0,0.0,0.0,0.0,0.0,0.0,0.0,0.0,0.0,0.0,0.0,0.0,0.0,0.0,0.0,0.0,0.0,0.0,0.0,0.0,0.0,0.0,0.0,0.0,0.0,0.0,0.0,0.0,0.0,0.0,0.0,0.0,0.0,0.0,0.0,0.0,0.0,0.0,0.0,0.0,0.0,0.0,0.0,0.0,0.0,0.0,0.0,0.0,0.0,0.0,0.0,0.0,0.0,0.0,0.0,0.0,0.0,0.0,0.0,0.0,0.0,0.0,0.0,0.0,0.0,0.0,0.0,0.0,0.0,0.0,0.0,0.0,0.0,0.0,0.0,0.0,0.0,0.0,0.0,0.0,0.0,0.0,0.0,0.0,0.0,0.0,0.0,0.0,0.0,0.0,0.0,0.0,0.0,0.0,0.0,0.0,0.0,0.0,0.0,0.0,0.0,0.0,0.0,0.0,0.0,0.0,0.0,0.0,0.0,0.0,0.0,0.0,0.0,0.0,0.0,0.0,0.0,0.0,0.6785,0.0,0.0,0.0,0.0,0.0,0.0,0.0,0.0,0.0,0.0,0.0,0.0,0.0,0.0,0.0,0.0,0.0,0.0,0.0,0.0,0.0,0.0,0.0,0.0,0.0,0.0,0.0,0.0,0.0,0.0,0.0,0.0,0.0,0.0,0.0,0.0,0.0,0.0,0.0,0.0,0.0,0.0,0.0,0.0,0.0,0.0,0.0,0.0,0.0,0.0,0.0,0.0,0.0,0.0,0.0,0.0,0.0,0.0,0.0,0.0,0.0,0.0,0.0,0.0,0.0,0.0,0.0,0.0,0.0,0.0,0.0,0.0,0.0,0.0,0.0,0.0,0.0,0.0,0.0,0.0,0.0,0.0,0.0,0.0,0.0,0.0,0.0,0.0,0.0,0.0,0.0,0.0,0.0,0.0,0.0,0.0,0.0,0.0,0.0,0.0,0.0,0.0,0.0,0.0,0.0,0.0,0.0,0.0,0.0,0.0,0.7417,0.7431,0.7484,0.7495,0.7413,0.0,0.0,0.0,0.0,0.0,0.0,0.0,0.0,0.0,0.0,0.0,0.0,0.0,0.0,0.0,0.0,0.0,0.0,0.0,0.0,0.0,0.0,0.0,0.0,0.0,0.0,0.0,0.0,0.0,0.0,0.0,0.0,0.0,0.0,0.0,0.0,0.0,0.0,0.0,0.0,0.0,0.0,0.0,0.0,0.0,0.0,0.0,0.0,0.0,0.0,0.0,0.0,0.0,0.0,0.0,0.0,0.0,0.0,0.0,0.0,0.0,0.0,0.0,0.0,0.0,0.0,0.0,0.0,0.0,0.0,0.0,0.0,0.0,0.0,0.0,0.0,0.0,0.0,0.0,0.0,0.0,0.0,0.0,0.0,0.0,0.0,0.0,0.0,0.0,0.0,0.0,0.0,0.0,0.0,0.0,0.0,0.0,0.0,0.0,0.0,0.0,0.0,0.0,0.0,0.0,0.0,0.0,0.0,0.0,0.0,0.0,0.0,0.7771,0.7871,0.7798,0.0,0.0,0.0,0.0,0.0,0.0,0.0,0.0,0.0,0.0,0.0,0.0,0.0,0.0,0.0,0.0,0.0,0.0,0.0,0.0,0.0,0.0,0.0,0.0,0.0,0.0,0.0,0.0,0.0,0.0,0.0,0.0,0.0,0.0,0.0,0.0,0.0,0.0,0.0,0.0,0.0,0.0,0.0,0.0,0.0,0.0,0.0,0.0,0.0,0.0,0.0,0.0,0.0,0.0,0.0,0.0,0.0,0.0,0.0,0.0,0.0,0.0,0.0,0.0,0.0,0.0,0.0,0.0,0.0,0.0,0.0,0.0,0.0,0.0,0.0,0.0,0.0,0.0,0.0,0.0,0.0,0.0,0.0,0.0,0.0,0.0,0.0,0.0,0.0,0.0,0.0,0.0,0.0,0.0,0.0,0.0,0.0,0.0,0.0,0.0,0.0,0.0,0.0,0.0,0.0,0.0,0.0,0.0,0.0,0.0,0.7737,0.7265,0.7507,0.0,0.7486,0.0,0.0,0.0,0.0,0.0,0.0,0.0,0.0,0.0,0.0,0.0,0.0,0.0,0.0,0.0,0.0,0.0,0.0,0.0,0.0,0.0,0.0,0.0,0.0,0.0,0.0,0.0,0.0,0.0,0.0,0.0,0.0,0.0,0.0,0.0,0.0,0.0,0.0,0.0,0.0,0.0,0.0,0.0,0.0,0.0,0.0,0.0,0.0,0.0,0.0,0.0,0.0,0.0,0.0,0.0,0.0,0.0,0.0,0.0,0.0,0.0,0.0,0.0,0.0,0.0,0.0,0.0,0.0,0.0,0.0,0.0,0.0,0.0,0.0,0.0,0.0,0.0,0.0,0.0,0.0,0.0,0.0,0.0,0.0,0.0,0.0,0.0,0.0,0.0,0.0,0.0,0.0,0.0,0.0,0.0,0.0,0.0,0.0,0.0,0.0,0.0,0.0,0.0,0.0,0.0,0.0,0.0,0.0,0.0,0.0,0.766,0.7444,0.781,0.7989,0.0,0.0,0.0,0.0,0.0,0.0,0.0,0.0,0.0,0.0,0.0,0.0,0.0,0.0,0.0,0.0,0.0,0.0,0.0,0.0,0.0,0.0,0.0,0.0,0.0,0.0,0.0,0.0,0.0,0.0,0.0,0.0,0.0,0.0,0.0,0.0,0.0,0.0,0.0,0.0,0.0,0.0,0.0,0.0,0.0,0.0,0.0,0.0,0.0,0.0,0.0,0.0,0.0,0.0,0.0,0.0,0.0,0.0,0.0,0.0,0.0,0.0,0.0,0.0,0.0,0.0,0.0,0.0,0.0,0.0,0.0,0.0,0.0,0.0,0.0,0.0,0.0,0.0,0.0,0.0,0.0,0.0,0.0,0.0,0.0,0.0,0.0,0.0,0.0,0.0,0.0,0.0,0.0,0.0,0.0,0.0,0.0,0.0,0.0,0.0,0.0,0.0,0.0,0.0,0.0,0.0,0.0,0.0,0.0,0.0,0.7569,0.7701,0.7743,0.8134,0.8317,0.8206,0.0,0.0,0.0,0.0,0.0,0.0,0.0,0.0,0.0,0.0,0.0,0.0,0.0,0.0,0.0,0.0,0.0,0.0,0.0,0.0,0.0,0.0,0.0,0.0,0.0,0.0,0.0,0.0,0.0,0.0,0.0,0.0,0.0,0.0,0.0,0.0,0.0,0.0,0.0,0.0,0.0,0.0,0.0,0.0,0.0,0.0,0.0,0.0,0.0,0.0,0.0,0.0,0.0,0.0,0.0,0.0,0.0,0.0,0.0,0.0,0.0,0.0,0.0,0.0,0.0,0.0,0.0,0.0,0.0,0.0,0.0,0.0,0.0,0.0,0.0,0.0,0.0,0.0,0.0,0.0,0.0,0.0,0.0,0.0,0.0,0.0,0.0,0.0,0.0,0.0,0.0,0.0,0.0,0.0,0.0,0.0,0.0,0.0,0.0,0.0,0.0,0.0,0.0,0.0,0.0,0.0,0.0,0.0,0.7596,0.7847,0.7979,0.7972,0.8326,0.8335,0.0,0.0,0.0,0.0,0.0,0.0,0.0,0.0,0.0,0.0,0.0,0.0,0.0,0.0,0.0,0.0,0.0,0.0,0.0,0.0,0.0,0.0,0.0,0.0,0.0,0.0,0.0,0.0,0.0,0.0,0.0,0.0,0.0,0.0,0.0,0.0,0.0,0.0,0.0,0.0,0.0,0.0,0.0,0.0,0.0,0.0,0.0,0.0,0.0,0.0,0.0,0.0,0.0,0.0,0.0,0.0,0.0,0.0,0.0,0.0,0.0,0.0,0.0,0.0,0.0,0.0,0.0,0.0,0.0,0.0,0.0,0.0,0.0,0.0,0.0,0.0,0.0,0.0,0.0,0.0,0.0,0.0,0.0,0.0,0.0,0.0,0.0,0.0,0.0,0.0,0.0,0.0,0.0,0.0,0.0,0.0,0.0,0.0,0.0,0.0,0.0,0.0,0.0,0.0,0.0,0.0,0.0,0.0,0.0,0.7854,0.7944,0.7999,0.8,0.8121,0.8115,0.0,0.0,0.0,0.0,0.0,0.0,0.0,0.0,0.0,0.0,0.0,0.0,0.0,0.0,0.0,0.0,0.0,0.0,0.0,0.0,0.0,0.0,0.0,0.0,0.0,0.0,0.0,0.0,0.0,0.0,0.0,0.0,0.0,0.0,0.0,0.0,0.0,0.0,0.0,0.0,0.0,0.0,0.0,0.0,0.0,0.0,0.0,0.0,0.0,0.0,0.0,0.0,0.0,0.0,0.0,0.0,0.0,0.0,0.0,0.0,0.0,0.0,0.0,0.0,0.0,0.0,0.0,0.0,0.0,0.0,0.0,0.0,0.0,0.0,0.0,0.0,0.0,0.0,0.0,0.0,0.0,0.0,0.0,0.0,0.0,0.0,0.0,0.0,0.0,0.0,0.0,0.0,0.0,0.0,0.0,0.0,0.0,0.0,0.0,0.0,0.0,0.0,0.0,0.0,0.0,0.0,0.0,0.0,0.0,0.8102,0.0,0.8277,0.8228,0.8334,0.8334,0.0,0.0,0.0,0.0,0.0,0.0,0.0,0.0,0.0,0.0,0.0,0.0,0.0,0.0,0.0,0.0,0.0,0.0,0.0,0.0,0.0,0.0,0.0,0.0,0.0,0.0,0.0,0.0,0.0,0.0,0.0,0.0,0.0,0.0,0.0,0.0,0.0,0.0,0.0,0.0,0.0,0.0,0.0,0.0,0.0,0.0,0.0,0.0,0.0,0.0,0.0,0.0,0.0,0.0,0.0,0.0,0.0,0.0,0.0,0.0,0.0,0.0,0.0,0.0,0.0,0.0,0.0,0.0,0.0,0.0,0.0,0.0,0.0,0.0,0.0,0.0,0.0,0.0,0.0,0.0,0.0,0.0,0.0,0.0,0.0,0.0,0.0,0.0,0.0,0.0,0.0,0.0,0.0,0.0,0.0,0.0,0.0,0.0,0.0,0.0,0.0,0.0,0.0,0.0,0.0,0.0,0.0,0.0,0.8122,0.8313,0.8695,0.8832,0.871,0.9003,0.9029,0.0,0.0,0.0,0.0,0.0,0.0,0.0,0.0,0.0,0.0,0.0,0.0,0.0,0.0,0.0,0.0,0.0,0.0,0.0,0.0,0.0,0.0,0.0,0.0,0.0,0.0,0.0,0.0,0.0,0.0,0.0,0.0,0.0,0.0,0.0,0.0,0.0,0.0,0.0,0.0,0.0,0.0,0.0,0.0,0.0,0.0,0.0,0.0,0.0,0.0,0.0,0.0,0.0,0.0,0.0,0.0,0.0,0.0,0.0,0.0,0.0,0.0,0.0,0.0,0.0,0.0,0.0,0.0,0.0,0.0,0.0,0.0,0.0,0.0,0.0,0.0,0.0,0.0,0.0,0.0,0.0,0.0,0.0,0.0,0.0,0.0,0.0,0.0,0.0,0.0,0.0,0.0,0.0,0.0,0.0,0.0,0.0,0.0,0.0,0.0,0.0,0.0,0.0,0.0,0.0,0.0,0.0,0.0,0.0,0.8931,0.9126,0.9263,0.9302,0.9114,0.9001,0.0,0.0,0.0,0.0,0.0,0.0,0.0,0.0,0.0,0.0,0.0,0.0,0.0,0.0,0.0,0.0,0.0,0.0,0.0,0.0,0.0,0.0,0.0,0.0,0.0,0.0,0.0,0.0,0.0,0.0,0.0,0.0,0.0,0.0,0.0,0.0,0.0,0.0,0.0,0.0,0.0,0.0,0.0,0.0,0.0,0.0,0.0,0.0,0.0,0.0,0.0,0.0,0.0,0.0,0.0,0.0,0.0,0.0,0.0,0.0,0.0,0.0,0.0,0.0,0.0,0.0,0.0,0.0,0.0,0.0,0.0,0.0,0.0,0.0,0.0,0.0,0.0,0.0,0.0,0.0,0.0,0.0,0.0,0.0,0.0,0.0,0.0,0.0,0.0,0.0,0.0,0.0,0.0,0.0,0.0,0.0,0.0,0.0,0.0,0.0,0.0,0.0,0.0,0.0,0.0,0.0,0.0,0.0,0.0,0.9534,0.9593,0.9646,0.9671,0.9393,0.9218,0.92,0.0,0.0,0.0,0.0,0.0,0.0,0.0,0.0,0.0,0.0,0.0,0.0,0.0,0.0,0.0,0.0,0.0,0.0,0.0,0.0,0.0,0.0,0.0,0.0,0.0,0.0,0.0,0.0,0.0,0.0,0.0,0.0,0.0,0.0,0.0,0.0,0.0,0.0,0.0,0.0,0.0,0.0,0.0,0.0,0.0,0.0,0.0,0.0,0.0,0.0,0.0,0.0,0.0,0.0,0.0,0.0,0.0,0.0,0.0,0.0,0.0,0.0,0.0,0.0,0.0,0.0,0.0,0.0,0.0,0.0,0.0,0.0,0.0,0.0,0.0,0.0,0.0,0.0,0.0,0.0,0.0,0.0,0.0,0.0,0.0,0.0,0.0,0.0,0.0,0.0,0.0,0.0,0.0,0.0,0.0,0.0,0.0,0.0,0.0,0.0,0.0,0.0,0.0,0.0,0.0,0.0,0.0,0.0,1.0112,1.0085,0.9993,0.9868,0.9805,0.9625,0.0,0.0,0.0,0.0,0.0,0.0,0.0,0.0,0.0,0.0,0.0,0.0,0.0,0.0,0.0,0.0,0.0,0.0,0.0,0.0,0.0,0.0,0.0,0.0,0.0,0.0,0.0,0.0,0.0,0.0,0.0,0.0,0.0,0.0,0.0,0.0,0.0,0.0,0.0,0.0,0.0,0.0,0.0,0.0,0.0,0.0,0.0,0.0,0.0,0.0,0.0,0.0,0.0,0.0,0.0,0.0,0.0,0.0,0.0,0.0,0.0,0.0,0.0,0.0,0.0,0.0,0.0,0.0,0.0,0.0,0.0,0.0,0.0,0.0,0.0,0.0,0.0,0.0,0.0,0.0,0.0,0.0,0.0,0.0,0.0,0.0,0.0,0.0,0.0,0.0,0.0,0.0,0.0,0.0,0.0,0.0,0.0,0.0,0.0,0.0,0.0,0.0,0.0,0.0,0.0,0.0,0.0,0.0,0.0,1.0373,1.0562,1.061,1.0456,1.0029,0.98,0.0,0.0,0.0,0.0,0.0,0.0,0.0,0.0,0.0,0.0,0.0,0.0,0.0,0.0,0.0,0.0,0.0,0.0,0.0,0.0,0.0,0.0,0.0,0.0,0.0,0.0,0.0,0.0,0.0,0.0,0.0,0.0,0.0,0.0,0.0,0.0,0.0,0.0,0.0,0.0,0.0,0.0,0.0,0.0,0.0,0.0,0.0,0.0,0.0,0.0,0.0,0.0,0.0,0.0,0.0,0.0,0.0,0.0,0.0,0.0,0.0,0.0,0.0,0.0,0.0,0.0,0.0,0.0,0.0,0.0,0.0,0.0,0.0,0.0,0.0,0.0,0.0,0.0,0.0,0.0,0.0,0.0,0.0,0.0,0.0,0.0,0.0,0.0,0.0,0.0,0.0,0.0,0.0,0.0,0.0,0.0,0.0,0.0,0.0,0.0,0.0,0.0,0.0,0.0,0.0,0.0,0.0,0.0,1.0309,1.066,1.0906,1.1021,1.1002,1.0517,1.0142,0.0,0.0,0.0,0.0,0.0,0.0,0.0,0.0,0.0,0.0,0.0,0.0,0.0,0.0,0.0,0.0,0.0,0.0,0.0,0.0,0.0,0.0,0.0,0.0,0.0,0.0,0.0,0.0,0.0,0.0,0.0,0.0,0.0,0.0,0.0,0.0,0.0,0.0,0.0,0.0,0.0,0.0,0.0,0.0,0.0,0.0,0.0,0.0,0.0,0.0,0.0,0.0,0.0,0.0,0.0,0.0,0.0,0.0,0.0,0.0,0.0,0.0,0.0,0.0,0.0,0.0,0.0,0.0,0.0,0.0,0.0,0.0,0.0,0.0,0.0,0.0,0.0,0.0,0.0,0.0,0.0,0.0,0.0,0.0,0.0,0.0,0.0,0.0,0.0,0.0,0.0,0.0,0.0,0.0,0.0,0.0,0.0,0.0,0.0,0.0,0.0,0.0,0.0,0.0,0.0,0.0,0.0,0.0,1.0518,1.0919,1.114,1.1291,1.1404,1.108,1.0561,0.0,0.0,0.0,0.0,0.0,0.0,0.0,0.0,0.0,0.0,0.0,0.0,0.0,0.0,0.0,0.0,0.0,0.0,0.0,0.0,0.0,0.0,0.0,0.0,0.0,0.0,0.0,0.0,0.0,0.0,0.0,0.0,0.0,0.0,0.0,0.0,0.0,0.0,0.0,0.0,0.0,0.0,0.0,0.0,0.0,0.0,0.0,0.0,0.0,0.0,0.0,0.0,0.0,0.0,0.0,0.0,0.0,0.0,0.0,0.0,0.0,0.0,0.0,0.0,0.0,0.0,0.0,0.0,0.0,0.0,0.0,0.0,0.0,0.0,0.0,0.0,0.0,0.0,0.0,0.0,0.0,0.0,0.0,0.0,0.0,0.0,0.0,0.0,0.0,0.0,0.0,0.0,0.0,0.0,0.0,0.0,0.0,0.0,0.0,0.0,0.0,0.0,0.0,0.0,0.0,0.0,0.0,0.0,1.0785,1.1119,1.1391,1.152,1.1556,1.1024,1.0611,0.0,0.0,0.0,0.0,0.0,0.0,0.0,0.0,0.0,0.0,0.0,0.0,0.0,0.0,0.0,0.0,0.0,0.0,0.0,0.0,0.0,0.0,0.0,0.0,0.0,0.0,0.0,0.0,0.0,0.0,0.0,0.0,0.0,0.0,0.0,0.0,0.0,0.0,0.0,0.0,0.0,0.0,0.0,0.0,0.0,0.0,0.0,0.0,0.7664,0.0,0.0,0.0,0.0,0.0,0.0,0.0,0.0,0.0,0.0,0.0,0.0,0.0,0.0,0.0,0.0,0.0,0.0,0.0,0.0,0.0,0.0,0.0,0.0,0.0,0.0,0.0,0.0,0.0,0.0,0.0,0.0,0.0,0.0,0.0,0.0,0.0,0.0,0.0,0.0,0.0,0.0,0.0,0.0,0.0,0.0,0.0,0.0,0.0,0.0,0.0,0.0,0.0,0.0,0.0,0.0,0.0,0.0,0.0,1.0985,1.1377,1.152,1.1629,1.1658,1.1206,1.08,0.0,0.0,0.0,0.0,0.0,0.0,0.0,0.0,0.0,0.0,0.0,0.0,0.0,0.0,0.0,0.0,0.0,0.0,0.0,0.0,0.0,0.0,0.0,0.0,0.0,0.0,0.0,0.0,0.0,0.0,0.0,0.0,0.0,0.0,0.0,0.0,0.0,0.0,0.0,0.0,0.0,0.0,0.0,0.0,0.0,0.0,0.0,0.0,0.0,0.0,0.0,0.0,0.0,0.0,0.0,0.0,0.0,0.0,0.0,0.0,0.0,0.0,0.0,0.0,0.0,0.0,0.0,0.0,0.0,0.0,0.0,0.0,0.0,0.0,0.0,0.0,0.0,0.0,0.0,0.0,0.0,0.0,0.0,0.0,0.0,0.0,0.0,0.0,0.0,0.0,0.0,0.0,0.0,0.0,0.0,0.0,0.0,0.0,0.0,0.0,0.0,0.0,0.0,0.0,0.0,0.0,0.0,1.0615,1.1102,1.1574,1.1602,1.166,1.1798,1.1404,1.0987,0.0,0.0,0.0,0.0,0.0,0.0,0.0,0.0,0.0,0.0,0.0,0.0,0.0,0.0,0.0,0.0,0.0,0.0,0.0,0.0,0.0,0.0,0.0,0.0,0.0,0.0,0.0,0.0,0.0,0.0,0.0,0.0,0.0,0.0,0.0,0.0,0.0,0.0,0.0,0.747,0.8099,0.0,0.0,0.0,0.0,0.0,0.0,0.0,0.0,0.8959,0.0,0.0,0.0,0.0,0.0,0.0,0.0,0.0,0.0,0.0,0.0,0.0,0.0,0.0,0.0,0.0,0.0,0.0,0.0,0.0,0.0,0.0,0.0,0.0,0.0,0.0,0.0,0.0,0.0,0.0,0.0,0.0,0.0,0.0,0.0,0.0,0.0,0.0,0.0,0.0,0.0,0.0,0.0,0.0,0.0,0.0,0.0,0.0,0.0,0.0,0.0,0.0,0.0,0.0,0.0,0.0,1.0562,1.0686,1.1028,1.1581,1.1602,1.166,1.1773,1.1404,1.1035,1.0674,0.0,0.0,0.0,0.0,0.0,0.0,0.0,0.0,0.0,0.0,0.0,0.0,0.0,0.0,0.0,0.0,0.0,0.0,0.0,0.0,0.0,0.0,0.0,0.0,0.0,0.0,0.0,0.0,0.0,0.0,0.0,0.0,0.0,0.0,0.0,0.0,0.0,0.0,0.0,0.8865,0.9217,0.0,0.0,0.0,0.0,0.0,0.0,0.0,0.0,0.9086,0.0,0.0,0.0,0.0,0.0,0.0,0.0,0.0,0.0,0.0,0.0,0.0,0.0,0.0,0.0,0.0,0.0,0.0,0.0,0.0,0.0,0.0,0.0,0.0,0.0,0.0,0.0,0.0,0.0,0.0,0.0,0.0,0.0,0.0,0.0,0.0,0.0,0.0,0.0,0.0,0.0,0.0,0.0,0.0,0.0,0.0,0.0,0.0,0.0,0.0,0.0,0.0,0.0,0.0,0.0,1.0575,1.0841,1.1248,1.1825,1.171,1.1719,1.1934,1.136,1.0923,0.0,0.0,0.0,0.0,0.0,0.0,0.0,0.0,0.0,0.0,0.0,0.0,0.0,0.0,0.0,0.0,0.0,0.0,0.0,0.0,0.0,0.0,0.0,0.0,0.0,0.0,0.0,0.0,0.0,0.0,0.0,0.0,0.0,0.0,0.0,0.0,0.0,0.0,0.0,0.0,0.9126,0.9419,0.975,0.0,0.0,0.0,0.0,0.0,0.0,0.9446,0.9405,0.0,0.0,0.0,0.0,0.0,0.0,0.0,0.0,0.0,0.0,0.0,0.0,0.0,0.0,0.0,0.0,0.0,0.0,0.0,0.0,0.0,0.0,0.0,0.0,0.0,0.0,0.0,0.0,0.0,0.0,0.0,0.0,0.0,0.0,0.0,0.0,0.0,0.0,0.0,0.0,0.0,0.0,0.0,0.0,0.0,0.0,0.0,0.0,0.0,0.0,0.0,0.0,0.0,0.0,0.0,1.0527,1.0938,1.1418,1.2,1.1737,1.1748,1.202,1.1339,1.0882,0.0,0.0,0.0,0.0,0.0,0.0,0.0,0.0,0.0,0.0,0.0,0.0,0.0,0.0,0.0,0.0,0.0,0.0,0.0,0.0,0.0,0.0,0.0,0.0,0.0,0.0,0.0,0.0,0.0,0.0,0.0,0.0,0.0,0.0,0.0,0.0,0.0,0.0,0.0,0.0,0.0,0.9676,0.9953,0.986,0.0,0.0,0.0,0.0,1.0111,0.9993,0.0,0.0,0.0,0.0,0.0,0.0,0.0,0.0,0.0,0.0,0.0,0.0,0.0,0.0,0.0,0.0,0.0,0.0,0.0,0.0,0.0,0.0,0.0,0.0,0.0,0.0,0.0,0.0,0.0,0.0,0.0,0.0,0.0,0.0,0.0,0.0,0.0,0.0,0.0,0.0,0.0,0.0,0.0,0.0,0.0,0.0,0.0,0.0,0.0,0.0,0.0,0.0,0.0,0.0,0.0,0.0,1.0645,1.0855,1.1216,1.1789,1.1683,1.1667,1.1816,1.1389,1.1002,0.0,0.0,0.0,0.0,0.0,0.0,0.0,0.0,0.0,0.0,0.0,0.0,0.0,0.0,0.0,0.0,0.0,0.0,0.0,0.0,0.0,0.0,0.0,0.0,0.0,0.0,0.0,0.0,0.0,0.0,0.0,0.0,0.0,0.0,0.0,0.0,0.0,0.0,0.0,0.0,0.0,1.0399,1.0058,1.024,1.0422,0.0,0.0,0.0,1.0728,1.0769,0.0,0.0,0.0,0.0,0.0,0.0,0.0,0.0,0.0,0.0,0.0,0.0,0.0,0.0,0.0,0.0,0.0,0.0,0.0,0.0,0.0,0.0,0.0,0.0,0.0,0.0,0.0,0.0,0.0,0.0,0.0,0.0,0.0,0.0,0.0,0.0,0.0,0.0,0.0,0.0,0.0,0.0,0.0,0.0,0.0,0.0,0.0,0.0,0.0,0.0,0.0,0.0,0.0,0.0,0.0,1.0109,1.0686,1.1083,1.1511,1.1954,1.1914,1.1907,1.1959,1.147,1.1007,0.0,0.0,0.0,0.0,0.0,0.0,0.0,0.0,0.0,0.0,0.0,0.0,0.0,0.0,0.0,0.0,0.0,0.0,0.0,0.0,0.0,0.0,0.0,0.0,0.0,0.0,0.0,0.0,0.0,0.0,0.0,0.0,0.0,0.0,0.0,0.0,0.0,0.0,0.0,0.0,0.0,0.0,1.0502,1.0627,0.0,0.0,0.0,1.0648,1.1016,0.0,0.0,0.0,0.0,0.0,0.0,0.0,0.0,0.0,0.0,0.0,0.0,0.0,0.0,0.0,0.0,0.0,0.0,0.0,0.0,0.0,0.0,0.0,0.0,0.0,0.0,0.0,0.0,0.0,0.0,0.0,0.0,0.0,0.0,0.0,0.0,0.0,0.0,0.0,0.0,0.0,0.0,0.0,0.0,0.0,0.0,0.0,0.0,0.0,0.0,0.0,0.0,0.0,0.0,0.0,0.0,0.0,1.1238,1.152,1.1807,1.2145,1.2118,1.2118,1.2145,1.1976,0.0,0.0,0.0,0.0,0.0,0.0,0.0,0.0,0.0,0.0,0.0,0.0,0.0,0.0,0.0,0.0,0.0,0.0,0.0,0.0,0.0,0.0,0.0,0.0,0.0,0.0,0.0,0.0,0.0,0.0,0.0,0.0,0.0,0.0,0.0,0.0,0.0,0.0,0.0,0.0,0.0,0.0,1.0494,1.0848,1.0996,1.1095,0.0,0.0,1.1036,1.1296,1.1109,1.0868,0.0,0.0,0.0,0.0,0.0,0.0,0.0,0.0,0.0,0.0,0.0,0.0,0.0,0.0,0.0,0.0,0.0,0.0,0.0,0.0,0.0,0.0,0.0,0.0,0.0,0.0,0.0,0.0,0.0,0.0,0.0,0.0,0.0,0.0,0.0,0.0,0.0,0.0,0.0,0.0,0.0,0.0,0.0,0.0,0.0,0.0,0.0,0.0,0.0,0.0,0.0,0.0,0.0,0.0,0.0,1.2657,1.2125,1.1996,1.2276,1.2163,1.2173,1.2311,1.3222,1.2827,0.0,0.0,0.0,0.0,0.0,0.0,0.0,0.0,0.0,0.0,0.0,0.0,0.0,0.0,0.0,0.0,0.0,0.0,0.0,0.0,0.0,0.0,0.0,0.0,0.0,0.0,0.0,0.0,0.0,0.0,0.0,0.0,0.0,0.0,0.0,0.0,0.0,0.0,0.0,0.0,0.0,1.0865,1.0898,1.1271,1.1658,0.0,0.0,1.1595,1.1735,1.1886,1.1755,1.1,0.0,0.0,0.0,0.0,0.0,0.0,0.0,0.0,0.0,0.0,0.0,0.0,0.0,0.0,0.0,0.0,0.0,0.0,0.0,0.0,0.0,0.0,0.0,0.0,0.0,0.0,0.0,0.0,0.0,0.0,0.0,0.0,0.0,0.0,0.0,0.0,0.0,0.0,0.0,0.0,0.0,0.0,0.0,0.0,0.0,0.0,0.0,0.0,0.0,0.0,0.0,0.0,0.0,1.3211,1.412,1.4473,1.4705,1.482,1.4853,1.4853,1.482,1.5121,1.4267,0.0,0.0,0.0,0.0,0.0,0.0,0.0,0.0,0.0,0.0,0.0,0.0,0.0,0.0,0.0,0.0,0.0,0.0,0.0,0.0,0.0,0.0,0.0,0.0,0.0,0.0,0.0,0.0,0.8866,0.8954,0.9016,0.0,0.0,0.0,0.0,0.0,0.0,0.0,0.0,0.0,0.0,1.1072,1.1567,1.1694,0.0,0.0,1.2045,1.1945,1.2085,1.1922,1.1694,1.1383,1.0958,0.0,0.0,0.0,0.0,0.0,0.0,0.0,0.0,0.0,0.0,0.0,0.0,0.0,0.0,0.0,0.0,0.0,0.0,0.0,0.0,0.0,0.0,0.0,0.0,0.0,0.0,0.0,0.0,0.0,0.0,0.0,0.0,0.0,0.0,0.0,0.0,0.0,0.0,0.0,0.0,0.0,0.0,0.0,0.0,0.0,0.0,0.0,0.0,0.0,0.0,0.0,0.0,1.4915,1.5759,1.63,1.6615,1.6708,1.6804,1.6795,1.6718,1.6867,1.5976,0.0,0.0,0.0,0.0,0.0,0.0,0.0,0.0,0.0,0.0,0.0,0.0,0.0,0.0,0.0,0.0,0.0,0.0,0.0,0.0,0.0,0.0,0.0,0.0,0.0,0.0,0.0,0.0,0.9069,0.911,0.9117,0.0,0.0,0.0,0.0,0.0,0.0,0.0,0.0,0.0,0.0,1.1362,1.2061,1.2074,1.2109,1.2386,1.231,1.2235,1.2303,1.2042,1.18,1.1577,0.0,0.0,0.0,0.0,0.0,0.0,0.0,0.0,0.0,0.0,0.0,0.0,0.0,0.0,0.0,0.0,0.0,0.0,0.0,0.0,0.0,0.0,0.0,0.0,0.0,0.0,0.0,0.0,0.0,0.0,0.0,0.0,0.0,0.0,0.0,0.0,0.0,0.0,0.0,0.0,0.0,0.0,0.0,0.0,0.0,0.0,0.0,0.0,0.0,0.0,0.0,0.0,0.0,0.0,1.7696,1.7312,1.7171,1.7426,1.7407,1.7455,1.7473,1.8388,1.809,1.626,0.0,0.0,0.0,0.0,0.0,0.0,0.0,0.0,0.0,0.0,0.0,0.0,0.0,0.0,0.0,0.0,0.0,0.0,0.0,0.0,0.0,0.0,0.0,0.0,0.0,0.0,0.9172,0.9021,0.8919,0.0,0.0,0.0,0.0,0.0,0.0,0.0,0.0,0.0,0.0,1.1215,1.176,1.2242,1.2409,1.2516,1.2678,1.2587,1.2457,1.2325,1.2383,1.2227,0.0,0.0,0.0,0.0,0.0,0.0,0.0,0.0,0.0,0.0,0.0,0.0,0.0,0.0,0.0,0.0,0.0,0.0,0.0,0.0,0.0,0.0,0.0,0.0,0.0,0.0,0.0,1.6715,1.6677,0.0,0.0,0.0,0.0,0.0,0.0,0.0,0.0,0.0,0.0,0.0,1.817,1.8255,0.0,0.0,0.0,0.0,0.0,0.0,0.0,0.0,0.0,0.0,0.0,0.0,1.818,1.9163,1.972,2.0044,2.0122,2.0122,2.0122,2.0133,2.0477,1.9664,1.7564,0.0,0.0,0.0,0.0,0.0,0.0,0.0,0.0,0.0,0.0,0.0,0.0,0.0,0.0,0.0,0.0,0.0,0.0,0.0,0.0,0.0,0.0,0.0,0.0,0.0,0.9172,0.0,0.0,0.0,0.0,0.0,0.0,0.0,0.0,0.0,0.0,0.0,1.054,1.1097,1.1484,1.194,1.2489,1.2594,1.2729,0.0,0.0,0.0,0.0,0.0,0.0,0.0,0.0,0.0,0.0,0.0,0.0,0.0,0.0,1.532,1.3937,1.3578,1.3539,1.3694,0.0,0.0,0.0,0.0,0.0,0.0,0.0,0.0,0.0,0.0,0.0,0.0,0.0,0.0,0.0,0.0,1.7095,0.0,0.0,0.0,0.0,0.0,0.0,0.0,0.0,1.8339,1.8734,1.8967,1.9076,1.9072,0.0,1.8806,1.8356,0.0,0.0,0.0,0.0,0.0,0.0,0.0,0.0,1.968,2.0329,2.1284,2.1828,2.1921,2.2009,2.2009,2.1921,2.174,2.0754,1.893,1.6965,1.6033,0.0,0.0,0.0,0.0,0.0,0.0,0.0,0.0,0.0,0.0,0.0,0.0,0.0,0.0,0.0,0.0,0.0,0.0,0.0,0.0,0.0,0.0,0.0,0.9329,0.0,0.0,0.0,0.0,0.0,0.0,0.0,0.0,0.0,1.0255,1.1119,1.1748,1.1666,1.2443,1.3183,1.3647,0.0,0.0,0.0,0.0,0.0,0.0,0.0,1.4669,1.4585,1.534,1.5953,1.6006,1.7654,1.8531,1.7142,0.0,0.0,1.6644,1.6073,1.6058,1.6218,1.6356,1.6524,1.6748,1.6945,1.6793,0.0,0.0,0.0,0.0,0.0,0.0,0.0,0.0,1.7859,1.796,0.0,1.7663,0.0,0.0,0.0,0.0,0.0,0.0,0.0,0.0,1.9394,1.9781,1.9564,1.9801,1.9801,1.9588,2.0063,2.0027,1.9459,1.7969,0.0,0.0,0.0,0.0,0.0,0.0,2.0329,2.1099,2.1918,2.2451,2.2702,2.2956,2.2959,2.2693,2.2199,2.1432,2.0386,1.913,1.7906,1.6687,1.5143,0.0,0.0,0.0,0.0,0.0,0.0,0.0,0.0,0.0,0.0,0.0,0.0,0.0,0.0,0.0,0.0,0.0,0.0,0.0,0.0,0.9475,0.0,0.0,0.0,0.0,0.0,0.0,0.0,0.0,0.0,0.0,1.1107,1.2791,1.3727,1.2396,0.0,0.0,0.0,0.0,1.47,1.823,1.7379,1.6907,1.8676,1.9033,1.887,1.8192,0.0,0.0,1.829,2.0028,2.1288,2.0747,2.2032,2.2339,1.8892,1.8042,1.7795,1.7795,1.7796,1.7627,1.773,1.8231,1.815,1.9229,0.0,0.0,0.0,0.0,1.8613,1.8859,1.9209,1.9092,1.8919,1.8726,1.848,0.0,0.0,0.0,0.0,0.0,0.0,1.8895,1.9442,1.9756,2.0055,2.037,2.0628,2.0721,2.0648,2.0788,2.0785,2.0603,1.9797,1.9136,1.8641,0.0,0.0,0.0,0.0,2.1054,2.168,2.2463,2.2898,2.2983,2.3055,2.3075,2.2993,2.2666,2.2245,2.1722,2.0826,2.0002,1.9218,1.7229,0.0,0.0,0.0,0.0,0.0,0.0,0.0,0.0,0.0,0.0,0.0,0.0,0.0,0.0,0.0,0.0,0.0,0.0,0.0,1.0775,1.0849,1.1041,0.0,0.0,0.0,0.0,0.0,0.0,0.0,0.0,0.0,1.5623,1.5159,1.4703,0.0,0.0,1.7209,1.606,1.6783,1.7897,1.9054,0.0,0.0,0.0,1.9161,1.9047,1.9024,2.0168,2.1024,2.0907,2.2419,2.3237,2.1887,2.3048,2.388,2.2982,2.2031,2.1564,2.1678,2.1833,2.2001,2.2223,2.2463,2.2199,2.0655,2.0148,1.9427,1.9157,1.9273,1.9366,1.9604,1.9898,1.9837,1.9733,1.9547,1.9293,1.8839,1.8282,1.8073,0.0,0.0,0.0,1.9447,2.0229,2.0212,2.0507,2.1015,2.1184,2.1277,2.1268,2.1356,2.1474,2.1562,2.1247,2.0857,2.0353,0.0,0.0,2.0458,2.1205,2.1788,2.2224,2.2869,2.3222,2.321,2.3222,2.321,2.321,2.2985,2.2738,2.2465,2.2012,2.1386,2.0643,1.9214,1.8134,0.0,0.0,0.0,0.0,0.0,0.0,0.0,0.0,0.0,0.0,0.0,1.0837,0.0,0.0,0.0,0.0,1.2072,1.2446,1.3103,1.2906,0.0,0.0,0.0,0.0,0.0,0.0,0.0,1.8192,1.817,1.8531,1.9743,1.872,1.7534,1.6702,1.8523,1.957,1.854,0.0,1.9923,2.1525,2.1237,2.1116,2.1947,2.1959,2.1884,2.1906,2.2778,2.3489,2.3552,2.4491,2.4828,2.4083,2.4541,2.5221,2.5221,2.4732,2.4198,2.3943,2.3995,2.4162,2.4318,2.4485,2.4263,2.1961,2.1825,2.0087,1.9491,1.9676,1.993,2.003,2.0043,2.0276,2.0386,2.0308,2.0075,1.9813,1.9519,1.9064,0.0,0.0,1.9648,2.0075,2.0797,2.0797,2.1066,2.1553,2.1595,2.1589,2.1601,2.1873,2.2127,2.2354,2.2366,2.2369,2.2369,2.1414,2.126,2.1912,2.2202,2.249,2.2765,2.3195,2.3429,2.3431,2.3441,2.3441,2.3419,2.3246,2.3022,2.2789,2.2741,2.2236,2.122,2.0894,1.9634,1.7312,0.0,0.0,0.0,0.0,0.0,0.0,0.0,0.0,0.0,0.0,0.0,0.0,0.0,0.0,0.0,1.4027,0.0,1.5957,1.5288,0.0,0.0,0.0,1.6084,1.8114,1.8545,1.9435,2.1411,0.0,0.0,0.0,0.0,2.1502,1.9578,2.1035,2.2217,2.207,2.0995,2.1412,2.4794,2.4173,2.3951,2.5415,2.5791,2.5684,2.5496,2.5823,2.5713,2.5691,2.5914,2.616,2.6014,2.6173,2.6149,2.6173,2.6075,2.5895,2.4906,2.4738,2.4738,2.4775,2.482,2.4791,2.2521,2.2463,2.1822,2.1341,2.1039,2.1102,2.1118,2.1109,2.1199,2.0994,2.0595,2.0526,2.0357,2.0111,2.0175,2.041,2.0724,2.0942,2.1244,2.1589,2.1601,2.18,2.2106,2.232,2.2414,2.2439,2.2693,2.2838,2.2898,2.2901,2.2978,2.3111,2.2882,2.2566,2.2236,2.2668,2.3014,2.3231,2.3547,2.3706,2.3704,2.3706,2.3716,2.3706,2.3665,2.3519,2.3253,2.3085,2.2617,2.1752,2.1265,2.0459,1.9256,1.8223,0.0,0.0,0.0,0.0,0.0,0.0,0.0,0.0,0.0,1.4321,1.2566,0.0,1.5274,0.0,1.6679,1.7273,1.6685,1.6583,0.0,0.0,1.7735,1.8573,2.0992,2.1154,2.1495,2.2594,2.2699,2.3012,2.3904,2.4183,2.4186,2.3865,2.4235,2.4125,2.2866,2.3856,2.4926,2.5751,2.5646,2.5618,2.6097,2.6185,2.6207,2.6112,2.6123,2.6089,2.61,2.6137,2.6185,2.6185,2.6185,2.6185,2.6208,2.6185,2.6136,2.587,2.5822,2.5822,2.5822,2.5809,2.5821,2.3188,2.3152,2.2804,2.2478,2.219,2.1948,2.187,2.1861,2.1852,2.1683,2.1405,2.1414,2.1329,2.1208,2.1353,2.1486,2.1652,2.1779,2.1997,2.2257,2.2257,2.2402,2.2666,2.2814,2.2874,2.2896,2.3123,2.3234,2.3237,2.3343,2.3468,2.3573,2.3573,2.3376,2.2995,2.3261,2.3468,2.3573,2.3728,2.38,2.38,2.38,2.38,2.38,2.3682,2.3521,2.3263,2.3048,2.2547,2.1767,2.1429,2.0861,1.9946,1.9104,1.8431,0.0,0.0,0.0,0.0,0.0,0.0,0.0,0.0,0.0,0.0,0.0,1.7238,0.0,1.8589,0.0,1.8597,1.9,1.9588,2.0287,2.0223,2.0801,2.2484,2.2604,2.2826,2.351,2.3894,2.4224,2.4523,2.5017,2.5403,2.5558,2.5787,2.5546,2.4667,2.5468,2.6244,2.6365,2.6366,2.6437,2.6545,2.6558,2.6547,2.6558,2.6558,2.6558,2.6547,2.6558,2.6569,2.6558,2.6547,2.6558,2.6558,2.6558,2.6558,2.6558,2.6558,2.6461,2.6233,2.6185,2.6185,2.3899,2.387,2.3461,2.3288,2.3239,2.2746,2.249,2.2393,2.2393,2.2381,2.2345,2.2308,2.2311,2.2345,2.2354,2.2378,2.2414,2.2414,2.2547,2.2782,2.2782,2.2925,2.3189,2.3191,2.3179,2.3191,2.3364,2.3443,2.3475,2.3672,2.38,2.38,2.38,2.38,2.38,2.38,2.38,2.38,2.38,2.38,2.38,2.38,2.38,2.3788,2.3527,2.3301,2.3092,2.2874,2.2381,2.1601,2.1541,2.1102,2.0103,1.9519,1.8987,0.0,1.7952,0.0,0.0,0.0,0.0,0.0,0.0,0.0,0.0,1.8488,1.9302,1.9293,2.003,2.0607,2.0816,2.1531,2.2069,2.2357,2.2396,2.2623,2.3176,2.3396,2.3704,2.4196,2.4692,2.5005,2.5065,2.5487,2.581,2.592,2.6281,2.6418,2.6309,2.6284,2.6414,2.6631,2.6644,2.6728,2.6908,2.698,2.6969,2.6992,2.6968,2.7004,2.698,2.698,2.6992,2.6992,2.6957,2.698,2.7004,2.6992,2.6992,2.6968,2.6956,2.6835,2.6461,2.633,2.6316,2.4449,2.4447,2.4361,2.4313,2.4289,2.3987,2.3512,2.2956,2.2935,2.2835,2.2608,2.2384,2.2436,2.263,2.262,2.2741,2.2956,2.2947,2.3063,2.3277,2.3268,2.3402,2.3653,2.3675,2.3675,2.3665,2.3724,2.3728,2.3728,2.3776,2.38,2.38,2.38,2.38,2.38,0.0,0.0,0.0,2.38,2.38,2.38,2.38,2.38,2.38,2.3537,0.0,2.3114,2.3043,2.2666,2.1876,2.1818,0.0,0.0,0.0,0.0,0.0,0.0,0.0,0.0,0.0,0.0,0.0,2.036,1.9811,1.8831,1.9749,2.0398,2.0422,2.1135,2.1601,2.167,2.1994,2.2417,2.2884,2.2947,2.3227,2.389,2.4027,2.4174,2.4475,2.479,2.5079,2.5306,2.5606,2.5968,2.6354,2.6524,2.6656,2.6835,2.6812,2.686,2.6908,2.6908,2.6933,2.6992,2.7004,2.7004,2.7004,2.7004,2.7004,2.7004,2.7004,2.7004,2.7004,2.7004,2.7004,2.7004,2.7004,2.7004,2.7004,2.7004,2.698,2.686,2.6836,2.6859,2.4919,0.0,2.4664,2.4594,0.0,2.4461,2.4192,2.3814,2.355,2.336,2.3246,2.3104,2.3126,2.3237,2.3237,2.3319,2.3432,2.3452,2.3494,2.3597,2.3607,2.367,2.38,2.38,2.38,2.38,2.38,2.38,2.38,2.38,2.38,2.38,2.38,2.38,2.38,2.38,2.38,2.38,2.38,2.38,2.38,2.38,2.38,2.38,0.0,0.0,0.0,0.0,0.0,0.0,0.0,0.0,0.0,0.0,0.0,2.0498,2.0232,2.02,2.0462,2.0495,2.0776,2.1429,2.161,2.1344,2.0534,2.1102,2.1486,2.1489,2.2103,2.2499,2.2502,2.2942,2.3345,2.3611,2.3763,2.3997,2.4329,2.4511,2.4654,2.48,2.516,2.5451,2.5582,2.5956,2.6282,2.6548,2.6728,2.6848,2.698,2.7004,2.7004,2.7004,2.7004,2.7004,2.7004,2.7004,2.7004,2.7004,2.7004,2.7004,2.7004,2.7004,2.7004,2.7004,2.7004,2.7004,2.7004,2.7004,2.7004,2.7004,2.7004,2.7004,2.7004,2.7004,2.7004,2.5414,2.5186,2.4967,2.4894,2.4881,2.4823,2.4775,2.4702,0.0,0.0,0.0,2.3862,2.3897,2.3935,2.3955,2.3955,2.3955,2.3935,2.3935,2.3945,2.3935,2.3955,2.3923,2.3897,2.3862,2.3872,2.3824,2.38,2.38,2.38,2.38,2.38,2.38,2.38,2.38,2.38,2.38,2.38,2.38,2.38,2.38,2.38,2.38,2.38,2.3539,2.3215,2.2789,2.256,2.2212,2.1734,2.1701,2.1707,2.1707,2.167,2.1628,2.1646,2.1637,2.1658,2.1698,2.1701,2.1876,2.2217,2.2471,2.248,2.2142,2.2338,2.2541,2.2625,2.3082,2.337,2.3372,2.39,2.4278,2.427,2.4473,2.4606,2.4656,2.4871,2.5017,2.5162,2.5511,2.5835,2.5955,2.6307,2.6631,2.668,2.6848,2.7004,2.7004,2.7004,2.7004,2.7004,2.7004,2.7004,2.7004,2.7004,2.7004,2.7004,2.7004,2.7004,2.7004,2.7004,2.7004,2.7004,2.705,2.7095,2.7027,2.7095,2.7084,2.7016,2.7004,2.7004,2.7004,2.7004,2.7004,2.6063,2.6016,2.5991,2.5978,2.5955,2.5726,2.5498,2.5243,2.4485,2.4148,2.4138,2.4148,2.429,2.4475,2.4496,2.4496,2.4496,2.4496,2.4485,0.0,2.4506,2.4496,2.4473,2.4256,2.4138,2.4136,2.3909,2.38,2.38,2.38,2.38,2.38,2.38,2.381,2.38,2.38,2.38,2.38,2.38,2.38,2.38,2.38,2.38,2.3778,2.3537,2.3299,2.3043,2.2995,2.2838,2.2569,2.2526,2.2535,2.2523,2.2308,2.2187,2.2187,2.2187,2.2284,2.2511,2.2535,2.2821,2.347,2.3774,2.3649,2.3007,2.3128,2.3427,2.388,2.4158,2.4397,2.4387,2.4482,2.4546,2.4535,2.458,2.469,2.4909,2.5005,2.5186,2.5584,2.575,2.6015,2.6378,2.6559,2.6692,2.6873,2.6968,2.7016,2.705,2.7004,2.7004,2.7004,2.7004,2.7004,2.7004,2.7004,2.7004,2.7004,2.7004,2.7016,2.7061,2.7072,2.7072,2.7027,2.7367,2.7411,2.714,2.7343,2.7424,2.7208,2.7129,2.7106,2.7129,2.7106,2.7061,2.6881,2.6934,2.6416,2.6361,2.6603,2.6196,2.586,2.5584,2.5233,2.4885,2.4644,2.4632,2.462,2.4594,2.4594,2.4594,2.4594,2.4594,2.4594,2.4594,2.4594,2.4594,2.4582,2.4483,2.4403,2.4411,2.4413,2.4269,2.4045,2.4125,2.4062,2.3842,2.4052,2.4282,2.4502,2.4502,2.4596,2.4753,2.4135,2.391,2.4172,2.3932,2.391,2.4172,2.3819,2.3499,2.3263,2.3251,2.3159,2.2922,2.292,2.2952,2.3068,2.2961,2.2961,2.3094,2.3116,2.3164,2.3285,2.343,2.3722,2.4196,2.4342,2.4351,2.4154,2.4096,2.415,2.4389,2.4544,2.4594,2.4606,2.4728,2.4812,2.4823,2.4943,2.5077,2.5199,2.5355,2.5523,2.5775,2.6075,2.633,2.656,2.6716,2.6837,2.6981,2.7004,2.7095,2.7344,2.739,2.7276,2.7061,2.7004,2.7004,2.7016,2.7004,2.7004,2.7004,2.7004,2.7118,2.731,2.7401,2.7401,2.7411,2.7796,2.7875,2.7491,2.7786,2.7955,2.7921,2.7808,2.782,2.7808,2.782,2.7626,2.7684,2.7815,2.7041,2.6952,2.7296,2.6886,2.661,2.6416,2.6415,2.6135,2.5699,2.5352,2.51,2.4967,2.4966,2.4966,2.4966,2.4955,2.4966,2.4966,2.5081,2.5057,2.489,2.4915,2.4853,2.4739,2.4886,2.4839,2.4606,2.4751,2.4645,2.4376,2.4655,2.4989,2.529,2.531,2.5435,2.5626,2.4777,2.4474,2.4796,2.4425,2.4388,2.4679,2.4327,2.3955,2.3681,2.3659,2.352,2.3266,2.3263,2.3341,2.3477,2.3511,2.3609,2.3848,2.3894,2.3921,2.3991,2.4172,2.4403,2.4666,2.469,2.4799,2.5019,2.4897,2.4785,2.4764,2.4799,2.4799,2.4823,2.498,2.5079,2.5102,2.5331,2.5463,2.5521,2.5738,2.592,2.6004,2.6354,2.6596,2.6727,2.6974,2.7254,2.7452,2.743,2.7601,2.7969,2.8073,2.7902,2.7652,2.7467,2.75,2.7431,2.7538,2.7585,2.7527,2.7562,2.7805,2.8032,2.8086,2.8073,2.8156,2.8543,2.8635,2.8245,2.8508,2.8759,2.8693,2.8626,2.8669,2.8636,2.8648,2.8259,2.8412,2.8421,2.8295,2.8308,2.8318,2.8262,2.8214,2.8189,2.8224,2.8083,2.7582,2.6358,2.5879,2.6038,2.6048,2.6013,2.6024,2.605,2.6026,2.609,2.6556,2.6399,2.5749,2.5927,2.5673,2.5093,2.5221,2.5444,2.5589,2.5737,2.5808,2.5821,2.5852,2.5867,2.5921,2.5908,2.5944,2.5962,2.5864,2.5811,2.5837,2.559,2.5441,2.5481,2.516,2.4789,2.4405,2.4405,2.4193,2.3788,2.3738,2.373,2.3786,2.3766,2.3874,2.4138,2.4162,2.4268,2.4508,2.4566,2.4678,2.4933,2.4957,2.5076,2.5318,2.5331,2.534,2.5294,2.5317,2.5293,2.534,2.5331,2.5343,2.5377,2.5582,2.5751,2.5787,2.5992,2.6256,2.6511,2.6616,2.6703,2.7068,2.7448,2.7932,2.8488,2.8547,2.8679,2.8993,2.9078,2.9113,2.902,2.8895,2.8733,2.8698,2.8934,2.8858,2.8943,2.9026,2.8999,2.9008,2.9079,2.9143,2.9048,2.9506,2.962,2.9404,2.9547,2.9718,2.9421,2.932,2.9269,2.9235,2.9278,2.8776,2.9508,2.9558,2.899,2.865,2.8521,2.8497,2.8497,2.8484,2.8296,2.8134,2.7987,2.7372,2.6994,2.6785,2.6694,2.6562,2.6384,2.6255,2.6383,2.667,2.6924,2.685,2.6665,2.6734,2.6522,2.6111,2.6234,2.6262,2.6156,2.6055,2.6121,2.6323,2.6344,2.649,2.6746,2.6757,2.6846,2.6995,2.6995,2.7108,2.7148,2.6329,2.5944,2.6135,2.5829,2.5466,2.5158,2.5051,2.481,2.447,2.4326,2.4268,2.428,2.427,2.4329,2.4425,2.4437,2.4558,2.4823,2.4847,2.4967,2.5199,2.5245,2.5282,2.5368,2.538,2.538,2.538,2.5403,2.538,2.5403,2.538,2.5451,2.5606,2.5728,2.587,2.6027,2.6281,2.6576,2.6964,2.7154,2.7498,2.803,2.8421,2.8755,2.9077,2.9147,2.9338,2.9682,2.9788,2.9904,3.0125,3.0208,2.9904,2.9396,2.9212,2.9313,2.9313,2.9301,2.9347,2.9744,2.9765,2.9763,2.9778,3.0197,3.0302,2.9831,3.0158,3.0401,3.0173,3.0171,3.0181,3.017,3.0194,2.9817,3.0374,3.0372,2.963,2.9212,2.9019,2.893,2.8891,2.8854,2.8616,2.8515,2.8526,2.8515,2.8215,2.7712,2.7479,2.7217,2.693,2.6759,2.6853,2.7166,2.7285,2.7308,2.7226,2.7332,2.7191,2.6891,2.7013,2.7056,2.6886,2.6798,2.6833,2.7013,2.7041,2.7217,2.7532,2.7606,2.7756,2.7946,2.8006,2.8187,2.8212,2.7289,2.6773,2.6854,2.656,2.6226,2.588,2.574,2.5519,2.5219,2.4942,2.4792,2.478,2.4676,2.463,2.4714,2.4775,2.4906,2.5102,2.5114,2.5186,2.5367,2.538,2.538,2.538,2.538,2.538,2.5414,2.5474,2.551,2.5403,2.5474,2.5606,2.5786,2.5896,2.6136,2.6412,2.6756,2.7232,2.7598,2.7968,2.8412,2.9062,2.9392,2.9568,2.9809,2.9869,2.9979,3.0391,3.0558,3.0688,3.0989,3.1211,3.0915,3.0039,3.0032,2.9926,2.9951,3.0071,3.0224,3.0475,3.0522,3.0547,3.0716,3.0913,3.0944,3.0734,3.0914,3.1011,3.1022,3.0999,3.0989,3.0987,3.1026,3.1037,3.0782,3.0753,3.0452,3.0277,3.028,2.9946,2.9815,2.9772,2.9752,2.9761,2.9703,2.9714,2.9466,2.8891,2.8572,2.8249,2.7928,2.7823,2.7733,2.7662,2.8009,2.7874,2.7269,2.7633,2.7525,2.7038,2.736,2.7691,2.8028,2.8302,2.8361,2.811,2.8075,2.8107,2.8179,2.8374,2.8516,2.854,2.8743,2.8919,2.8906,2.8609,2.8137,2.769,2.7387,2.7018,2.6628,2.6539,2.6367,2.5977,2.5549,2.5291,2.5258,2.4876,2.4759,2.5001,2.521,2.5343,2.5365,2.5355,2.5389,2.5424,2.5448,2.5436,2.5614,2.5582,2.5582,2.548,2.582,2.5812,2.5653,2.5834,2.5924,2.6008,2.6361,2.6745,2.7012,2.7698,2.8188,2.8547,2.898,2.9469,2.997,3.0064,3.041,3.0826,3.1069,3.1159,3.1359,3.1535,3.1546,3.1545,3.1594,3.1531,3.1209,3.1036,3.1304,3.1267,3.1071,3.1403,3.1551,3.1637,3.1561,3.1536,3.1505,3.1515,3.1597,3.1597,3.1567,3.154,3.1513,3.1527,3.1433,3.1605,3.1579,3.1259,3.1037,3.0767,3.0646,3.0631,3.0339,3.023,3.019,2.9804,2.9646,2.9646,2.9646,2.9597,2.9564,2.9671,2.9068,2.7988,2.7821,2.7958,2.8331,2.8509,2.8587,2.8719,2.8857,2.8595,2.808,2.8134,2.8199,2.8222,2.8468,2.8561,2.8508,2.8631,2.87,2.8727,2.8807,2.8863,2.8865,2.8959,2.9001,2.9001,2.8906,2.8732,2.8529,2.8115,2.7704,2.7308,2.7223,2.701,2.6664,2.6389,2.627,2.6218,2.5806,2.5579,2.5669,2.5501,2.538,2.538,2.538,2.5636,2.6084,2.5827,2.6051,2.6632,2.6614,2.6551,2.6816,2.7102,2.72,2.7122,2.6963,2.6961,2.7325,2.7796,2.8156,2.8463,2.8752,2.9059,2.9533,3.0093,3.0596,3.0753,3.0989,3.123,3.1454,3.1503,3.158,3.1659,3.1712,3.1712,3.1712,3.1699,3.1649,3.1555,3.1582,3.1687,3.1687,3.165,3.1613,3.1687,3.1687,3.1623,3.1612,3.1699,3.1699,3.1662,3.1662,3.1712,3.1712,3.1712,3.1712,3.1699,3.1712,3.1712,3.158,3.1343,3.1037,3.0942,3.0889,3.0656,3.0513,3.0484,3.0085,2.9936,2.9911,2.9911,2.9967,3.0074,3.0297,2.9777,2.8642,2.8535,2.875,2.914,2.9106,2.9231,2.9453,2.9508,2.9232,2.881,2.8834,2.8829,2.8773,2.8936,2.8967,2.89,2.9077,2.9092,2.9039,2.9103,2.9168,2.9181,2.925,2.9282,2.9279,2.9199,2.9168,2.9103,2.881,2.8398,2.8016,2.7905,2.7709,2.7409,2.7159,2.6993,2.69,2.6744,2.6621,2.6578,2.6333,2.6129,2.6139,2.615,2.6387,2.6875,2.6661,2.6833,2.7599,2.7492,2.7541,2.7826,2.8196,2.8413,2.8483,2.8425,2.8428,2.8539,2.8844,2.917,2.9413,2.9569,2.9957,3.0531,3.0992,3.1297,3.1385,3.1555,3.1649,3.1712,3.1712,3.1712,3.1712,3.1712,3.1712,3.1712,3.1712,3.1712,3.1647,3.1686,3.1712,3.1712,3.1712,3.1712,3.1712,3.1712,3.1712,3.1712,3.1712,3.1712,3.1712,3.1712,3.1712,3.1712,3.1712,3.1712,3.1712,3.1712,3.1712,3.1726,3.1674,3.1344,3.1278,3.1251,3.0994,3.082,3.0833,3.0753,3.066,3.0621,3.0726,3.0578,3.0469,3.0471,3.0209,2.9981,3.0134,3.0081,2.9884,2.9857,2.9748,2.9642,2.9655,2.9461,2.9119,2.9341,2.9606,2.9731,2.9782,2.9713,2.9537,2.9561,2.9475,2.9068,2.9446,2.955,2.9606,2.9806,2.9904,2.9889,2.9686,2.959,2.9564,2.951,2.9243,2.8673,2.8615,2.851,2.8241,2.7817,2.7449,2.7386,2.7495,2.7673,2.7622,2.7617,2.7619,2.7595,2.7526,2.7481,2.769,2.7657,2.7688,2.8011,2.8135,2.8254,2.8455,2.8815,2.9157,2.9457,2.992,2.999,2.9243,2.9398,2.9676,2.9867,3.0227,3.0802,3.1401,3.1647,3.1699,3.1699,3.1699,3.1712,3.1712,3.1712,3.1712,3.1712,3.1712,3.1712,3.1712,3.1712,3.1712,3.1712,3.1712,3.1726,3.1726,3.1712,3.1712,3.1712,3.1712,3.1712,3.1712,3.1712,3.1712,3.1712,3.1712,3.1712,3.1712,3.1712,3.1726,3.1712,3.1712,3.1712,3.2326,3.2313,3.2207,3.2167,3.2102,3.1646,3.1432,3.1378,3.1005,3.0795,3.0795,3.0795,3.0849,3.0942,3.0955,3.1009,3.1152,3.1233,3.0937,3.035,3.0245,3.0312,3.0368,3.0392,3.0245,2.9978,2.982,2.9822,2.9942,3.0163,3.0178,3.0161,3.031,3.0327,3.0196,3.0352,3.0392,3.0394,3.0474,3.0526,3.0503,3.0434,3.0404,3.0404,3.0392,3.0205,2.9856,2.9619,2.9461,2.935,2.9058,2.8746,2.8495,2.8271,2.8169,2.8149,2.7876,2.771,2.7712,2.7757,2.8015,2.8311,2.8349,2.8735,2.9401,2.9478,2.9588,2.9868,3.029,3.0555,3.0672,3.1015,3.0974,3.0372,3.0684,3.0902,3.0945,3.1174,3.1404,3.1613,3.1712,3.1712,3.1712,3.1712,3.1712,3.1712,3.1712,3.1712,3.1712,3.1712,3.1712,3.1712,3.1712,3.1753,3.1767,3.1888,3.2007,3.198,3.1926,3.19,3.186,3.1846,3.1819,3.1818,3.1805,3.1791,3.1778,3.1779,3.1819,3.1779,3.1793,3.1766,3.1726,3.1739,3.1779,3.2594,3.2594,3.2594,3.2594,3.2579,3.2167,3.2045,3.1992,3.1634,3.146,3.146,3.1341,3.1358,3.1491,3.1436,3.1502,3.1699,3.1712,3.1418,3.095,3.0872,3.0914,3.0942,3.0847,3.0793,3.0686,3.049,3.045,3.0593,3.0776,3.083,3.0753,3.0862,3.0875,3.0808,3.0795,3.0795,3.0795,3.0782,3.0795,3.0795,3.0795,3.0795,3.0795,3.0889,3.086,3.0711,3.0606,3.0354,2.9996,2.9833,2.9735,2.9508,2.9366,2.9285,2.923,2.9063,2.8886,2.8849,2.8994,2.9014,2.9425,2.9415,2.9653,3.0379,3.0482,3.0675,3.0901,3.1186,3.1396,3.1411,3.1567,3.1533,3.1236,3.1448,3.1701,3.1712,3.1712,3.1687,3.1712,3.1712,3.1712,3.1712,3.1712,3.1712,3.1712,3.1712,3.1712,3.1712,3.1712,3.1712,3.1753,3.1846,3.1861,3.1876,3.2036,3.2276,3.2261,3.2219,3.2206,3.2179,3.2193,3.2179,3.2217,3.2217,3.2242,3.2242,3.2178,3.2166,3.2059,3.1979,3.2007,3.2021,3.1915,3.1901,3.2635,3.2648,3.2648,3.2688,3.2674,3.2633,3.2581,3.2606,3.2527,3.2472,3.2421,3.2169,3.209,3.2051,3.1862,3.1808,3.1779,3.1833,3.1808,3.1739,3.1699,3.158,3.1261,3.1036,3.1047,3.1171,3.1173,3.133,3.1487,3.1539,3.1542,3.1238,3.1211,3.1129,3.098,3.0873,3.0927,3.094,3.0914,3.0902,3.0914,3.0889,3.09,3.0914,3.1116,3.1224,3.1224,3.1381,3.1074,3.0207,3.0287,3.0404,3.043,3.0658,3.0627,3.0577,3.0743,3.0594,3.0682,3.0457,3.0543,3.0556,3.06,3.0822,3.0825,3.1029,3.1167,3.1239,3.1488,3.166,3.166,3.1687,3.1664,3.1701,3.1689,3.1712,3.1712,3.1712,3.1712,3.1712,3.1712,3.1712,3.1712,3.1712,3.1712,3.1712,3.1712,3.1712,3.1726,3.1727,3.1739,3.1846,3.1995,3.2115,3.2169,3.2382,3.2583,3.2596,3.2555,3.2555,3.2474,3.2433,3.2433,3.2485,3.2564,3.2616,3.2589,3.2471,3.242,3.238,3.2354,3.2369,3.2304,3.2195,3.2115,3.3199,3.3199,3.3187,3.3199,3.3159,3.2984,3.2903,3.2876,3.2688,3.2634,3.2581,3.2502,3.2461,3.2448,3.2381,3.2367,3.2326,3.234,3.2379,3.2367,3.2367,3.2047,3.1672,3.15,3.1487,3.1568,3.1557,3.1609,3.1699,3.1712,3.1659,3.158,3.1555,3.1554,3.1485,3.1447,3.146,3.146,3.146,3.146,3.1472,3.146,3.146,3.1485,3.154,3.1568,3.158,3.1659,3.1487,3.0957,3.093,3.0889,3.074,3.0793,3.0849,3.086,3.0822,3.0808,3.0808,3.0833,3.0808,3.0822,3.0997,3.1091,3.1104,3.1383,3.1542,3.1582,3.1674,3.1712,3.1712,3.1712,3.1712,3.1712,3.1712,3.1712,3.1712,3.1712,3.1712,3.1712,3.1712,3.1712,3.1712,3.1726,3.1726,3.1739,3.1753,3.1766,3.1834,3.1928,3.2008,3.2102,3.2235,3.2381,3.2528,3.273,3.2891,3.2918,3.2918,3.2944,3.2782,3.2607,3.2581,3.2579,3.2701,3.2767,3.2673,3.2567,3.2594,3.2702,3.2649,3.2623,3.2555,3.2474,3.246,3.3389,3.3389,3.3389,3.3389,3.3374,3.3239,3.316,3.3146,3.2999,3.2943,3.2917,3.2822,3.2769,3.2756,3.2648,3.2594,3.2594,3.2594,3.2581,3.2581,3.2567,3.238,3.2139,3.2074,3.2019,3.1862,3.1849,3.1782,3.1726,3.1712,3.1712,3.1714,3.1821,3.1874,3.1874,3.2008,3.2086,3.2086,3.2086,3.2074,3.2086,3.2086,3.2086,3.2045,3.1955,3.1834,3.1727,3.1712,3.1607,3.1448,3.1396,3.133,3.1194,3.1181,3.1167,3.1191,3.1167,3.1193,3.1179,3.1179,3.1167,3.1194,3.1343,3.1396,3.1436,3.1595,3.1712,3.1699,3.1712,3.1712,3.1712,3.1712,3.1712,3.1712,3.1712,3.1712,3.1712,3.1712,3.1712,3.1712,3.1712,3.1712,3.1712,3.1794,3.1849,3.1903,3.206,3.2075,3.2128,3.2223,3.2317,3.2382,3.253,3.269,3.281,3.2998,3.3092,3.3146,3.3146,3.3199,3.3079,3.285,3.2891,3.2904,3.2905,3.2905,3.2864,3.2864,3.2984,3.3025,3.2944,3.2876,3.2823,3.2781,3.2755,3.3389,3.3389,3.3389,3.3389,3.3389,3.3375,3.3361,3.3388,3.3348,3.3348,3.3294,3.3146,3.3051,3.3038,3.2863,3.2702,3.2714,3.2769,3.2701,3.2674,3.2634,3.2527,3.2514,3.2381,3.2234,3.2011,3.2038,3.1891,3.1767,3.1739,3.1754,3.1822,3.2036,3.2143,3.2209,3.2408,3.2567,3.2527,3.2487,3.2487,3.2499,3.2487,3.2474,3.2435,3.2276,3.2035,3.1848,3.1754,3.1739,3.1699,3.1712,3.1647,3.1672,3.1686,3.1672,3.1646,3.1607,3.1632,3.166,3.1619,3.1647,3.1646,3.1646,3.1712,3.1686,3.1699,3.1712,3.1712,3.1712,3.1712,3.1712,3.1712,3.1741,3.1767,3.1767,3.1754,3.1767,3.1741,3.1712,3.1739,3.1754,3.1753,3.1834,3.1969,3.2157,3.2182,3.2301,3.2341,3.2421,3.2516,3.2583,3.2637,3.281,3.3024,3.3119,3.3239,3.3293,3.3334,3.3308,3.3321,3.3321,3.3227,3.3294,3.3308,3.3187,3.3173,3.3228,3.3281,3.3321,3.3294,3.3173,3.3133,3.3105,3.3052,3.3038,3.3389,3.3389,3.3389,3.3389,3.3389,3.3389,3.3389,3.3389,3.3389,3.3389,3.3362,3.3321,3.3307,3.3293,3.3213,3.3227,3.3159,3.3145,3.3132,3.2891,3.2675,3.2607,3.2541,3.2395,3.2088,3.1901,3.1808,3.1767,3.1754,3.1941,3.2023,3.2051,3.2316,3.25,3.2502,3.2594,3.2594,3.2594,3.2607,3.2648,3.2635,3.2648,3.2634,3.2621,3.2528,3.2329,3.209,3.2023,3.1928,3.1766,3.1726,3.1727,3.1712,3.1712,3.1712,3.1712,3.1712,3.1712,3.1712,3.1712,3.1712,3.1712,3.1712,3.1712,3.1712,3.1712,3.1712,3.1712,3.1712,3.1712,3.1727,3.1726,3.1834,3.1956,3.2023,3.2115,3.2247,3.2005,3.1849,3.1956,3.2023,3.2115,3.2341,3.2407,3.25,3.2488,3.2542,3.2594,3.2701,3.2836,3.2864,3.2905,3.3039,3.3212,3.324,3.332,3.3348,3.3389,3.3389,3.3389,3.3389,3.3389,3.3389,3.3389,3.3362,3.3389,3.3389,3.3375,3.3361,3.3375,3.3389,3.3321,3.3254,3.328,3.3253,3.3389,3.3389,3.3389,3.3389,3.3389,3.3389,3.3389,3.3389,3.3389,3.3389,3.3389,3.3389,3.3389,3.3389,3.3388,3.3347,3.3199,3.3078,3.2944,3.277,3.2648,3.2594,3.2581,3.2435,3.2247,3.2139,3.2139,3.2114,3.2167,3.2247,3.2341,3.2356,3.2649,3.2769,3.2823,3.2903,3.2998,3.2985,3.2971,3.2971,3.2971,3.2958,3.2877,3.2809,3.2769,3.2637,3.2369,3.2329,3.2274,3.2127,3.1968,3.1809,3.1726,3.1712,3.1712,3.1712,3.1712,3.1712,3.1712,3.1712,3.1712,3.1712,3.1712,3.1712,3.1712,3.1712,3.1712,3.1712,3.1726,3.1753,3.1862,3.1889,3.2024,3.225,3.2317,3.2421,3.2513,3.2313,3.2154,3.2314,3.2341,3.242,3.2566,3.2727,3.2795,3.2784,3.2959,3.3012,3.3052,3.3146,3.316,3.32,3.3281,3.3361,3.3361,3.3362,3.3374,3.3389,3.3389,3.3389,3.3389,3.3389,3.3389,3.3389,3.3389,3.3389,3.3389,3.3389,3.3389,3.3389,3.3389,3.3389,3.3375,3.3334,3.3334,3.3387,3.3347,3.3374,3.3387,3.336,3.3362,3.3389,3.3389,3.3389,3.3389,3.3389,3.3389,3.3374,3.3334,3.3308,3.3186,3.2956,3.2768,3.2661,3.2634,3.2607,3.2594,3.2581,3.2554,3.2594,3.266,3.2554,3.2528,3.2541,3.2634,3.2649,3.2714,3.2943,3.3051,3.3119,3.3253,3.3321,3.3308,3.3294,3.332,3.3334,3.3321,3.3227,3.3105,3.3064,3.293,3.2728,3.2648,3.2609,3.2606,3.2329,3.2088,3.1888,3.1726,3.1712,3.1712,3.1712,3.1712,3.1712,3.1712,3.1712,3.1712,3.1712,3.1712,3.1712,3.1712,3.1753,3.1819,3.1873,3.2019,3.2157,3.2183,3.2342,3.2568,3.2661,3.2674,3.2728,3.2728,3.2716,3.2648,3.2649,3.2702,3.2823,3.2983,3.3024,3.3092,3.3268,3.3389,3.3389,3.3389,3.3361,3.3334,3.3374,3.3535,3.3561,3.3601,3.3575,3.3629,3.3576,3.3576,3.3576,3.3682,3.3708,3.3429,3.3389,3.3402,3.3402,3.3389,3.3389,3.3389,3.3389,3.3389,3.3389,3.3389,3.3402,3.3267,3.3079,3.3307,3.328,3.3119,3.3307,3.3388,3.3389,3.3374,3.3388,3.3374,3.3375,3.324,3.3106,3.3053,3.2917,3.2768,3.2634,3.2594,3.2594,3.2594,3.2594,3.2634,3.2648,3.2729,3.281,3.2769,3.2674,3.2714,3.2809,3.2917,3.2984,3.3186,3.3307,3.332,3.3374,3.3389,3.3389,3.3389,3.3389,3.3389,3.3375,3.3362,3.3281,3.328,3.3172,3.2998,3.2917,3.2824,3.2609,3.2542,3.2499,3.2353,3.1993,3.1806,3.1779,3.1793,3.1831,3.1818,3.1741,3.1726,3.1712,3.1766,3.1741,3.1741,3.1753,3.19,3.2048,3.2261,3.2447,3.2514,3.2515,3.2661,3.2849,3.2944,3.3011,3.3172,3.3187,3.3093,3.2958,3.2957,3.2984,3.3079,3.3172,3.32,3.3227,3.3308,3.3389,3.3389,3.3428,3.3441,3.3415,3.3375,3.3588,3.3762,3.3828,3.3881,3.4016,3.4016,3.4029,3.4056,3.4136,3.4056,3.3762,3.3536,3.3509,3.3482,3.3442,3.3455,3.3508,3.3468,3.3402,3.3522,3.3629,3.3495,3.3321,3.3201,3.336,3.3334,3.3252,3.3334,3.332,3.3199,3.3187,3.3105,3.3012,3.2984,3.2917,3.285,3.2957,3.2904,3.2809,3.2648,3.2594,3.2594,3.2594,3.2675,3.2782,3.2809,3.2958,3.3105,3.3065,3.2998,3.3012,3.3146,3.3187,3.3239,3.3348,3.3375,3.3389,3.3388,3.3389,3.3389,3.3389,3.3389,3.3389,3.3389,3.3389,3.3389,3.3389,3.3321,3.3253,3.32,3.3159,3.3012,3.2877,3.2823,3.2689,3.2461,3.2154,3.2154,3.2152,3.2152,3.2166,3.2154,3.2181,3.2179,3.2152,3.2154,3.2154,3.2206,3.2221,3.2354,3.2448,3.2661,3.2782,3.2784,3.2931,3.3132,3.3212,3.3279,3.336,3.3388,3.3294,3.32,3.32,3.3227,3.3281,3.3348,3.3362,3.3389,3.3389,3.3402,3.3415,3.3548,3.3642,3.3668,3.3682,3.3869,3.4042,3.4108,3.4189,3.4336,3.4416,3.4416,3.4389,3.4416,3.4283,3.4029,3.3856,3.3829,3.3695,3.3721,3.3681,3.3642,3.3668,3.3722,3.3842,3.3869,3.3748,3.3361,3.332,3.3374,3.3361,3.3321,3.3387,3.3293,3.3093,3.3092,3.2999,3.2782,3.277,3.2782,3.2741,3.2823,3.2903,3.2916,3.2702,3.2714,3.2716,3.2796,3.2904,3.3024,3.3118,3.3173,3.3308,3.3334,3.3389,3.3321,3.3348,3.3388,3.3374,3.3375,3.3389,3.3389,3.3389,3.3389,3.3389,3.3389,3.3389,3.3389,3.3389,3.3389,3.3389,3.3389,3.3388,3.3361,3.3361,3.3361,3.3281,3.3187,3.3091,3.3051,3.2889,3.2768,3.2755,3.2662,3.2607,3.2567,3.2554,3.25,3.2487,3.2567,3.2581,3.2594,3.2567,3.2649,3.2688,3.2769,3.2876,3.3064,3.3091,3.3173,3.3294,3.3362,3.3375,3.3388,3.3389,3.3389,3.3349,3.3389,3.3402,3.3429,3.3389,3.3389,3.3469,3.3482,3.3601,3.3642,3.3855,3.3975,3.4016,3.4082,3.4229,3.4336,3.4402,3.4509,3.4643,3.4697,3.471,3.4643,3.4589,3.447,3.4443,3.4483,3.4442,3.4228,3.3988,3.3961,3.3961,3.3975,3.4015,3.4069,3.4109,3.4069,3.3254,3.3065,3.3307,3.3267,3.3119,3.3308,3.3374,3.3334,3.3294,3.3347,3.3172,3.3228,3.3092,3.2944,3.2729,3.2688,3.2741,3.2889,3.297,3.2972,3.312,3.324,3.3334,3.3348,3.3321,3.3389,3.3389,3.3389,3.3389,3.3389,3.3389,3.3389,3.3389,3.3389,3.3389,3.3389,3.3389,3.3389,3.3389,3.3389,3.3389,3.3389,3.3389,3.3389,3.3389,3.3389,3.3389,3.3389,3.3389,3.3375,3.3349,3.3334,3.3347,3.3346,3.3294,3.316,3.2917,3.2594,3.2648,3.2688,3.2701,3.2714,3.2674,3.2607,3.2728,3.2863,3.2957,3.2957,3.3119,3.324,3.328,3.3321,3.3361,3.3415,3.3455,3.3455,3.3455,3.3655,3.3615,3.3588,3.3655,3.3561,3.3508,3.3442,3.3389,3.3495,3.3601,3.3748,3.3907,3.4122,3.4349,3.4403,3.4443,3.4576,3.4656,3.4696,3.4763,3.491,3.495,3.4963,3.491,3.487,3.499,3.4964,3.499,3.4857,3.4549,3.4349,3.4295,3.4269,3.4269,3.4256,3.4269,3.4309,3.4403,3.3334,3.3214,3.336,3.3321,3.324,3.336,3.3308,3.3199,3.3172,3.3079,3.2971,3.2944,3.2944,3.2945,3.2876,3.2931,3.3039,3.3172,3.3226,3.3213,3.3334,3.3389,3.3375,3.3389,3.3389,3.3389,3.3389,3.3389,3.3389,3.3389,3.3389,3.3389,3.3389,3.3389,3.3389,3.3389,3.3389,3.3389,3.3389,3.3389,3.3389,3.3389,3.3389,3.3389,3.3389,3.3389,3.3389,3.3389,3.3389,3.3389,3.3389,3.3389,3.3375,3.3388,3.3375,3.3374,3.32,3.3065,3.3065,3.3051,3.3024,3.3039,3.3039,3.3065,3.3066,3.312,3.3213,3.3227,3.3321,3.3401,3.3402,3.3389,3.3521,3.3588,3.3668,3.3762,3.3815,3.3908,3.3988,3.3935,3.3895,3.3842,3.3802,3.3774,3.3788,3.3869,3.3975,3.4082,3.4241,3.4428,3.4656,3.4844,3.4857,3.491,3.4963,3.5017,3.499,3.5071,3.5071,3.5097,3.5124,3.5151,3.5191,3.5191,3.5111,3.495,3.4777,3.4683,3.4589,3.4576,3.4576,3.459,3.463,3.4777,3.4817,3.3389,3.3389,3.3389,3.3389,3.3389,3.3389,3.3293,3.3119,3.3119,3.2998,3.2849,3.2837,3.2957,3.3052,3.3119,3.3187,3.3349,3.3389,3.3389,3.3389,3.3389,3.3389,3.3389,3.3389,3.3389,3.3389,3.3389,3.3389,3.3389,3.3389,3.3389,3.3389,3.3389,3.3389,3.3389,3.3389,3.3389,3.3389,3.3389,3.3389,3.3389,3.3389,3.3389,3.3389,3.3389,3.3389,3.3389,3.3389,3.3389,3.3389,3.3389,3.3389,3.3389,3.3389,3.3389,3.3388,3.3321,3.3321,3.3321,3.3321,3.3375,3.3389,3.3389,3.3308,3.3348,3.3389,3.3375,3.3349,3.3508,3.3521,3.3535,3.3588,3.3788,3.3935,3.4002,3.4148,3.4255,3.4243,3.4202,3.4136,3.4149,3.4295,3.4242,3.4201,3.4215,3.4256,3.4337,3.443,3.4576,3.4736,3.4856,3.5044,3.5057,3.5071,3.511,3.5164,3.5177,3.5191,3.5191,3.5191,3.5191,3.5191,3.5191,3.5191,3.5191,3.5124,3.4977,3.4923,3.4883,3.487,3.4883,3.4977,3.5044,3.5151,3.5151,3.3389,3.3389,3.3389,3.3389,3.3389,3.3389,3.3388,3.3334,3.3348,3.3321,3.3267,3.332,3.3281,3.3334,3.3321,3.3348,3.3389,3.3389,3.3389,3.3389,3.3389,3.3389,3.3389,3.3389,3.3389,3.3389,3.3389,3.3389,3.3389,3.3389,3.3389,3.3389,3.3389,3.3389,3.3389,3.3389,3.3389,3.3389,3.3389,3.3389,3.3389,3.3389,3.3389,3.3389,3.3389,3.3389,3.3389,3.3389,3.3389,3.3389,3.3389,3.3389,3.3389,3.3389,3.3389,3.3389,3.3389,3.3389,3.3389,3.3389,3.3389,3.3389,3.3389,3.3389,3.3389,3.3415,3.3415,3.3469,3.3682,3.3828,3.3934,3.4068,3.4135,3.4268,3.4322,3.4389,3.4456,3.4443,3.4403,3.4336,3.4403,3.4589,3.4669,3.4629,3.4562,3.459,3.467,3.4763,3.4884,3.5017,3.5057,3.5151,3.5151,3.5164,3.5164,3.5191,3.5191,3.5191,3.5191,3.5191,3.5191,3.5191,3.5191,3.5191,3.5191,3.5191,3.5177,3.5097,3.5057,3.5137,3.5177,3.5151,3.5124,3.5164,3.5191,3.3389,3.3389,3.3389,3.3389,3.3389,3.3389,3.3389,3.3389,3.3389,3.3389,3.3389,3.3389,3.3389,3.3389,3.3389,3.3389,3.3389,3.3389,3.3389,3.3389,3.3389,3.3389,3.3389,3.3389,3.3389,3.3389,3.3389,3.3389,3.3389,3.3415,3.3389,3.3389,3.3441,3.3389,3.3389,3.3389,3.3389,3.3389,3.3389,3.3389,3.3389,3.3389,3.3389,3.3389,3.3389,3.3389,3.3389,3.3389,3.3389,3.3389,3.3389,3.3389,3.3389,3.3389,3.3389,3.3389,3.3415,3.3428,3.3415,3.3415,3.3389,3.3389,3.3389,3.3402,3.3455,3.3575,3.3681,3.3801,3.3962,3.4135,3.4175,3.4255,3.4336,3.4522,3.4629,3.467,3.4697,3.4697,3.471,3.4697,3.479,3.495,3.5003,3.5043,3.4963,3.491,3.5003,3.5083,3.5137,3.5191,3.5191,3.5191,3.5191,3.5191,3.5191,3.5191,3.5191,3.5191,3.5191,3.5191,3.5191,3.5191,3.5191,3.5191,3.5191,3.5191,3.5191,3.5191,3.5191,3.5177,3.5177,3.5177,3.5177,3.5191,3.5191,3.3389,3.3389,3.3389,3.3389,3.3389,3.3389,3.3389,3.3389,3.3389,3.3389,3.3389,3.3389,3.3389,3.3389,3.3389,3.3389,3.3389,3.3389,3.3389,3.3389,3.3389,3.3389,3.3389,3.3389,3.3389,3.3389,3.3389,3.3389,3.3389,3.3481,3.3561,3.3601,3.3627,3.3615,3.3389,3.3389,3.3389,3.3389,3.3389,3.3389,3.3389,3.3389,3.3389,3.3389,3.3389,3.3389,3.3389,3.3389,3.3389,3.3389,3.3389,3.3389,3.3389,3.3389,3.3389,3.3428,3.3494,3.356,3.3534,3.3441,3.3455,3.3561,3.3575,3.3615,3.3695,3.3869,3.3989,3.4042,3.4269,3.4456,3.4469,3.4576,3.4696,3.4883,3.4896,3.495,3.5004,3.503,3.5057,3.5071,3.5151,3.5137,3.5124,3.5137,3.5097,3.5044,3.5084,3.5137,3.5164,3.5191,3.5191,3.5191,3.5191,3.5191,3.5191,3.5191,3.5191,3.5191,3.5191,3.5191,3.5191,3.5191,3.5191,3.5191,3.5191,3.5191,3.5191,3.5191,3.5191,3.5191,3.5191,3.5191,3.5191,3.5191,3.5191,3.3389,3.3389,3.3389,3.3389,3.3389,3.3389,3.3389,3.3389,3.3389,3.3389,3.3389,3.3389,3.3389,3.3389,3.3389,3.3389,3.3389,3.3389,3.3428,3.3455,3.3495,3.3441,3.3455,3.3481,3.3561,3.3428,3.3508,3.3549,3.3482,3.3748,3.3855,3.3935,3.4002,3.3949,3.3455,3.3402,3.3402,3.3402,3.3428,3.3441,3.3389,3.3389,3.3389,3.3389,3.3389,3.3389,3.3389,3.3389,3.3389,3.3389,3.3389,3.3415,3.3468,3.348,3.3494,3.3508,3.3748,3.3855,3.3855,3.3575,3.3628,3.3828,3.3868,3.3935,3.4162,3.427,3.4296,3.4348,3.4589,3.4762,3.4869,3.4963,3.507,3.511,3.5124,3.5124,3.5177,3.5191,3.5191,3.5191,3.5191,3.5177,3.5177,3.5177,3.5177,3.5164,3.5177,3.5191,3.5191,3.5191,3.5191,3.5191,3.5191,3.5191,3.5191,3.5191,3.5191,3.5191,3.5191,3.5191,3.5191,3.5191,3.5191,3.5191,3.5191,3.5191,3.5191,3.5191,3.5191,3.5191,3.5191,3.5191,3.5191,3.5191,3.5191,3.3389,3.3389,3.3389,3.3389,3.3389,3.3389,3.3389,3.3389,3.3389,3.3389,3.3389,3.3389,3.3389,3.3389,3.3415,3.3428,3.3415,3.3415,3.3455,3.3721,3.3734,3.3747,3.3761,3.3855,3.3881,3.3828,3.3855,3.3949,3.4016,3.4122,3.4162,3.4229,3.4309,3.4176,3.4043,3.3975,3.3935,3.3774,3.372,3.3641,3.3429,3.3402,3.3415,3.3429,3.3429,3.3442,3.3455,3.3469,3.3469,3.3468,3.3481,3.3548,3.3681,3.3734,3.3814,3.3922,3.4136,3.4162,3.4149,3.4043,3.4043,3.4148,3.4189,3.4216,3.4296,3.447,3.4563,3.4669,3.487,3.5016,3.511,3.511,3.5164,3.5164,3.5164,3.5177,3.5191,3.5191,3.5191,3.5191,3.5191,3.5191,3.5191,3.5191,3.5191,3.5191,3.5191,3.5191,3.5191,3.5191,3.5191,3.5191,3.5191,3.5191,3.5191,3.5191,3.5191,3.5191,3.5191,3.5191,3.5191,3.5191,3.5191,3.5191,3.5191,3.5191,3.5191,3.5191,3.5191,3.5191,3.5191,3.5191,3.5191,3.5191,3.5191,3.3389,3.3389,3.3389,3.3389,3.3389,3.3389,3.3389,3.3389,3.3389,3.3389,3.3389,3.3401,3.3494,3.3535,3.3574,3.3668,3.3695,3.3709,3.3762,3.4028,3.4028,3.4028,3.4108,3.4215,3.4136,3.4109,3.4176,3.427,3.4243,3.4364,3.451,3.4629,3.4603,3.4643,3.455,3.4416,3.4202,3.4055,3.4002,3.3961,3.3815,3.3762,3.3748,3.3736,3.3736,3.3722,3.3722,3.3708,3.3708,3.3695,3.3735,3.3814,3.3988,3.4068,3.4122,3.4256,3.4429,3.4496,3.459,3.463,3.463,3.4656,3.4549,3.4536,3.459,3.479,3.4883,3.499,3.5124,3.5151,3.5191,3.5191,3.5191,3.5191,3.5191,3.5191,3.5191,3.5191,3.5191,3.5191,3.5191,3.5191,3.5191,3.5191,3.5191,3.5191,3.5191,3.5191,3.5191,3.5191,3.5191,3.5191,3.5191,3.5191,3.5191,3.5191,3.5191,3.5191,3.5191,3.5191,3.5191,3.5191,3.5191,3.5191,3.5191,3.5191,3.5191,3.5191,3.5191,3.5191,3.5191,3.5191,3.5191,3.5191,3.5191,3.3389,3.3389,3.3389,3.3389,3.3389,3.3389,3.3389,3.3389,3.3389,3.3389,3.344,3.3455,3.3627,3.3867,3.392,3.4015,3.4162,3.4203,3.4256,3.4296,3.4323,3.4323,3.4336,3.4377,3.4403,3.435,3.4403,3.4536,3.4403,3.4617,3.4871,3.5044,3.503,3.503,3.4897,3.4697,3.4456,3.4362,3.4322,3.4255,3.4123,3.4176,3.4149,3.4123,3.4123,3.4136,3.4149,3.4162,3.4189,3.4216,3.4243,3.4283,3.4309,3.4323,3.4323,3.443,3.4683,3.487,3.503,3.5057,3.507,3.5004,3.4909,3.499,3.503,3.5071,3.5084,3.511,3.5177,3.5177,3.5191,3.5191,3.5191,3.5191,3.5191,3.5191,3.5191,3.5191,3.5191,3.5191,3.5191,3.5191,3.5191,3.5191,3.5191,3.5191,3.5191,3.5191,3.5191,3.5191,3.5191,3.5191,3.5191,3.5191,3.5191,3.5191,3.5191,3.5191,3.5191,3.5191,3.5191,3.5191,3.5191,3.5191,3.5191,3.5191,3.5191,3.5191,3.5191,3.5191,3.5191,3.5191,3.5191,3.5191,3.5191,3.3389,3.3389,3.3389,3.3389,3.3389,3.3389,3.3389,3.3389,3.3389,3.3521,3.376,3.376,3.3934,3.4176,3.4202,3.4243,3.4296,3.4336,3.4482,3.4549,3.4643,3.4642,3.4709,3.4776,3.4789,3.4763,3.479,3.4857,3.4924,3.5031,3.5031,3.5177,3.5191,3.5191,3.5124,3.5017,3.483,3.4709,3.4642,3.4536,3.4403,3.4389,3.4376,3.4389,3.4377,3.4389,3.4389,3.4363,3.4363,3.4337,3.431,3.4376,3.4655,3.4669,3.4709,3.4936,3.5057,3.5124,3.5177,3.5191,3.5191,3.5191,3.5097,3.5137,3.5177,3.5191,3.5191,3.5191,3.5191,3.5191,3.5191,3.5191,3.5191,3.5191,3.5191,3.5191,3.5191,3.5191,3.5191,3.5191,3.5191,3.5191,3.5191,3.5191,3.5191,3.5191,3.5191,3.5191,3.5191,3.5191,3.5191,3.5191,3.5191,3.5191,3.5191,3.5191,3.5191,3.5191,3.5191,3.5191,3.5191,3.5191,3.5191,3.5191,3.5191,3.5191,3.5191,3.5191,3.5191,3.5191,3.5191,3.5191,3.5191,3.5191,3.5191,3.3389,3.3389,3.3389,3.3389,3.3415,3.3547,3.3588,3.3601,3.3601,3.3774,3.4042,3.4042,3.4228,3.4469,3.4509,3.4563,3.4696,3.4723,3.479,3.4896,3.495,3.4963,3.5043,3.5097,3.507,3.507,3.507,3.5111,3.5191,3.5191,3.5177,3.5191,3.5191,3.5191,3.5164,3.5137,3.5097,3.5016,3.4936,3.483,3.4723,3.463,3.4657,3.463,3.4617,3.463,3.4643,3.4617,3.4617,3.4643,3.4657,3.4723,3.495,3.4976,3.499,3.5164,3.5164,3.5177,3.5191,3.5191,3.5191,3.5191,3.5191,3.5191,3.5191,3.5191,3.5191,3.5191,3.5191,3.5191,3.5191,3.5191,3.5191,3.5191,3.5191,3.5191,3.5191,3.5191,3.5191,3.5191,3.5191,3.5191,3.5191,3.5191,3.5191,3.5191,3.5191,3.5191,3.5191,3.5191,3.5191,3.5191,3.5191,3.5191,3.5191,3.5191,3.5191,3.5191,3.5191,3.5191,3.5191,3.5191,3.5191,3.5191,3.5191,3.5191,3.5191,3.5191,3.5191,3.5191,3.5191,3.5191,3.5191,3.5191,3.5191,3.3389,3.3389,3.3389,3.3415,3.3481,3.3748,3.3921,3.3948,3.3988,3.4121,3.4309,3.4349,3.4523,3.4776,3.4829,3.4923,3.5004,3.5044,3.503,3.5177,3.5137,3.5124,3.5137,3.5177,3.5164,3.5164,3.5191,3.5191,3.5191,3.5191,3.5191,3.5191,3.5191,3.5191,3.5191,3.5191,3.5164,3.5137,3.5124,3.5084,3.5111,3.5151,3.5191,3.5137,3.5124,3.5137,3.5137,3.5164,3.5191,3.5191,3.5177,3.5137,3.5151,3.5164,3.5177,3.5191,3.5191,3.5191,3.5191,3.5191,3.5191,3.5191,3.5191,3.5191,3.5191,3.5191,3.5191,3.5191,3.5191,3.5191,3.5191,3.5191,3.5191,3.5191,3.5191,3.5191,3.5191,3.5191,3.5191,3.5191,3.5191,3.5191,3.5191,3.5191,3.5191,3.5191,3.5191,3.5191,3.5191,3.5191,3.5191,3.5191,3.5191,3.5191,3.5191,3.5191,3.5191,3.5191,3.5191,3.5191,3.5191,3.5191,3.5191,3.5191,3.5191,3.5191,3.5191,3.5191,3.5191,3.5191,3.5191,3.5191,3.5191,3.5191,3.5191,3.3389,3.3389,3.3389,3.3547,3.3787,3.3867,3.4161,3.4588,3.4575,3.4615,3.4682,3.4696,3.4816,3.5043,3.507,3.5124,3.5164,3.5191,3.5191,3.5177,3.5191,3.5191,3.5191,3.5191,3.5191,3.5191,3.5191,3.5191,3.5204,3.5204,3.5191,3.5204,3.5244,3.5297,3.5284,3.5284,3.5284,3.5311,3.5244,3.5231,3.5244,3.5204,3.5191,3.5191,3.5191,3.5191,3.5191,3.5191,3.5191,3.5177,3.5177,3.5177,3.5177,3.5191,3.5191,3.5191,3.5191,3.5191,3.5191,3.5191,3.5191,3.5191,3.5191,3.5191,3.5191,3.5191,3.5191,3.5191,3.5191,3.5191,3.5191,3.5191,3.5191,3.5191,3.5191,3.5191,3.5191,3.5191,3.5191,3.5191,3.5191,3.5191,3.5191,3.5191,3.5191,3.5191,3.5191,3.5191,3.5191,3.5191,3.5191,3.5191,3.5191,3.5191,3.5191,3.5191,3.5191,3.5191,3.5191,3.5191,3.5191,3.5191,3.5191,3.5191,3.5191,3.5191,3.5191,3.5191,3.5191,3.5191,3.5191,3.5191,3.5191,3.5191,3.5191,3.3389,3.3415,3.3574,3.3734,3.3921,3.4175,3.4495,3.4776,3.491,3.4963,3.4989,3.499,3.507,3.5191,3.5191,3.5191,3.5191,3.5191,3.5191,3.5191,3.5191,3.5191,3.5191,3.5191,3.5191,3.5191,3.5191,3.5191,3.5231,3.5351,3.5404,3.5404,3.5471,3.5565,3.5578,3.5591,3.5578,3.5618,3.5458,3.5391,3.5351,3.5284,3.5204,3.5191,3.5191,3.5191,3.5191,3.5191,3.5191,3.5191,3.5191,3.5191,3.5191,3.5191,3.5191,3.5191,3.5191,3.5191,3.5191,3.5191,3.5191,3.5191,3.5191,3.5191,3.5191,3.5191,3.5191,3.5191,3.5191,3.5191,3.5191,3.5191,3.5191,3.5191,3.5191,3.5191,3.5191,3.5191,3.5191,3.5191,3.5191,3.5191,3.5191,3.5191,3.5191,3.5191,3.5191,3.5191,3.5191,3.5191,3.5191,3.5191,3.5191,3.5191,3.5191,3.5191,3.5191,3.5191,3.5191,3.5191,3.5191,3.5191,3.5191,3.5191,3.5191,3.5191,3.5191,3.5191,3.5191,3.5191,3.5191,3.5191,3.5191,3.5191,3.5191,3.3428,3.3507,3.3787,3.3947,3.4081,3.4548,3.4789,3.4896,3.5083,3.5191,3.5164,3.5177,3.5191,3.5191,3.5191,3.5191,3.5191,3.5191,3.5191,3.5191,3.5191,3.5191,3.5191,3.5191,3.5191,3.5191,3.5191,3.5257,3.5311,3.5458,3.5591,3.5712,3.5899,3.6086,3.6099,3.6086,3.6006,3.5939,3.5819,3.5685,3.5551,3.5351,3.5231,3.5191,3.5191,3.5191,3.5191,3.5191,3.5191,3.5191,3.5191,3.5191,3.5191,3.5191,3.5191,3.5191,3.5191,3.5191,3.5191,3.5191,3.5191,3.5191,3.5191,3.5191,3.5191,3.5191,3.5191,3.5191,3.5191,3.5191,3.5191,3.5191,3.5191,3.5191,3.5191,3.5191,3.5191,3.5191,3.5191,3.5191,3.5191,3.5191,3.5191,3.5191,3.5191,3.5191,3.5191,3.5191,3.5191,3.5191,3.5191,3.5191,3.5191,3.5191,3.5191,3.5191,3.5191,3.5191,3.5191,3.5191,3.5191,3.5191,3.5191,3.5191,3.5191,3.5191,3.5191,3.5191,3.5191,3.5191,3.5191,3.5191,3.5191,3.5191,3.5191,3.3561,3.3814,3.3881,3.4174,3.4589,3.4762,3.4923,3.511,3.5151,3.5191,3.5191,3.5191,3.5191,3.5191,3.5191,3.5191,3.5191,3.5191,3.5191,3.5191,3.5191,3.5191,3.5244,3.5351,3.5217,3.5257,3.5324,3.5351,3.5458,3.5578,3.5738,3.5952,3.5992,3.6099,3.6099,3.6099,3.6086,3.6046,3.6019,3.5899,3.5778,3.5551,3.5244,3.5191,3.5191,3.5191,3.5191,3.5191,3.5191,3.5191,3.5191,3.5191,3.5191,3.5191,3.5191,3.5191,3.5191,3.5191,3.5191,3.5191,3.5191,3.5191,3.5191,3.5191,3.5191,3.5191,3.5191,3.5191,3.5191,3.5191,3.5191,3.5191,3.5191,3.5191,3.5191,3.5191,3.5191,3.5191,3.5191,3.5191,3.5191,3.5191,3.5191,3.5191,3.5191,3.5191,3.5191,3.5191,3.5191,3.5191,3.5191,3.5191,3.5191,3.5191,3.5191,3.5191,3.5191,3.5191,3.5191,3.5191,3.5191,3.5191,3.5191,3.5191,3.5191,3.5191,3.5191,3.5191,3.5191,3.5191,3.5191,3.5191,3.5191,3.5191,3.5191]}]]